<?xml version="1.0" encoding="UTF-8"?>
<gpx version="1.1" creator="2bulu-scraper" xmlns="http://www.topografix.com/GPX/1/1">
  <metadata><name>泸州叙永县</name><desc>source: 2bulu.com trackId=85416845; exported 2026-09-01T14:43:41.650Z</desc>
    <bounds minlat="28.2581691" minlon="105.4902459" maxlat="28.2762559" maxlon="105.5549665"/>
    <link href="https://www.2bulu.com/track/t-gi93DzfgdR7p%252FR2KBg5Tzw%253D%253D.htm"><text>2bulu 源页面</text></link>
  </metadata>
  <wpt lat="28.273857" lon="105.5367079"><ele>405</ele><name>
        </name></wpt>
  <wpt lat="28.2739825" lon="105.5373"><ele>402</ele><name>
        </name></wpt>
  <wpt lat="28.2733206" lon="105.5369336"><ele>418</ele><name>
        </name></wpt>
  <wpt lat="28.2728934" lon="105.5365389"><ele>441</ele><name>
        </name></wpt>
  <wpt lat="28.2711576" lon="105.5321609"><ele>518</ele><name>
        </name></wpt>
  <wpt lat="28.2697157" lon="105.5308612"><ele>535</ele><name>
        </name></wpt>
  <wpt lat="28.2687946" lon="105.5308405"><ele>540</ele><name>
        </name></wpt>
  <wpt lat="28.2683704" lon="105.5296143"><ele>549</ele><name>
        </name></wpt>
  <wpt lat="28.2674462" lon="105.5276683"><ele>556</ele><name>
        </name></wpt>
  <wpt lat="28.2668821" lon="105.5252448"><ele>606</ele><name>
        </name></wpt>
  <wpt lat="28.2670374" lon="105.5261958"><ele>604</ele><name>
        </name></wpt>
  <wpt lat="28.2639863" lon="105.5213621"><ele>755</ele><name>
        </name></wpt>
  <wpt lat="28.2641746" lon="105.5206347"><ele>773</ele><name>
        </name></wpt>
  <wpt lat="28.2642533" lon="105.5206353"><ele>782</ele><name>
        </name></wpt>
  <wpt lat="28.2642533" lon="105.5206353"><ele>782</ele><name>
        </name></wpt>
  <wpt lat="28.2641977" lon="105.5204458"><ele>785</ele><name>
        </name></wpt>
  <wpt lat="28.2637928" lon="105.5195738"><ele>842</ele><name>
        </name></wpt>
  <wpt lat="28.2646342" lon="105.5174949"><ele>949</ele><name>
        </name></wpt>
  <wpt lat="28.2622821" lon="105.5016913"><ele>1172</ele><name>
        </name></wpt>
  <wpt lat="28.260529" lon="105.4963874"><ele>1323</ele><name>
        </name></wpt>
  <wpt lat="28.2693108" lon="105.4902459"><ele>1017</ele><name>
        </name></wpt>
  <wpt lat="28.2705822" lon="105.4943674"><ele>1022</ele><name>
        </name></wpt>
  <wpt lat="28.2701456" lon="105.5189478"><ele>975</ele><name>
        </name></wpt>
  <wpt lat="28.2702203" lon="105.5189509"><ele>973</ele><name>
        </name></wpt>
  <wpt lat="28.270215" lon="105.5196458"><ele>965</ele><name>
        </name></wpt>
  <wpt lat="28.2729157" lon="105.5275142"><ele>848</ele><name>
        </name></wpt>
  <wpt lat="28.2730289" lon="105.5280276"><ele>829</ele><name>
        </name></wpt>
  <wpt lat="28.2737721" lon="105.5296175"><ele>805</ele><name>
        </name></wpt>
  <wpt lat="28.2737283" lon="105.5296425"><ele>805</ele><name>
        </name></wpt>
  <wpt lat="28.2739227" lon="105.53086"><ele>767</ele><name>
        </name></wpt>
  <wpt lat="28.2741383" lon="105.5316493"><ele>738</ele><name>
        </name></wpt>
  <wpt lat="28.2742419" lon="105.5321178"><ele>725</ele><name>
        </name></wpt>
  <wpt lat="28.2745385" lon="105.5328222"><ele>709</ele><name>
        </name></wpt>
  <wpt lat="28.2746034" lon="105.5336455"><ele>674</ele><name>
        </name></wpt>
  <wpt lat="28.274675" lon="105.534022"><ele>657</ele><name>
        </name></wpt>
  <wpt lat="28.2750152" lon="105.5345772"><ele>603</ele><name>
        </name></wpt>
  <wpt lat="28.2748972" lon="105.5355917"><ele>555</ele><name>
        </name></wpt>
  <wpt lat="28.2749321" lon="105.5356609"><ele>546</ele><name>
        </name></wpt>
  <wpt lat="28.2751381" lon="105.535624"><ele>533</ele><name>
        </name></wpt>
  <wpt lat="28.2751948" lon="105.5355835"><ele>520</ele><name>
        </name></wpt>
  <wpt lat="28.2740989" lon="105.5361381"><ele>454</ele><name>
        </name></wpt>
  <wpt lat="28.2738741" lon="105.5367951"><ele>410</ele><name>
        </name></wpt>
  <trk><name>泸州叙永县</name>
      <trkseg>
        <trkpt lat="28.2581691" lon="105.5549665"><ele>489.75</ele><time>2026-06-05T19:28:11.000Z</time></trkpt>
        <trkpt lat="28.2582159" lon="105.554887"><ele>489.75</ele><time>2026-06-05T19:29:01.000Z</time></trkpt>
        <trkpt lat="28.2582683" lon="105.5547779"><ele>491.6</ele><time>2026-06-05T19:29:11.000Z</time></trkpt>
        <trkpt lat="28.2583028" lon="105.5546507"><ele>492.99</ele><time>2026-06-05T19:29:19.000Z</time></trkpt>
        <trkpt lat="28.2583088" lon="105.5545306"><ele>494.92</ele><time>2026-06-05T19:29:27.000Z</time></trkpt>
        <trkpt lat="28.2583147" lon="105.5544193"><ele>496.47</ele><time>2026-06-05T19:29:35.000Z</time></trkpt>
        <trkpt lat="28.2583619" lon="105.5543276"><ele>497.7</ele><time>2026-06-05T19:29:43.000Z</time></trkpt>
        <trkpt lat="28.2583515" lon="105.5542409"><ele>501.46</ele><time>2026-06-05T19:29:55.000Z</time></trkpt>
        <trkpt lat="28.2584069" lon="105.5543148"><ele>502.79</ele><time>2026-06-05T19:30:57.000Z</time></trkpt>
        <trkpt lat="28.2585413" lon="105.5542787"><ele>505.62</ele><time>2026-06-05T19:31:02.000Z</time></trkpt>
        <trkpt lat="28.2588528" lon="105.5542503"><ele>507.85</ele><time>2026-06-05T19:31:08.000Z</time></trkpt>
        <trkpt lat="28.2590092" lon="105.5541602"><ele>509.79</ele><time>2026-06-05T19:31:10.000Z</time></trkpt>
        <trkpt lat="28.2591307" lon="105.5540278"><ele>510.57</ele><time>2026-06-05T19:31:12.000Z</time></trkpt>
        <trkpt lat="28.2592404" lon="105.5538412"><ele>510.27</ele><time>2026-06-05T19:31:14.000Z</time></trkpt>
        <trkpt lat="28.2593484" lon="105.553613"><ele>509.48</ele><time>2026-06-05T19:31:15.000Z</time></trkpt>
        <trkpt lat="28.2594832" lon="105.553389"><ele>508.54</ele><time>2026-06-05T19:31:18.000Z</time></trkpt>
        <trkpt lat="28.259631" lon="105.5531742"><ele>508.03</ele><time>2026-06-05T19:31:20.000Z</time></trkpt>
        <trkpt lat="28.2598039" lon="105.5529899"><ele>507.9</ele><time>2026-06-05T19:31:22.000Z</time></trkpt>
        <trkpt lat="28.2600197" lon="105.5528574"><ele>507.28</ele><time>2026-06-05T19:31:23.000Z</time></trkpt>
        <trkpt lat="28.2602813" lon="105.5527574"><ele>506.13</ele><time>2026-06-05T19:31:25.000Z</time></trkpt>
        <trkpt lat="28.2605776" lon="105.5526869"><ele>504.49</ele><time>2026-06-05T19:31:27.000Z</time></trkpt>
        <trkpt lat="28.2608809" lon="105.5526618"><ele>503.37</ele><time>2026-06-05T19:31:30.000Z</time></trkpt>
        <trkpt lat="28.2611682" lon="105.5526363"><ele>503.34</ele><time>2026-06-05T19:31:31.000Z</time></trkpt>
        <trkpt lat="28.2614264" lon="105.5526385"><ele>503.36</ele><time>2026-06-05T19:31:33.000Z</time></trkpt>
        <trkpt lat="28.2616464" lon="105.5526642"><ele>503.43</ele><time>2026-06-05T19:31:35.000Z</time></trkpt>
        <trkpt lat="28.2618366" lon="105.5526736"><ele>504.16</ele><time>2026-06-05T19:31:37.000Z</time></trkpt>
        <trkpt lat="28.2620155" lon="105.5526361"><ele>503.94</ele><time>2026-06-05T19:31:40.000Z</time></trkpt>
        <trkpt lat="28.2621451" lon="105.5525222"><ele>503.09</ele><time>2026-06-05T19:31:42.000Z</time></trkpt>
        <trkpt lat="28.2621868" lon="105.5523577"><ele>501.92</ele><time>2026-06-05T19:31:44.000Z</time></trkpt>
        <trkpt lat="28.2621553" lon="105.552165"><ele>501.23</ele><time>2026-06-05T19:31:46.000Z</time></trkpt>
        <trkpt lat="28.2621355" lon="105.5519673"><ele>500.62</ele><time>2026-06-05T19:31:48.000Z</time></trkpt>
        <trkpt lat="28.2622161" lon="105.5518426"><ele>500.18</ele><time>2026-06-05T19:31:50.000Z</time></trkpt>
        <trkpt lat="28.2623403" lon="105.5518537"><ele>500.44</ele><time>2026-06-05T19:31:52.000Z</time></trkpt>
        <trkpt lat="28.2624413" lon="105.5519848"><ele>499.89</ele><time>2026-06-05T19:31:54.000Z</time></trkpt>
        <trkpt lat="28.2625516" lon="105.5521187"><ele>498.76</ele><time>2026-06-05T19:31:56.000Z</time></trkpt>
        <trkpt lat="28.2626885" lon="105.5521729"><ele>497.84</ele><time>2026-06-05T19:31:57.000Z</time></trkpt>
        <trkpt lat="28.26284" lon="105.5521421"><ele>497.32</ele><time>2026-06-05T19:32:00.000Z</time></trkpt>
        <trkpt lat="28.2629937" lon="105.5520303"><ele>496.73</ele><time>2026-06-05T19:32:02.000Z</time></trkpt>
        <trkpt lat="28.2631604" lon="105.5518863"><ele>496.27</ele><time>2026-06-05T19:32:04.000Z</time></trkpt>
        <trkpt lat="28.26334" lon="105.5517646"><ele>495.84</ele><time>2026-06-05T19:32:06.000Z</time></trkpt>
        <trkpt lat="28.263538" lon="105.5516948"><ele>495.05</ele><time>2026-06-05T19:32:07.000Z</time></trkpt>
        <trkpt lat="28.2637406" lon="105.5516547"><ele>494.28</ele><time>2026-06-05T19:32:09.000Z</time></trkpt>
        <trkpt lat="28.2639568" lon="105.5516395"><ele>493.92</ele><time>2026-06-05T19:32:12.000Z</time></trkpt>
        <trkpt lat="28.2641929" lon="105.5516586"><ele>493.43</ele><time>2026-06-05T19:32:13.000Z</time></trkpt>
        <trkpt lat="28.2644458" lon="105.5516748"><ele>492.75</ele><time>2026-06-05T19:32:16.000Z</time></trkpt>
        <trkpt lat="28.2646984" lon="105.5516365"><ele>491.92</ele><time>2026-06-05T19:32:17.000Z</time></trkpt>
        <trkpt lat="28.264955" lon="105.5515692"><ele>491.12</ele><time>2026-06-05T19:32:20.000Z</time></trkpt>
        <trkpt lat="28.2651974" lon="105.5515048"><ele>489.71</ele><time>2026-06-05T19:32:22.000Z</time></trkpt>
        <trkpt lat="28.2654011" lon="105.5514076"><ele>487.88</ele><time>2026-06-05T19:32:23.000Z</time></trkpt>
        <trkpt lat="28.265543" lon="105.5512598"><ele>485.64</ele><time>2026-06-05T19:32:26.000Z</time></trkpt>
        <trkpt lat="28.2656124" lon="105.5510538"><ele>482.61</ele><time>2026-06-05T19:32:27.000Z</time></trkpt>
        <trkpt lat="28.2656314" lon="105.5507947"><ele>479.96</ele><time>2026-06-05T19:32:30.000Z</time></trkpt>
        <trkpt lat="28.2656276" lon="105.550528"><ele>477.37</ele><time>2026-06-05T19:32:32.000Z</time></trkpt>
        <trkpt lat="28.2656135" lon="105.5503111"><ele>475.22</ele><time>2026-06-05T19:32:34.000Z</time></trkpt>
        <trkpt lat="28.2655716" lon="105.5500895"><ele>473.38</ele><time>2026-06-05T19:32:36.000Z</time></trkpt>
        <trkpt lat="28.2655363" lon="105.5498304"><ele>471.51</ele><time>2026-06-05T19:32:37.000Z</time></trkpt>
        <trkpt lat="28.2655275" lon="105.5495368"><ele>470.1</ele><time>2026-06-05T19:32:40.000Z</time></trkpt>
        <trkpt lat="28.2655431" lon="105.5492489"><ele>468.8</ele><time>2026-06-05T19:32:42.000Z</time></trkpt>
        <trkpt lat="28.2655575" lon="105.5489718"><ele>467.62</ele><time>2026-06-05T19:32:43.000Z</time></trkpt>
        <trkpt lat="28.2655836" lon="105.5487223"><ele>465.87</ele><time>2026-06-05T19:32:46.000Z</time></trkpt>
        <trkpt lat="28.2656156" lon="105.5485116"><ele>464.9</ele><time>2026-06-05T19:32:48.000Z</time></trkpt>
        <trkpt lat="28.2656648" lon="105.5483203"><ele>464.11</ele><time>2026-06-05T19:32:50.000Z</time></trkpt>
        <trkpt lat="28.2657929" lon="105.5481566"><ele>463.35</ele><time>2026-06-05T19:32:51.000Z</time></trkpt>
        <trkpt lat="28.2659735" lon="105.5479961"><ele>462.73</ele><time>2026-06-05T19:32:53.000Z</time></trkpt>
        <trkpt lat="28.2661834" lon="105.5478467"><ele>461.66</ele><time>2026-06-05T19:32:56.000Z</time></trkpt>
        <trkpt lat="28.2664197" lon="105.5477248"><ele>460.32</ele><time>2026-06-05T19:32:57.000Z</time></trkpt>
        <trkpt lat="28.2666734" lon="105.5475972"><ele>458.5</ele><time>2026-06-05T19:33:00.000Z</time></trkpt>
        <trkpt lat="28.2669349" lon="105.5474668"><ele>455.62</ele><time>2026-06-05T19:33:02.000Z</time></trkpt>
        <trkpt lat="28.2671917" lon="105.5473317"><ele>453.14</ele><time>2026-06-05T19:33:03.000Z</time></trkpt>
        <trkpt lat="28.26743" lon="105.5471614"><ele>451.21</ele><time>2026-06-05T19:33:06.000Z</time></trkpt>
        <trkpt lat="28.2676312" lon="105.5469482"><ele>449.39</ele><time>2026-06-05T19:33:07.000Z</time></trkpt>
        <trkpt lat="28.2678258" lon="105.5467258"><ele>448.7</ele><time>2026-06-05T19:33:09.000Z</time></trkpt>
        <trkpt lat="28.2680474" lon="105.5465544"><ele>448.24</ele><time>2026-06-05T19:33:11.000Z</time></trkpt>
        <trkpt lat="28.268254" lon="105.5464324"><ele>447.67</ele><time>2026-06-05T19:33:13.000Z</time></trkpt>
        <trkpt lat="28.268405" lon="105.5463017"><ele>447.07</ele><time>2026-06-05T19:33:16.000Z</time></trkpt>
        <trkpt lat="28.2685245" lon="105.5461184"><ele>446.51</ele><time>2026-06-05T19:33:18.000Z</time></trkpt>
        <trkpt lat="28.2686654" lon="105.5459312"><ele>445.95</ele><time>2026-06-05T19:33:20.000Z</time></trkpt>
        <trkpt lat="28.2688425" lon="105.5457782"><ele>445.58</ele><time>2026-06-05T19:33:22.000Z</time></trkpt>
        <trkpt lat="28.2690439" lon="105.545644"><ele>445.14</ele><time>2026-06-05T19:33:24.000Z</time></trkpt>
        <trkpt lat="28.2692527" lon="105.5455042"><ele>444.6</ele><time>2026-06-05T19:33:26.000Z</time></trkpt>
        <trkpt lat="28.2694708" lon="105.5453425"><ele>443.27</ele><time>2026-06-05T19:33:27.000Z</time></trkpt>
        <trkpt lat="28.2696876" lon="105.5451541"><ele>441.42</ele><time>2026-06-05T19:33:30.000Z</time></trkpt>
        <trkpt lat="28.2698926" lon="105.5449574"><ele>438.92</ele><time>2026-06-05T19:33:32.000Z</time></trkpt>
        <trkpt lat="28.2700342" lon="105.544764"><ele>435.94</ele><time>2026-06-05T19:33:34.000Z</time></trkpt>
        <trkpt lat="28.2701071" lon="105.5445333"><ele>433.72</ele><time>2026-06-05T19:33:36.000Z</time></trkpt>
        <trkpt lat="28.2701916" lon="105.5442675"><ele>432.1</ele><time>2026-06-05T19:33:38.000Z</time></trkpt>
        <trkpt lat="28.2703365" lon="105.5440116"><ele>430.69</ele><time>2026-06-05T19:33:40.000Z</time></trkpt>
        <trkpt lat="28.2705462" lon="105.5437874"><ele>429.41</ele><time>2026-06-05T19:33:41.000Z</time></trkpt>
        <trkpt lat="28.2708055" lon="105.5436369"><ele>427.93</ele><time>2026-06-05T19:33:44.000Z</time></trkpt>
        <trkpt lat="28.2711085" lon="105.5435416"><ele>426.74</ele><time>2026-06-05T19:33:46.000Z</time></trkpt>
        <trkpt lat="28.2714323" lon="105.5434598"><ele>425.71</ele><time>2026-06-05T19:33:47.000Z</time></trkpt>
        <trkpt lat="28.2717562" lon="105.5433832"><ele>424.8</ele><time>2026-06-05T19:33:50.000Z</time></trkpt>
        <trkpt lat="28.2720742" lon="105.543326"><ele>425.04</ele><time>2026-06-05T19:33:52.000Z</time></trkpt>
        <trkpt lat="28.2723319" lon="105.5433224"><ele>425.1</ele><time>2026-06-05T19:33:54.000Z</time></trkpt>
        <trkpt lat="28.272544" lon="105.5433233"><ele>425.67</ele><time>2026-06-05T19:33:56.000Z</time></trkpt>
        <trkpt lat="28.2727313" lon="105.5432592"><ele>426.01</ele><time>2026-06-05T19:33:58.000Z</time></trkpt>
        <trkpt lat="28.2729041" lon="105.5431108"><ele>425.25</ele><time>2026-06-05T19:34:00.000Z</time></trkpt>
        <trkpt lat="28.2730888" lon="105.5429204"><ele>425.57</ele><time>2026-06-05T19:34:02.000Z</time></trkpt>
        <trkpt lat="28.2732742" lon="105.5427061"><ele>425.24</ele><time>2026-06-05T19:34:04.000Z</time></trkpt>
        <trkpt lat="28.2734744" lon="105.5424897"><ele>424.97</ele><time>2026-06-05T19:34:05.000Z</time></trkpt>
        <trkpt lat="28.2736858" lon="105.5422809"><ele>424</ele><time>2026-06-05T19:34:08.000Z</time></trkpt>
        <trkpt lat="28.2739076" lon="105.5420818"><ele>422.66</ele><time>2026-06-05T19:34:09.000Z</time></trkpt>
        <trkpt lat="28.274146" lon="105.541918"><ele>421.46</ele><time>2026-06-05T19:34:12.000Z</time></trkpt>
        <trkpt lat="28.2743678" lon="105.5417875"><ele>420.97</ele><time>2026-06-05T19:34:14.000Z</time></trkpt>
        <trkpt lat="28.2745761" lon="105.5417105"><ele>421.48</ele><time>2026-06-05T19:34:16.000Z</time></trkpt>
        <trkpt lat="28.2747807" lon="105.5416542"><ele>421.41</ele><time>2026-06-05T19:34:18.000Z</time></trkpt>
        <trkpt lat="28.2750018" lon="105.5415958"><ele>421.16</ele><time>2026-06-05T19:34:20.000Z</time></trkpt>
        <trkpt lat="28.2752237" lon="105.5415234"><ele>420.97</ele><time>2026-06-05T19:34:21.000Z</time></trkpt>
        <trkpt lat="28.2754001" lon="105.5413878"><ele>420.85</ele><time>2026-06-05T19:34:24.000Z</time></trkpt>
        <trkpt lat="28.2755396" lon="105.5411877"><ele>420.59</ele><time>2026-06-05T19:34:26.000Z</time></trkpt>
        <trkpt lat="28.275669" lon="105.5409812"><ele>420.27</ele><time>2026-06-05T19:34:27.000Z</time></trkpt>
        <trkpt lat="28.2757971" lon="105.5407972"><ele>421.13</ele><time>2026-06-05T19:34:29.000Z</time></trkpt>
        <trkpt lat="28.2759315" lon="105.5406381"><ele>422</ele><time>2026-06-05T19:34:31.000Z</time></trkpt>
        <trkpt lat="28.2760631" lon="105.5404994"><ele>422.93</ele><time>2026-06-05T19:34:33.000Z</time></trkpt>
        <trkpt lat="28.2761423" lon="105.5403715"><ele>424.22</ele><time>2026-06-05T19:34:36.000Z</time></trkpt>
        <trkpt lat="28.2761893" lon="105.5402328"><ele>425.03</ele><time>2026-06-05T19:34:38.000Z</time></trkpt>
        <trkpt lat="28.2762276" lon="105.5400635"><ele>425.04</ele><time>2026-06-05T19:34:40.000Z</time></trkpt>
        <trkpt lat="28.2762539" lon="105.5398848"><ele>424.86</ele><time>2026-06-05T19:34:42.000Z</time></trkpt>
        <trkpt lat="28.2762559" lon="105.5397139"><ele>424.68</ele><time>2026-06-05T19:34:43.000Z</time></trkpt>
        <trkpt lat="28.2762281" lon="105.5395431"><ele>424.68</ele><time>2026-06-05T19:34:46.000Z</time></trkpt>
        <trkpt lat="28.276165" lon="105.5393527"><ele>424.68</ele><time>2026-06-05T19:34:48.000Z</time></trkpt>
        <trkpt lat="28.276095" lon="105.5391357"><ele>424.57</ele><time>2026-06-05T19:34:50.000Z</time></trkpt>
        <trkpt lat="28.276029" lon="105.5389"><ele>424.36</ele><time>2026-06-05T19:34:51.000Z</time></trkpt>
        <trkpt lat="28.2759703" lon="105.5386806"><ele>423.83</ele><time>2026-06-05T19:34:54.000Z</time></trkpt>
        <trkpt lat="28.2759253" lon="105.5384933"><ele>422.96</ele><time>2026-06-05T19:34:56.000Z</time></trkpt>
        <trkpt lat="28.2758571" lon="105.538346"><ele>422.02</ele><time>2026-06-05T19:34:58.000Z</time></trkpt>
        <trkpt lat="28.2757453" lon="105.5382562"><ele>420.8</ele><time>2026-06-05T19:35:00.000Z</time></trkpt>
        <trkpt lat="28.2755805" lon="105.5382025"><ele>419.83</ele><time>2026-06-05T19:35:01.000Z</time></trkpt>
        <trkpt lat="28.2753772" lon="105.5381547"><ele>418.91</ele><time>2026-06-05T19:35:03.000Z</time></trkpt>
        <trkpt lat="28.2751728" lon="105.5381026"><ele>418.32</ele><time>2026-06-05T19:35:05.000Z</time></trkpt>
        <trkpt lat="28.2749849" lon="105.5380217"><ele>417.6</ele><time>2026-06-05T19:35:07.000Z</time></trkpt>
        <trkpt lat="28.2748078" lon="105.5379002"><ele>416.71</ele><time>2026-06-05T19:35:10.000Z</time></trkpt>
        <trkpt lat="28.2746254" lon="105.5377924"><ele>415.12</ele><time>2026-06-05T19:35:11.000Z</time></trkpt>
        <trkpt lat="28.2744465" lon="105.5376754"><ele>413.71</ele><time>2026-06-05T19:35:13.000Z</time></trkpt>
        <trkpt lat="28.2742916" lon="105.5375453"><ele>412.84</ele><time>2026-06-05T19:35:15.000Z</time></trkpt>
        <trkpt lat="28.2741902" lon="105.537447"><ele>410.53</ele><time>2026-06-05T19:35:18.000Z</time></trkpt>
        <trkpt lat="28.2741094" lon="105.537366"><ele>408.72</ele><time>2026-06-05T19:35:22.000Z</time></trkpt>
        <trkpt lat="28.2740209" lon="105.5372557"><ele>406.96</ele><time>2026-06-05T19:35:27.000Z</time></trkpt>
        <trkpt lat="28.2739862" lon="105.5371323"><ele>405.27</ele><time>2026-06-05T19:35:30.000Z</time></trkpt>
        <trkpt lat="28.2739677" lon="105.5370106"><ele>404.29</ele><time>2026-06-05T19:35:32.000Z</time></trkpt>
        <trkpt lat="28.2739323" lon="105.5369102"><ele>403.66</ele><time>2026-06-05T19:35:34.000Z</time></trkpt>
        <trkpt lat="28.2738746" lon="105.5367965"><ele>403.48</ele><time>2026-06-05T19:35:38.000Z</time></trkpt>
        <trkpt lat="28.273857" lon="105.5367079"><ele>404.05</ele><time>2026-06-05T19:35:46.000Z</time></trkpt>
        <trkpt lat="28.2738723" lon="105.53682"><ele>404.29</ele><time>2026-06-05T19:38:37.000Z</time></trkpt>
        <trkpt lat="28.2739247" lon="105.5369143"><ele>405.93</ele><time>2026-06-05T19:38:53.000Z</time></trkpt>
        <trkpt lat="28.2739733" lon="105.5370126"><ele>406.47</ele><time>2026-06-05T19:39:49.000Z</time></trkpt>
        <trkpt lat="28.274006" lon="105.5371317"><ele>404.42</ele><time>2026-06-05T19:39:57.000Z</time></trkpt>
        <trkpt lat="28.2740156" lon="105.5372546"><ele>402.85</ele><time>2026-06-05T19:40:05.000Z</time></trkpt>
        <trkpt lat="28.2739825" lon="105.5373"><ele>402.55</ele><time>2026-06-05T19:40:09.000Z</time></trkpt>
        <trkpt lat="28.2739045" lon="105.5372591"><ele>402.21</ele><time>2026-06-05T19:40:37.000Z</time></trkpt>
        <trkpt lat="28.2738063" lon="105.5371986"><ele>403.11</ele><time>2026-06-05T19:40:53.000Z</time></trkpt>
        <trkpt lat="28.2737102" lon="105.5371313"><ele>404.74</ele><time>2026-06-05T19:41:05.000Z</time></trkpt>
        <trkpt lat="28.273616" lon="105.5370721"><ele>405.3</ele><time>2026-06-05T19:41:15.000Z</time></trkpt>
        <trkpt lat="28.2735334" lon="105.5370118"><ele>406.4</ele><time>2026-06-05T19:41:27.000Z</time></trkpt>
        <trkpt lat="28.2734527" lon="105.5369403"><ele>410.11</ele><time>2026-06-05T19:41:47.000Z</time></trkpt>
        <trkpt lat="28.2733523" lon="105.5369283"><ele>411.97</ele><time>2026-06-05T19:42:05.000Z</time></trkpt>
        <trkpt lat="28.2733206" lon="105.5369336"><ele>413.14</ele><time>2026-06-05T19:42:11.000Z</time></trkpt>
        <trkpt lat="28.2732624" lon="105.5368802"><ele>415.32</ele><time>2026-06-05T19:42:27.000Z</time></trkpt>
        <trkpt lat="28.2732082" lon="105.5367934"><ele>418.78</ele><time>2026-06-05T19:42:39.000Z</time></trkpt>
        <trkpt lat="28.2731458" lon="105.5367032"><ele>423.06</ele><time>2026-06-05T19:42:51.000Z</time></trkpt>
        <trkpt lat="28.273068" lon="105.53664"><ele>424.49</ele><time>2026-06-05T19:43:07.000Z</time></trkpt>
        <trkpt lat="28.2729859" lon="105.5365838"><ele>426.33</ele><time>2026-06-05T19:43:41.000Z</time></trkpt>
        <trkpt lat="28.2728934" lon="105.5365389"><ele>431.61</ele><time>2026-06-05T19:43:55.000Z</time></trkpt>
        <trkpt lat="28.272832" lon="105.5364812"><ele>435.64</ele><time>2026-06-05T19:44:07.000Z</time></trkpt>
        <trkpt lat="28.2728" lon="105.5363873"><ele>439.39</ele><time>2026-06-05T19:44:17.000Z</time></trkpt>
        <trkpt lat="28.2727936" lon="105.5362759"><ele>441.89</ele><time>2026-06-05T19:44:31.000Z</time></trkpt>
        <trkpt lat="28.27281" lon="105.536155"><ele>443.74</ele><time>2026-06-05T19:44:45.000Z</time></trkpt>
        <trkpt lat="28.2728054" lon="105.5360462"><ele>445.56</ele><time>2026-06-05T19:44:57.000Z</time></trkpt>
        <trkpt lat="28.2727664" lon="105.5359414"><ele>446.34</ele><time>2026-06-05T19:45:09.000Z</time></trkpt>
        <trkpt lat="28.2727298" lon="105.5358392"><ele>447.9</ele><time>2026-06-05T19:45:19.000Z</time></trkpt>
        <trkpt lat="28.2727264" lon="105.5357362"><ele>450.2</ele><time>2026-06-05T19:45:29.000Z</time></trkpt>
        <trkpt lat="28.272717" lon="105.5356243"><ele>452</ele><time>2026-06-05T19:45:39.000Z</time></trkpt>
        <trkpt lat="28.2726938" lon="105.5355227"><ele>453.11</ele><time>2026-06-05T19:45:47.000Z</time></trkpt>
        <trkpt lat="28.2726836" lon="105.5354113"><ele>454.91</ele><time>2026-06-05T19:45:57.000Z</time></trkpt>
        <trkpt lat="28.2726595" lon="105.5352933"><ele>456.9</ele><time>2026-06-05T19:46:07.000Z</time></trkpt>
        <trkpt lat="28.2726257" lon="105.5351773"><ele>459.54</ele><time>2026-06-05T19:46:19.000Z</time></trkpt>
        <trkpt lat="28.2725778" lon="105.5351063"><ele>462.09</ele><time>2026-06-05T19:46:27.000Z</time></trkpt>
        <trkpt lat="28.2725743" lon="105.5350174"><ele>462.8</ele><time>2026-06-05T19:47:03.000Z</time></trkpt>
        <trkpt lat="28.2725778" lon="105.5349169"><ele>464.9</ele><time>2026-06-05T19:47:11.000Z</time></trkpt>
        <trkpt lat="28.2725594" lon="105.5348147"><ele>466.76</ele><time>2026-06-05T19:47:19.000Z</time></trkpt>
        <trkpt lat="28.2725149" lon="105.5347226"><ele>467.83</ele><time>2026-06-05T19:47:29.000Z</time></trkpt>
        <trkpt lat="28.272502" lon="105.5346145"><ele>468.34</ele><time>2026-06-05T19:47:37.000Z</time></trkpt>
        <trkpt lat="28.2725235" lon="105.5344997"><ele>469.44</ele><time>2026-06-05T19:47:45.000Z</time></trkpt>
        <trkpt lat="28.2724855" lon="105.5344137"><ele>471.66</ele><time>2026-06-05T19:47:53.000Z</time></trkpt>
        <trkpt lat="28.2724315" lon="105.534329"><ele>474.47</ele><time>2026-06-05T19:48:03.000Z</time></trkpt>
        <trkpt lat="28.2724014" lon="105.5342208"><ele>476.6</ele><time>2026-06-05T19:48:13.000Z</time></trkpt>
        <trkpt lat="28.2723595" lon="105.5341139"><ele>478.12</ele><time>2026-06-05T19:48:23.000Z</time></trkpt>
        <trkpt lat="28.2723096" lon="105.5340143"><ele>477.74</ele><time>2026-06-05T19:48:33.000Z</time></trkpt>
        <trkpt lat="28.2722643" lon="105.5339209"><ele>478.98</ele><time>2026-06-05T19:48:41.000Z</time></trkpt>
        <trkpt lat="28.272222" lon="105.5338297"><ele>479.5</ele><time>2026-06-05T19:48:49.000Z</time></trkpt>
        <trkpt lat="28.2721761" lon="105.533735"><ele>480.19</ele><time>2026-06-05T19:48:57.000Z</time></trkpt>
        <trkpt lat="28.2721318" lon="105.5336397"><ele>481.89</ele><time>2026-06-05T19:49:07.000Z</time></trkpt>
        <trkpt lat="28.2720951" lon="105.5335356"><ele>482.49</ele><time>2026-06-05T19:49:15.000Z</time></trkpt>
        <trkpt lat="28.2720641" lon="105.5334288"><ele>483.63</ele><time>2026-06-05T19:49:25.000Z</time></trkpt>
        <trkpt lat="28.2720178" lon="105.533337"><ele>484.87</ele><time>2026-06-05T19:49:37.000Z</time></trkpt>
        <trkpt lat="28.2719607" lon="105.5332476"><ele>486.25</ele><time>2026-06-05T19:49:53.000Z</time></trkpt>
        <trkpt lat="28.2719102" lon="105.533155"><ele>485.93</ele><time>2026-06-05T19:50:09.000Z</time></trkpt>
        <trkpt lat="28.2719039" lon="105.533045"><ele>488.22</ele><time>2026-06-05T19:50:19.000Z</time></trkpt>
        <trkpt lat="28.2718642" lon="105.5329371"><ele>492.17</ele><time>2026-06-05T19:50:35.000Z</time></trkpt>
        <trkpt lat="28.2717896" lon="105.5328785"><ele>495.41</ele><time>2026-06-05T19:50:49.000Z</time></trkpt>
        <trkpt lat="28.2717007" lon="105.5328217"><ele>498.15</ele><time>2026-06-05T19:51:03.000Z</time></trkpt>
        <trkpt lat="28.2715945" lon="105.5327899"><ele>501.13</ele><time>2026-06-05T19:51:13.000Z</time></trkpt>
        <trkpt lat="28.2715297" lon="105.5327176"><ele>502.27</ele><time>2026-06-05T19:51:27.000Z</time></trkpt>
        <trkpt lat="28.2714657" lon="105.5326434"><ele>503.92</ele><time>2026-06-05T19:51:41.000Z</time></trkpt>
        <trkpt lat="28.271393" lon="105.5325644"><ele>506.38</ele><time>2026-06-05T19:51:53.000Z</time></trkpt>
        <trkpt lat="28.2713335" lon="105.5324781"><ele>508.98</ele><time>2026-06-05T19:52:03.000Z</time></trkpt>
        <trkpt lat="28.2712838" lon="105.5323866"><ele>510.7</ele><time>2026-06-05T19:52:13.000Z</time></trkpt>
        <trkpt lat="28.2712457" lon="105.5322895"><ele>511.8</ele><time>2026-06-05T19:52:23.000Z</time></trkpt>
        <trkpt lat="28.271183" lon="105.5322184"><ele>513.33</ele><time>2026-06-05T19:52:33.000Z</time></trkpt>
        <trkpt lat="28.2711576" lon="105.5321609"><ele>515.06</ele><time>2026-06-05T19:52:39.000Z</time></trkpt>
        <trkpt lat="28.2711041" lon="105.5320958"><ele>516.28</ele><time>2026-06-05T19:52:55.000Z</time></trkpt>
        <trkpt lat="28.2710349" lon="105.5320217"><ele>517.95</ele><time>2026-06-05T19:53:05.000Z</time></trkpt>
        <trkpt lat="28.270952" lon="105.5319521"><ele>519.69</ele><time>2026-06-05T19:53:15.000Z</time></trkpt>
        <trkpt lat="28.2708719" lon="105.5318863"><ele>520.5</ele><time>2026-06-05T19:53:25.000Z</time></trkpt>
        <trkpt lat="28.2707778" lon="105.5318182"><ele>521.07</ele><time>2026-06-05T19:53:39.000Z</time></trkpt>
        <trkpt lat="28.2707174" lon="105.5317214"><ele>521.75</ele><time>2026-06-05T19:53:49.000Z</time></trkpt>
        <trkpt lat="28.2706417" lon="105.5316589"><ele>522.74</ele><time>2026-06-05T19:53:59.000Z</time></trkpt>
        <trkpt lat="28.2705624" lon="105.5316046"><ele>523.53</ele><time>2026-06-05T19:54:09.000Z</time></trkpt>
        <trkpt lat="28.2704846" lon="105.5315498"><ele>524.46</ele><time>2026-06-05T19:54:19.000Z</time></trkpt>
        <trkpt lat="28.2704577" lon="105.5314591"><ele>524.68</ele><time>2026-06-05T19:54:25.000Z</time></trkpt>
        <trkpt lat="28.2704038" lon="105.5313675"><ele>526.35</ele><time>2026-06-05T19:54:37.000Z</time></trkpt>
        <trkpt lat="28.270348" lon="105.5313028"><ele>530</ele><time>2026-06-05T19:54:47.000Z</time></trkpt>
        <trkpt lat="28.270288" lon="105.5312245"><ele>532.93</ele><time>2026-06-05T19:54:59.000Z</time></trkpt>
        <trkpt lat="28.2702183" lon="105.5311524"><ele>534.45</ele><time>2026-06-05T19:55:09.000Z</time></trkpt>
        <trkpt lat="28.2701304" lon="105.5310963"><ele>536.17</ele><time>2026-06-05T19:55:19.000Z</time></trkpt>
        <trkpt lat="28.2700439" lon="105.531046"><ele>536.99</ele><time>2026-06-05T19:55:31.000Z</time></trkpt>
        <trkpt lat="28.2699642" lon="105.5309893"><ele>537.81</ele><time>2026-06-05T19:55:41.000Z</time></trkpt>
        <trkpt lat="28.2698957" lon="105.53092"><ele>537.95</ele><time>2026-06-05T19:55:51.000Z</time></trkpt>
        <trkpt lat="28.2698088" lon="105.5308879"><ele>537.39</ele><time>2026-06-05T19:56:01.000Z</time></trkpt>
        <trkpt lat="28.2697157" lon="105.5308612"><ele>536.75</ele><time>2026-06-05T19:56:11.000Z</time></trkpt>
        <trkpt lat="28.2696262" lon="105.5308902"><ele>536.05</ele><time>2026-06-05T19:56:27.000Z</time></trkpt>
        <trkpt lat="28.2695742" lon="105.5308353"><ele>534.28</ele><time>2026-06-05T19:56:51.000Z</time></trkpt>
        <trkpt lat="28.2695783" lon="105.5307643"><ele>533.81</ele><time>2026-06-05T19:56:59.000Z</time></trkpt>
        <trkpt lat="28.2695185" lon="105.5307728"><ele>533.48</ele><time>2026-06-05T19:57:13.000Z</time></trkpt>
        <trkpt lat="28.2694135" lon="105.5307752"><ele>535.19</ele><time>2026-06-05T19:57:23.000Z</time></trkpt>
        <trkpt lat="28.2692987" lon="105.5307543"><ele>537.39</ele><time>2026-06-05T19:57:31.000Z</time></trkpt>
        <trkpt lat="28.2691956" lon="105.5307403"><ele>539.17</ele><time>2026-06-05T19:57:39.000Z</time></trkpt>
        <trkpt lat="28.2691015" lon="105.5307176"><ele>540.25</ele><time>2026-06-05T19:57:47.000Z</time></trkpt>
        <trkpt lat="28.2689955" lon="105.5307006"><ele>541.45</ele><time>2026-06-05T19:57:55.000Z</time></trkpt>
        <trkpt lat="28.2688986" lon="105.530707"><ele>541.79</ele><time>2026-06-05T19:58:03.000Z</time></trkpt>
        <trkpt lat="28.2688325" lon="105.5307896"><ele>541.11</ele><time>2026-06-05T19:58:11.000Z</time></trkpt>
        <trkpt lat="28.2687946" lon="105.5308405"><ele>539.96</ele><time>2026-06-05T19:58:17.000Z</time></trkpt>
        <trkpt lat="28.2687298" lon="105.5308085"><ele>539.86</ele><time>2026-06-05T19:58:49.000Z</time></trkpt>
        <trkpt lat="28.2686507" lon="105.5307585"><ele>540.33</ele><time>2026-06-05T19:59:01.000Z</time></trkpt>
        <trkpt lat="28.2686141" lon="105.5306604"><ele>542.78</ele><time>2026-06-05T19:59:11.000Z</time></trkpt>
        <trkpt lat="28.2685742" lon="105.5305426"><ele>544.51</ele><time>2026-06-05T19:59:23.000Z</time></trkpt>
        <trkpt lat="28.2685653" lon="105.5304257"><ele>545.47</ele><time>2026-06-05T19:59:35.000Z</time></trkpt>
        <trkpt lat="28.2686108" lon="105.5303326"><ele>544.69</ele><time>2026-06-05T19:59:45.000Z</time></trkpt>
        <trkpt lat="28.2686298" lon="105.5302269"><ele>545.06</ele><time>2026-06-05T19:59:57.000Z</time></trkpt>
        <trkpt lat="28.2686037" lon="105.5301122"><ele>543.49</ele><time>2026-06-05T20:00:05.000Z</time></trkpt>
        <trkpt lat="28.2685827" lon="105.5299942"><ele>544.31</ele><time>2026-06-05T20:00:15.000Z</time></trkpt>
        <trkpt lat="28.2685628" lon="105.5298814"><ele>543.99</ele><time>2026-06-05T20:00:25.000Z</time></trkpt>
        <trkpt lat="28.2685082" lon="105.529793"><ele>544.92</ele><time>2026-06-05T20:00:37.000Z</time></trkpt>
        <trkpt lat="28.2684481" lon="105.5296917"><ele>546.94</ele><time>2026-06-05T20:00:49.000Z</time></trkpt>
        <trkpt lat="28.2683704" lon="105.5296143"><ele>548.17</ele><time>2026-06-05T20:00:59.000Z</time></trkpt>
        <trkpt lat="28.2683331" lon="105.5295705"><ele>548.7</ele><time>2026-06-05T20:01:09.000Z</time></trkpt>
        <trkpt lat="28.268287" lon="105.5294921"><ele>549.71</ele><time>2026-06-05T20:01:21.000Z</time></trkpt>
        <trkpt lat="28.2682937" lon="105.5293868"><ele>552.69</ele><time>2026-06-05T20:01:31.000Z</time></trkpt>
        <trkpt lat="28.2682942" lon="105.5292664"><ele>556.61</ele><time>2026-06-05T20:01:41.000Z</time></trkpt>
        <trkpt lat="28.2682451" lon="105.5291705"><ele>558.83</ele><time>2026-06-05T20:01:51.000Z</time></trkpt>
        <trkpt lat="28.2682937" lon="105.5291192"><ele>561.22</ele><time>2026-06-05T20:02:09.000Z</time></trkpt>
        <trkpt lat="28.2682504" lon="105.5290612"><ele>560.76</ele><time>2026-06-05T20:02:13.000Z</time></trkpt>
        <trkpt lat="28.2681884" lon="105.5289806"><ele>560.34</ele><time>2026-06-05T20:02:21.000Z</time></trkpt>
        <trkpt lat="28.2681404" lon="105.5288722"><ele>558.86</ele><time>2026-06-05T20:02:31.000Z</time></trkpt>
        <trkpt lat="28.2680962" lon="105.5287661"><ele>558.45</ele><time>2026-06-05T20:02:39.000Z</time></trkpt>
        <trkpt lat="28.2680574" lon="105.5286427"><ele>558.14</ele><time>2026-06-05T20:02:49.000Z</time></trkpt>
        <trkpt lat="28.2680426" lon="105.5285278"><ele>558.15</ele><time>2026-06-05T20:02:57.000Z</time></trkpt>
        <trkpt lat="28.268047" lon="105.5284114"><ele>558.66</ele><time>2026-06-05T20:03:05.000Z</time></trkpt>
        <trkpt lat="28.2680059" lon="105.5283259"><ele>559.82</ele><time>2026-06-05T20:03:15.000Z</time></trkpt>
        <trkpt lat="28.2679338" lon="105.5282441"><ele>560.59</ele><time>2026-06-05T20:03:27.000Z</time></trkpt>
        <trkpt lat="28.2678508" lon="105.5281651"><ele>560.51</ele><time>2026-06-05T20:03:39.000Z</time></trkpt>
        <trkpt lat="28.2677747" lon="105.5280963"><ele>560.4</ele><time>2026-06-05T20:03:49.000Z</time></trkpt>
        <trkpt lat="28.2676929" lon="105.5280381"><ele>561.46</ele><time>2026-06-05T20:03:59.000Z</time></trkpt>
        <trkpt lat="28.2676016" lon="105.5279988"><ele>561.64</ele><time>2026-06-05T20:04:09.000Z</time></trkpt>
        <trkpt lat="28.2675332" lon="105.5279269"><ele>562.2</ele><time>2026-06-05T20:04:19.000Z</time></trkpt>
        <trkpt lat="28.2674709" lon="105.5278351"><ele>562</ele><time>2026-06-05T20:04:29.000Z</time></trkpt>
        <trkpt lat="28.2674365" lon="105.5277313"><ele>559.9</ele><time>2026-06-05T20:04:37.000Z</time></trkpt>
        <trkpt lat="28.2674462" lon="105.5276683"><ele>559.25</ele><time>2026-06-05T20:04:41.000Z</time></trkpt>
        <trkpt lat="28.2674723" lon="105.5275597"><ele>557.98</ele><time>2026-06-05T20:04:55.000Z</time></trkpt>
        <trkpt lat="28.267529" lon="105.5274589"><ele>557.19</ele><time>2026-06-05T20:05:03.000Z</time></trkpt>
        <trkpt lat="28.2675476" lon="105.5273508"><ele>557.94</ele><time>2026-06-05T20:05:11.000Z</time></trkpt>
        <trkpt lat="28.2675651" lon="105.5272462"><ele>558</ele><time>2026-06-05T20:05:19.000Z</time></trkpt>
        <trkpt lat="28.2675187" lon="105.5271663"><ele>558.48</ele><time>2026-06-05T20:05:25.000Z</time></trkpt>
        <trkpt lat="28.2674402" lon="105.5271059"><ele>557.94</ele><time>2026-06-05T20:05:33.000Z</time></trkpt>
        <trkpt lat="28.2673173" lon="105.5270557"><ele>558.29</ele><time>2026-06-05T20:05:43.000Z</time></trkpt>
        <trkpt lat="28.2672023" lon="105.5270175"><ele>560.73</ele><time>2026-06-05T20:05:53.000Z</time></trkpt>
        <trkpt lat="28.2671293" lon="105.526944"><ele>563.45</ele><time>2026-06-05T20:06:05.000Z</time></trkpt>
        <trkpt lat="28.2670785" lon="105.5268477"><ele>565.5</ele><time>2026-06-05T20:06:27.000Z</time></trkpt>
        <trkpt lat="28.2670748" lon="105.5267394"><ele>567.48</ele><time>2026-06-05T20:06:39.000Z</time></trkpt>
        <trkpt lat="28.267063" lon="105.5266236"><ele>569.96</ele><time>2026-06-05T20:06:53.000Z</time></trkpt>
        <trkpt lat="28.267077" lon="105.5265168"><ele>572.77</ele><time>2026-06-05T20:07:03.000Z</time></trkpt>
        <trkpt lat="28.2670943" lon="105.5264021"><ele>575.88</ele><time>2026-06-05T20:07:15.000Z</time></trkpt>
        <trkpt lat="28.2670544" lon="105.5263117"><ele>577.29</ele><time>2026-06-05T20:07:29.000Z</time></trkpt>
        <trkpt lat="28.2669935" lon="105.5262225"><ele>581.23</ele><time>2026-06-05T20:07:53.000Z</time></trkpt>
        <trkpt lat="28.266967" lon="105.5261775"><ele>586</ele><time>2026-06-05T20:08:01.000Z</time></trkpt>
        <trkpt lat="28.2669208" lon="105.5261096"><ele>590.2</ele><time>2026-06-05T20:08:39.000Z</time></trkpt>
        <trkpt lat="28.2669044" lon="105.5260154"><ele>595.13</ele><time>2026-06-05T20:08:53.000Z</time></trkpt>
        <trkpt lat="28.2669137" lon="105.5259074"><ele>598.12</ele><time>2026-06-05T20:09:05.000Z</time></trkpt>
        <trkpt lat="28.2669286" lon="105.5257966"><ele>600.66</ele><time>2026-06-05T20:09:17.000Z</time></trkpt>
        <trkpt lat="28.2669244" lon="105.5256834"><ele>604.3</ele><time>2026-06-05T20:09:31.000Z</time></trkpt>
        <trkpt lat="28.2669229" lon="105.5255717"><ele>606.04</ele><time>2026-06-05T20:09:43.000Z</time></trkpt>
        <trkpt lat="28.266885" lon="105.5254674"><ele>606.9</ele><time>2026-06-05T20:09:55.000Z</time></trkpt>
        <trkpt lat="28.2668412" lon="105.5254229"><ele>608.69</ele><time>2026-06-05T20:10:05.000Z</time></trkpt>
        <trkpt lat="28.2668569" lon="105.5253496"><ele>606.94</ele><time>2026-06-05T20:10:29.000Z</time></trkpt>
        <trkpt lat="28.2668821" lon="105.5252448"><ele>606.24</ele><time>2026-06-05T20:10:47.000Z</time></trkpt>
        <trkpt lat="28.2668932" lon="105.5251358"><ele>605.93</ele><time>2026-06-05T20:11:05.000Z</time></trkpt>
        <trkpt lat="28.2668465" lon="105.5250423"><ele>606.41</ele><time>2026-06-05T20:11:23.000Z</time></trkpt>
        <trkpt lat="28.2668229" lon="105.5250179"><ele>608.94</ele><time>2026-06-05T20:11:25.000Z</time></trkpt>
        <trkpt lat="28.2668816" lon="105.5251282"><ele>610.37</ele><time>2026-06-05T20:13:07.000Z</time></trkpt>
        <trkpt lat="28.2669091" lon="105.5252404"><ele>610.45</ele><time>2026-06-05T20:13:35.000Z</time></trkpt>
        <trkpt lat="28.2669477" lon="105.525339"><ele>609.82</ele><time>2026-06-05T20:13:47.000Z</time></trkpt>
        <trkpt lat="28.2669816" lon="105.5254361"><ele>610.8</ele><time>2026-06-05T20:14:39.000Z</time></trkpt>
        <trkpt lat="28.2669615" lon="105.5255437"><ele>612.51</ele><time>2026-06-05T20:15:11.000Z</time></trkpt>
        <trkpt lat="28.2669491" lon="105.5256598"><ele>612.48</ele><time>2026-06-05T20:15:25.000Z</time></trkpt>
        <trkpt lat="28.2669508" lon="105.5257749"><ele>612.32</ele><time>2026-06-05T20:15:37.000Z</time></trkpt>
        <trkpt lat="28.266967" lon="105.5258815"><ele>611.59</ele><time>2026-06-05T20:15:49.000Z</time></trkpt>
        <trkpt lat="28.2669839" lon="105.5259902"><ele>610.02</ele><time>2026-06-05T20:16:01.000Z</time></trkpt>
        <trkpt lat="28.2670043" lon="105.5260936"><ele>609.16</ele><time>2026-06-05T20:16:13.000Z</time></trkpt>
        <trkpt lat="28.2670374" lon="105.5261958"><ele>607.76</ele><time>2026-06-05T20:16:29.000Z</time></trkpt>
        <trkpt lat="28.2670073" lon="105.5262838"><ele>606.01</ele><time>2026-06-05T20:16:51.000Z</time></trkpt>
        <trkpt lat="28.2669268" lon="105.5262482"><ele>605.06</ele><time>2026-06-05T20:17:17.000Z</time></trkpt>
        <trkpt lat="28.2668792" lon="105.5261362"><ele>606.05</ele><time>2026-06-05T20:17:29.000Z</time></trkpt>
        <trkpt lat="28.2668392" lon="105.5260173"><ele>607.64</ele><time>2026-06-05T20:17:41.000Z</time></trkpt>
        <trkpt lat="28.2668156" lon="105.5258986"><ele>609.56</ele><time>2026-06-05T20:17:55.000Z</time></trkpt>
        <trkpt lat="28.2667992" lon="105.5257798"><ele>611.18</ele><time>2026-06-05T20:18:09.000Z</time></trkpt>
        <trkpt lat="28.2668054" lon="105.5256655"><ele>611.86</ele><time>2026-06-05T20:18:19.000Z</time></trkpt>
        <trkpt lat="28.2668003" lon="105.5255556"><ele>612.06</ele><time>2026-06-05T20:18:31.000Z</time></trkpt>
        <trkpt lat="28.2667878" lon="105.5254499"><ele>612.69</ele><time>2026-06-05T20:18:43.000Z</time></trkpt>
        <trkpt lat="28.2667954" lon="105.5253371"><ele>613.6</ele><time>2026-06-05T20:18:57.000Z</time></trkpt>
        <trkpt lat="28.2668323" lon="105.5252323"><ele>615.48</ele><time>2026-06-05T20:19:09.000Z</time></trkpt>
        <trkpt lat="28.2668403" lon="105.5251223"><ele>618.13</ele><time>2026-06-05T20:19:21.000Z</time></trkpt>
        <trkpt lat="28.2668198" lon="105.5250189"><ele>620.75</ele><time>2026-06-05T20:19:33.000Z</time></trkpt>
        <trkpt lat="28.2667829" lon="105.5249212"><ele>622.2</ele><time>2026-06-05T20:19:45.000Z</time></trkpt>
        <trkpt lat="28.2667429" lon="105.5248216"><ele>622.47</ele><time>2026-06-05T20:19:57.000Z</time></trkpt>
        <trkpt lat="28.2666935" lon="105.524729"><ele>623.92</ele><time>2026-06-05T20:20:09.000Z</time></trkpt>
        <trkpt lat="28.2666914" lon="105.5246143"><ele>625.9</ele><time>2026-06-05T20:20:21.000Z</time></trkpt>
        <trkpt lat="28.2667152" lon="105.5245024"><ele>627.67</ele><time>2026-06-05T20:20:33.000Z</time></trkpt>
        <trkpt lat="28.2667419" lon="105.524393"><ele>630.44</ele><time>2026-06-05T20:20:47.000Z</time></trkpt>
        <trkpt lat="28.2667572" lon="105.5242847"><ele>633.96</ele><time>2026-06-05T20:20:57.000Z</time></trkpt>
        <trkpt lat="28.2667493" lon="105.5241769"><ele>635.89</ele><time>2026-06-05T20:21:07.000Z</time></trkpt>
        <trkpt lat="28.2667973" lon="105.5240817"><ele>636.47</ele><time>2026-06-05T20:21:19.000Z</time></trkpt>
        <trkpt lat="28.2668346" lon="105.5239834"><ele>638.95</ele><time>2026-06-05T20:21:31.000Z</time></trkpt>
        <trkpt lat="28.2668573" lon="105.5238809"><ele>641.41</ele><time>2026-06-05T20:22:05.000Z</time></trkpt>
        <trkpt lat="28.2668543" lon="105.5237763"><ele>642.29</ele><time>2026-06-05T20:22:17.000Z</time></trkpt>
        <trkpt lat="28.2668357" lon="105.5236737"><ele>644.15</ele><time>2026-06-05T20:22:33.000Z</time></trkpt>
        <trkpt lat="28.2668334" lon="105.5235701"><ele>646.37</ele><time>2026-06-05T20:22:45.000Z</time></trkpt>
        <trkpt lat="28.2668669" lon="105.5234757"><ele>648.5</ele><time>2026-06-05T20:22:55.000Z</time></trkpt>
        <trkpt lat="28.2668929" lon="105.5233776"><ele>650.55</ele><time>2026-06-05T20:23:03.000Z</time></trkpt>
        <trkpt lat="28.266846" lon="105.5233033"><ele>652.77</ele><time>2026-06-05T20:23:15.000Z</time></trkpt>
        <trkpt lat="28.2668101" lon="105.523202"><ele>655.28</ele><time>2026-06-05T20:23:27.000Z</time></trkpt>
        <trkpt lat="28.2667687" lon="105.5230912"><ele>656.78</ele><time>2026-06-05T20:23:39.000Z</time></trkpt>
        <trkpt lat="28.2667296" lon="105.5229875"><ele>658.02</ele><time>2026-06-05T20:23:51.000Z</time></trkpt>
        <trkpt lat="28.2666918" lon="105.5228879"><ele>659.36</ele><time>2026-06-05T20:24:03.000Z</time></trkpt>
        <trkpt lat="28.2666718" lon="105.522769"><ele>660.85</ele><time>2026-06-05T20:24:17.000Z</time></trkpt>
        <trkpt lat="28.2666359" lon="105.5226646"><ele>661.75</ele><time>2026-06-05T20:24:27.000Z</time></trkpt>
        <trkpt lat="28.2665702" lon="105.5225829"><ele>663.24</ele><time>2026-06-05T20:24:39.000Z</time></trkpt>
        <trkpt lat="28.2664958" lon="105.5225109"><ele>665.63</ele><time>2026-06-05T20:24:51.000Z</time></trkpt>
        <trkpt lat="28.2664035" lon="105.5224914"><ele>668.39</ele><time>2026-06-05T20:25:01.000Z</time></trkpt>
        <trkpt lat="28.2663166" lon="105.5224331"><ele>670.15</ele><time>2026-06-05T20:25:13.000Z</time></trkpt>
        <trkpt lat="28.2662203" lon="105.5223984"><ele>672.87</ele><time>2026-06-05T20:25:27.000Z</time></trkpt>
        <trkpt lat="28.2661355" lon="105.5223529"><ele>673.97</ele><time>2026-06-05T20:25:39.000Z</time></trkpt>
        <trkpt lat="28.2660462" lon="105.5223227"><ele>674.01</ele><time>2026-06-05T20:25:53.000Z</time></trkpt>
        <trkpt lat="28.2659606" lon="105.5222886"><ele>673.36</ele><time>2026-06-05T20:26:03.000Z</time></trkpt>
        <trkpt lat="28.2658676" lon="105.5222754"><ele>674.74</ele><time>2026-06-05T20:26:17.000Z</time></trkpt>
        <trkpt lat="28.2657806" lon="105.5222453"><ele>677.58</ele><time>2026-06-05T20:26:29.000Z</time></trkpt>
        <trkpt lat="28.2656889" lon="105.5222221"><ele>678.39</ele><time>2026-06-05T20:26:39.000Z</time></trkpt>
        <trkpt lat="28.2655931" lon="105.5221955"><ele>680.16</ele><time>2026-06-05T20:26:51.000Z</time></trkpt>
        <trkpt lat="28.2654969" lon="105.522178"><ele>679.87</ele><time>2026-06-05T20:27:07.000Z</time></trkpt>
        <trkpt lat="28.2654097" lon="105.5221349"><ele>679.47</ele><time>2026-06-05T20:27:21.000Z</time></trkpt>
        <trkpt lat="28.2653141" lon="105.5221011"><ele>682.44</ele><time>2026-06-05T20:27:35.000Z</time></trkpt>
        <trkpt lat="28.265221" lon="105.5220809"><ele>685.72</ele><time>2026-06-05T20:27:51.000Z</time></trkpt>
        <trkpt lat="28.2651292" lon="105.5220747"><ele>688.65</ele><time>2026-06-05T20:28:03.000Z</time></trkpt>
        <trkpt lat="28.265055" lon="105.5220199"><ele>689.23</ele><time>2026-06-05T20:28:25.000Z</time></trkpt>
        <trkpt lat="28.2649914" lon="105.5219313"><ele>689.82</ele><time>2026-06-05T20:28:37.000Z</time></trkpt>
        <trkpt lat="28.2648993" lon="105.5218916"><ele>689.98</ele><time>2026-06-05T20:28:55.000Z</time></trkpt>
        <trkpt lat="28.264804" lon="105.5218609"><ele>687.79</ele><time>2026-06-05T20:29:35.000Z</time></trkpt>
        <trkpt lat="28.2647148" lon="105.5218063"><ele>688.6</ele><time>2026-06-05T20:29:51.000Z</time></trkpt>
        <trkpt lat="28.264639" lon="105.5217396"><ele>692.32</ele><time>2026-06-05T20:30:09.000Z</time></trkpt>
        <trkpt lat="28.2645526" lon="105.5216941"><ele>693.91</ele><time>2026-06-05T20:30:35.000Z</time></trkpt>
        <trkpt lat="28.2644735" lon="105.5216355"><ele>694.79</ele><time>2026-06-05T20:30:49.000Z</time></trkpt>
        <trkpt lat="28.2644003" lon="105.521566"><ele>696.37</ele><time>2026-06-05T20:31:07.000Z</time></trkpt>
        <trkpt lat="28.2643381" lon="105.5214774"><ele>700.05</ele><time>2026-06-05T20:32:39.000Z</time></trkpt>
        <trkpt lat="28.264256" lon="105.5215209"><ele>704.96</ele><time>2026-06-05T20:32:55.000Z</time></trkpt>
        <trkpt lat="28.2642072" lon="105.5214469"><ele>709.83</ele><time>2026-06-05T20:33:27.000Z</time></trkpt>
        <trkpt lat="28.2641297" lon="105.5214525"><ele>717.85</ele><time>2026-06-05T20:33:57.000Z</time></trkpt>
        <trkpt lat="28.2640475" lon="105.5214065"><ele>726.03</ele><time>2026-06-05T20:34:31.000Z</time></trkpt>
        <trkpt lat="28.2639579" lon="105.5213789"><ele>734.98</ele><time>2026-06-05T20:34:51.000Z</time></trkpt>
        <trkpt lat="28.263859" lon="105.5213565"><ele>742.07</ele><time>2026-06-05T20:38:17.000Z</time></trkpt>
        <trkpt lat="28.2638117" lon="105.5212648"><ele>750.1</ele><time>2026-06-05T20:38:31.000Z</time></trkpt>
        <trkpt lat="28.2637485" lon="105.5211782"><ele>754.62</ele><time>2026-06-05T20:38:53.000Z</time></trkpt>
        <trkpt lat="28.2637028" lon="105.5210758"><ele>757.47</ele><time>2026-06-05T20:39:05.000Z</time></trkpt>
        <trkpt lat="28.2637319" lon="105.5209615"><ele>757.3</ele><time>2026-06-05T20:39:17.000Z</time></trkpt>
        <trkpt lat="28.2637755" lon="105.5208558"><ele>759.34</ele><time>2026-06-05T20:39:29.000Z</time></trkpt>
        <trkpt lat="28.2638615" lon="105.5208049"><ele>760.54</ele><time>2026-06-05T20:39:45.000Z</time></trkpt>
        <trkpt lat="28.2639725" lon="105.5207877"><ele>765.15</ele><time>2026-06-05T20:40:21.000Z</time></trkpt>
        <trkpt lat="28.2640844" lon="105.5207744"><ele>768.23</ele><time>2026-06-05T20:40:31.000Z</time></trkpt>
        <trkpt lat="28.2641304" lon="105.5206929"><ele>770.34</ele><time>2026-06-05T20:40:51.000Z</time></trkpt>
        <trkpt lat="28.2641746" lon="105.5206347"><ele>769.59</ele><time>2026-06-05T20:41:01.000Z</time></trkpt>
        <trkpt lat="28.2642533" lon="105.5206353"><ele>770.98</ele><time>2026-06-05T20:41:41.000Z</time></trkpt>
        <trkpt lat="28.2641765" lon="105.520694"><ele>775.55</ele><time>2026-06-05T20:43:09.000Z</time></trkpt>
        <trkpt lat="28.2642469" lon="105.5206167"><ele>774.32</ele><time>2026-06-05T20:44:17.000Z</time></trkpt>
        <trkpt lat="28.2643275" lon="105.5205588"><ele>770.02</ele><time>2026-06-05T20:44:31.000Z</time></trkpt>
        <trkpt lat="28.264308" lon="105.5204673"><ele>767.46</ele><time>2026-06-05T20:44:57.000Z</time></trkpt>
        <trkpt lat="28.2641977" lon="105.5204458"><ele>767.13</ele><time>2026-06-05T20:46:03.000Z</time></trkpt>
        <trkpt lat="28.2642344" lon="105.5203447"><ele>774.77</ele><time>2026-06-05T20:46:39.000Z</time></trkpt>
        <trkpt lat="28.2642881" lon="105.5202593"><ele>780.71</ele><time>2026-06-05T20:47:07.000Z</time></trkpt>
        <trkpt lat="28.2642335" lon="105.5202108"><ele>786.46</ele><time>2026-06-05T20:47:55.000Z</time></trkpt>
        <trkpt lat="28.2641477" lon="105.5201688"><ele>795.45</ele><time>2026-06-05T20:48:17.000Z</time></trkpt>
        <trkpt lat="28.2640617" lon="105.5201098"><ele>802.16</ele><time>2026-06-05T20:48:33.000Z</time></trkpt>
        <trkpt lat="28.2640057" lon="105.5200185"><ele>808.69</ele><time>2026-06-05T20:49:19.000Z</time></trkpt>
        <trkpt lat="28.2639506" lon="105.5199218"><ele>814.43</ele><time>2026-06-05T20:49:35.000Z</time></trkpt>
        <trkpt lat="28.2638886" lon="105.5198418"><ele>818.26</ele><time>2026-06-05T20:49:57.000Z</time></trkpt>
        <trkpt lat="28.2638373" lon="105.5197527"><ele>824.49</ele><time>2026-06-05T20:50:15.000Z</time></trkpt>
        <trkpt lat="28.2638089" lon="105.5196508"><ele>829.01</ele><time>2026-06-05T20:50:33.000Z</time></trkpt>
        <trkpt lat="28.2637928" lon="105.5195738"><ele>834.81</ele><time>2026-06-05T20:50:43.000Z</time></trkpt>
        <trkpt lat="28.2638883" lon="105.5196193"><ele>837.81</ele><time>2026-06-05T20:51:57.000Z</time></trkpt>
        <trkpt lat="28.2638716" lon="105.5195067"><ele>841.15</ele><time>2026-06-05T20:55:07.000Z</time></trkpt>
        <trkpt lat="28.2638804" lon="105.519413"><ele>848.06</ele><time>2026-06-05T20:55:21.000Z</time></trkpt>
        <trkpt lat="28.2639619" lon="105.5193956"><ele>853.7</ele><time>2026-06-05T20:55:49.000Z</time></trkpt>
        <trkpt lat="28.2640453" lon="105.5194398"><ele>861.05</ele><time>2026-06-05T20:56:13.000Z</time></trkpt>
        <trkpt lat="28.2640889" lon="105.5193836"><ele>867.94</ele><time>2026-06-05T20:57:03.000Z</time></trkpt>
        <trkpt lat="28.2640859" lon="105.5193393"><ele>875.79</ele><time>2026-06-05T20:57:13.000Z</time></trkpt>
        <trkpt lat="28.264048" lon="105.5192265"><ele>882.5</ele><time>2026-06-05T21:01:09.000Z</time></trkpt>
        <trkpt lat="28.2640402" lon="105.5191206"><ele>886.55</ele><time>2026-06-05T21:01:25.000Z</time></trkpt>
        <trkpt lat="28.2641138" lon="105.5191198"><ele>891.79</ele><time>2026-06-05T21:02:23.000Z</time></trkpt>
        <trkpt lat="28.2641898" lon="105.5191819"><ele>895.89</ele><time>2026-06-05T21:02:41.000Z</time></trkpt>
        <trkpt lat="28.2642823" lon="105.5192219"><ele>898.47</ele><time>2026-06-05T21:03:01.000Z</time></trkpt>
        <trkpt lat="28.2643674" lon="105.5192802"><ele>901.29</ele><time>2026-06-05T21:03:13.000Z</time></trkpt>
        <trkpt lat="28.2644553" lon="105.5193403"><ele>904.46</ele><time>2026-06-05T21:03:25.000Z</time></trkpt>
        <trkpt lat="28.2645178" lon="105.5193571"><ele>908.22</ele><time>2026-06-05T21:03:33.000Z</time></trkpt>
        <trkpt lat="28.2646034" lon="105.5193571"><ele>910.29</ele><time>2026-06-05T21:03:47.000Z</time></trkpt>
        <trkpt lat="28.264699" lon="105.5193588"><ele>912.1</ele><time>2026-06-05T21:04:03.000Z</time></trkpt>
        <trkpt lat="28.2647883" lon="105.5194057"><ele>913.57</ele><time>2026-06-05T21:04:15.000Z</time></trkpt>
        <trkpt lat="28.2648653" lon="105.5193758"><ele>915.1</ele><time>2026-06-05T21:04:41.000Z</time></trkpt>
        <trkpt lat="28.2649007" lon="105.519278"><ele>918.24</ele><time>2026-06-05T21:04:53.000Z</time></trkpt>
        <trkpt lat="28.2649048" lon="105.5191626"><ele>920.56</ele><time>2026-06-05T21:05:05.000Z</time></trkpt>
        <trkpt lat="28.2649031" lon="105.5190407"><ele>922.94</ele><time>2026-06-05T21:05:21.000Z</time></trkpt>
        <trkpt lat="28.2649615" lon="105.5189725"><ele>925.02</ele><time>2026-06-05T21:05:31.000Z</time></trkpt>
        <trkpt lat="28.2650294" lon="105.5189003"><ele>927.01</ele><time>2026-06-05T21:05:41.000Z</time></trkpt>
        <trkpt lat="28.2651176" lon="105.5188825"><ele>928.42</ele><time>2026-06-05T21:05:51.000Z</time></trkpt>
        <trkpt lat="28.2652008" lon="105.5188377"><ele>930.01</ele><time>2026-06-05T21:06:03.000Z</time></trkpt>
        <trkpt lat="28.2652113" lon="105.5187468"><ele>931.68</ele><time>2026-06-05T21:06:15.000Z</time></trkpt>
        <trkpt lat="28.26515" lon="105.5186668"><ele>932.98</ele><time>2026-06-05T21:06:31.000Z</time></trkpt>
        <trkpt lat="28.2651242" lon="105.5185655"><ele>934.8</ele><time>2026-06-05T21:06:47.000Z</time></trkpt>
        <trkpt lat="28.2651622" lon="105.5184765"><ele>935.63</ele><time>2026-06-05T21:06:57.000Z</time></trkpt>
        <trkpt lat="28.2652492" lon="105.5184525"><ele>935.89</ele><time>2026-06-05T21:07:05.000Z</time></trkpt>
        <trkpt lat="28.2653393" lon="105.5184054"><ele>935.88</ele><time>2026-06-05T21:07:15.000Z</time></trkpt>
        <trkpt lat="28.265322" lon="105.5183317"><ele>936.68</ele><time>2026-06-05T21:07:45.000Z</time></trkpt>
        <trkpt lat="28.2652728" lon="105.5182432"><ele>939.29</ele><time>2026-06-05T21:07:55.000Z</time></trkpt>
        <trkpt lat="28.265205" lon="105.5181563"><ele>941.68</ele><time>2026-06-05T21:08:05.000Z</time></trkpt>
        <trkpt lat="28.2651337" lon="105.518068"><ele>943.83</ele><time>2026-06-05T21:08:15.000Z</time></trkpt>
        <trkpt lat="28.2650426" lon="105.517999"><ele>944.67</ele><time>2026-06-05T21:08:25.000Z</time></trkpt>
        <trkpt lat="28.2649692" lon="105.5179261"><ele>947.07</ele><time>2026-06-05T21:08:33.000Z</time></trkpt>
        <trkpt lat="28.2648963" lon="105.5178491"><ele>950.1</ele><time>2026-06-05T21:08:41.000Z</time></trkpt>
        <trkpt lat="28.2648051" lon="105.51778"><ele>952.56</ele><time>2026-06-05T21:08:51.000Z</time></trkpt>
        <trkpt lat="28.2647277" lon="105.5177048"><ele>952.14</ele><time>2026-06-05T21:08:59.000Z</time></trkpt>
        <trkpt lat="28.2646395" lon="105.5176569"><ele>951.8</ele><time>2026-06-05T21:09:09.000Z</time></trkpt>
        <trkpt lat="28.2645829" lon="105.5175767"><ele>950.13</ele><time>2026-06-05T21:09:19.000Z</time></trkpt>
        <trkpt lat="28.2646342" lon="105.5174949"><ele>948.84</ele><time>2026-06-05T21:09:29.000Z</time></trkpt>
        <trkpt lat="28.2647318" lon="105.5174491"><ele>948.74</ele><time>2026-06-05T21:09:39.000Z</time></trkpt>
        <trkpt lat="28.2648495" lon="105.5174687"><ele>950.45</ele><time>2026-06-05T21:09:51.000Z</time></trkpt>
        <trkpt lat="28.264959" lon="105.5174994"><ele>953.42</ele><time>2026-06-05T21:09:59.000Z</time></trkpt>
        <trkpt lat="28.2650647" lon="105.5175075"><ele>955.22</ele><time>2026-06-05T21:10:07.000Z</time></trkpt>
        <trkpt lat="28.2651662" lon="105.5174814"><ele>955.1</ele><time>2026-06-05T21:10:15.000Z</time></trkpt>
        <trkpt lat="28.2652456" lon="105.517413"><ele>955.08</ele><time>2026-06-05T21:10:23.000Z</time></trkpt>
        <trkpt lat="28.2653188" lon="105.5173172"><ele>956.06</ele><time>2026-06-05T21:10:33.000Z</time></trkpt>
        <trkpt lat="28.2653976" lon="105.5172506"><ele>957.28</ele><time>2026-06-05T21:10:41.000Z</time></trkpt>
        <trkpt lat="28.2654769" lon="105.5171874"><ele>958.01</ele><time>2026-06-05T21:10:49.000Z</time></trkpt>
        <trkpt lat="28.2655409" lon="105.5170953"><ele>958.21</ele><time>2026-06-05T21:10:57.000Z</time></trkpt>
        <trkpt lat="28.2655979" lon="105.5170016"><ele>957.48</ele><time>2026-06-05T21:11:05.000Z</time></trkpt>
        <trkpt lat="28.2656055" lon="105.5168933"><ele>956.54</ele><time>2026-06-05T21:11:13.000Z</time></trkpt>
        <trkpt lat="28.2655472" lon="105.5168063"><ele>956.66</ele><time>2026-06-05T21:11:21.000Z</time></trkpt>
        <trkpt lat="28.2654432" lon="105.5167623"><ele>957.99</ele><time>2026-06-05T21:11:31.000Z</time></trkpt>
        <trkpt lat="28.265328" lon="105.5167328"><ele>960.33</ele><time>2026-06-05T21:11:41.000Z</time></trkpt>
        <trkpt lat="28.265218" lon="105.5166869"><ele>962.81</ele><time>2026-06-05T21:11:51.000Z</time></trkpt>
        <trkpt lat="28.2652032" lon="105.5165822"><ele>964.4</ele><time>2026-06-05T21:12:01.000Z</time></trkpt>
        <trkpt lat="28.2652241" lon="105.516453"><ele>965.95</ele><time>2026-06-05T21:12:11.000Z</time></trkpt>
        <trkpt lat="28.2651838" lon="105.5163454"><ele>966.33</ele><time>2026-06-05T21:12:21.000Z</time></trkpt>
        <trkpt lat="28.2650963" lon="105.5162949"><ele>965.4</ele><time>2026-06-05T21:12:29.000Z</time></trkpt>
        <trkpt lat="28.2650026" lon="105.5162464"><ele>965.44</ele><time>2026-06-05T21:12:37.000Z</time></trkpt>
        <trkpt lat="28.2649544" lon="105.5161564"><ele>965.41</ele><time>2026-06-05T21:12:45.000Z</time></trkpt>
        <trkpt lat="28.2648817" lon="105.5160836"><ele>965.12</ele><time>2026-06-05T21:12:53.000Z</time></trkpt>
        <trkpt lat="28.2648104" lon="105.5159992"><ele>966.2</ele><time>2026-06-05T21:13:01.000Z</time></trkpt>
        <trkpt lat="28.2648568" lon="105.5159208"><ele>967.52</ele><time>2026-06-05T21:13:09.000Z</time></trkpt>
        <trkpt lat="28.2649372" lon="105.515847"><ele>967.96</ele><time>2026-06-05T21:13:19.000Z</time></trkpt>
        <trkpt lat="28.2650446" lon="105.5158116"><ele>968.43</ele><time>2026-06-05T21:13:29.000Z</time></trkpt>
        <trkpt lat="28.2651254" lon="105.5157397"><ele>969.57</ele><time>2026-06-05T21:13:41.000Z</time></trkpt>
        <trkpt lat="28.2651517" lon="105.5156409"><ele>970.56</ele><time>2026-06-05T21:13:51.000Z</time></trkpt>
        <trkpt lat="28.2651117" lon="105.5155445"><ele>970.59</ele><time>2026-06-05T21:13:59.000Z</time></trkpt>
        <trkpt lat="28.2650556" lon="105.515452"><ele>971.44</ele><time>2026-06-05T21:14:07.000Z</time></trkpt>
        <trkpt lat="28.2649941" lon="105.5153568"><ele>972.11</ele><time>2026-06-05T21:14:17.000Z</time></trkpt>
        <trkpt lat="28.2649143" lon="105.5152779"><ele>972.79</ele><time>2026-06-05T21:14:27.000Z</time></trkpt>
        <trkpt lat="28.2648841" lon="105.5151822"><ele>973.03</ele><time>2026-06-05T21:14:35.000Z</time></trkpt>
        <trkpt lat="28.2649211" lon="105.515095"><ele>974.76</ele><time>2026-06-05T21:14:43.000Z</time></trkpt>
        <trkpt lat="28.2650148" lon="105.5150824"><ele>975.97</ele><time>2026-06-05T21:14:51.000Z</time></trkpt>
        <trkpt lat="28.2651291" lon="105.5150753"><ele>978.1</ele><time>2026-06-05T21:15:01.000Z</time></trkpt>
        <trkpt lat="28.2652435" lon="105.51506"><ele>979.81</ele><time>2026-06-05T21:15:11.000Z</time></trkpt>
        <trkpt lat="28.2653154" lon="105.514993"><ele>980.36</ele><time>2026-06-05T21:15:23.000Z</time></trkpt>
        <trkpt lat="28.2653055" lon="105.5148972"><ele>981.45</ele><time>2026-06-05T21:15:33.000Z</time></trkpt>
        <trkpt lat="28.2652519" lon="105.5147898"><ele>981.83</ele><time>2026-06-05T21:15:43.000Z</time></trkpt>
        <trkpt lat="28.265177" lon="105.5146906"><ele>983.23</ele><time>2026-06-05T21:15:53.000Z</time></trkpt>
        <trkpt lat="28.2651747" lon="105.5145893"><ele>983.56</ele><time>2026-06-05T21:16:01.000Z</time></trkpt>
        <trkpt lat="28.2652542" lon="105.5145263"><ele>985.22</ele><time>2026-06-05T21:16:11.000Z</time></trkpt>
        <trkpt lat="28.2653457" lon="105.5144743"><ele>987.47</ele><time>2026-06-05T21:16:17.000Z</time></trkpt>
        <trkpt lat="28.2654469" lon="105.5144245"><ele>989.22</ele><time>2026-06-05T21:16:25.000Z</time></trkpt>
        <trkpt lat="28.2654949" lon="105.5143324"><ele>990.12</ele><time>2026-06-05T21:16:37.000Z</time></trkpt>
        <trkpt lat="28.2654624" lon="105.5142432"><ele>990.3</ele><time>2026-06-05T21:16:46.000Z</time></trkpt>
        <trkpt lat="28.2654187" lon="105.5141402"><ele>990.34</ele><time>2026-06-05T21:16:53.000Z</time></trkpt>
        <trkpt lat="28.2653734" lon="105.5140302"><ele>990.13</ele><time>2026-06-05T21:17:01.000Z</time></trkpt>
        <trkpt lat="28.2652987" lon="105.513955"><ele>990.62</ele><time>2026-06-05T21:17:09.000Z</time></trkpt>
        <trkpt lat="28.2652042" lon="105.513929"><ele>991.16</ele><time>2026-06-05T21:17:17.000Z</time></trkpt>
        <trkpt lat="28.2651036" lon="105.5139315"><ele>991.97</ele><time>2026-06-05T21:17:25.000Z</time></trkpt>
        <trkpt lat="28.2650035" lon="105.5139269"><ele>991.8</ele><time>2026-06-05T21:17:33.000Z</time></trkpt>
        <trkpt lat="28.2649051" lon="105.5138984"><ele>991.27</ele><time>2026-06-05T21:17:41.000Z</time></trkpt>
        <trkpt lat="28.264851" lon="105.5138161"><ele>990.65</ele><time>2026-06-05T21:17:49.000Z</time></trkpt>
        <trkpt lat="28.264892" lon="105.5137079"><ele>989.85</ele><time>2026-06-05T21:17:57.000Z</time></trkpt>
        <trkpt lat="28.2649715" lon="105.5136291"><ele>989.11</ele><time>2026-06-05T21:18:05.000Z</time></trkpt>
        <trkpt lat="28.2650038" lon="105.5135299"><ele>989.15</ele><time>2026-06-05T21:18:15.000Z</time></trkpt>
        <trkpt lat="28.2649568" lon="105.513447"><ele>990.8</ele><time>2026-06-05T21:18:25.000Z</time></trkpt>
        <trkpt lat="28.264885" lon="105.5133746"><ele>991.66</ele><time>2026-06-05T21:18:33.000Z</time></trkpt>
        <trkpt lat="28.2648999" lon="105.513294"><ele>992.85</ele><time>2026-06-05T21:18:43.000Z</time></trkpt>
        <trkpt lat="28.264982" lon="105.5132488"><ele>994.96</ele><time>2026-06-05T21:18:53.000Z</time></trkpt>
        <trkpt lat="28.2650978" lon="105.5132334"><ele>996.1</ele><time>2026-06-05T21:19:01.000Z</time></trkpt>
        <trkpt lat="28.2652069" lon="105.5132707"><ele>996.1</ele><time>2026-06-05T21:19:09.000Z</time></trkpt>
        <trkpt lat="28.2653126" lon="105.5132984"><ele>996.16</ele><time>2026-06-05T21:19:17.000Z</time></trkpt>
        <trkpt lat="28.2654201" lon="105.5132838"><ele>995.43</ele><time>2026-06-05T21:19:27.000Z</time></trkpt>
        <trkpt lat="28.2655163" lon="105.5132956"><ele>994.89</ele><time>2026-06-05T21:19:35.000Z</time></trkpt>
        <trkpt lat="28.2656186" lon="105.5133018"><ele>995.54</ele><time>2026-06-05T21:19:45.000Z</time></trkpt>
        <trkpt lat="28.2657143" lon="105.5132714"><ele>996.26</ele><time>2026-06-05T21:19:55.000Z</time></trkpt>
        <trkpt lat="28.2657683" lon="105.5131878"><ele>996.51</ele><time>2026-06-05T21:20:05.000Z</time></trkpt>
        <trkpt lat="28.2657491" lon="105.5130844"><ele>996.57</ele><time>2026-06-05T21:20:15.000Z</time></trkpt>
        <trkpt lat="28.2657369" lon="105.5129739"><ele>996.51</ele><time>2026-06-05T21:20:23.000Z</time></trkpt>
        <trkpt lat="28.2657244" lon="105.5128593"><ele>996.67</ele><time>2026-06-05T21:20:31.000Z</time></trkpt>
        <trkpt lat="28.2656559" lon="105.5127696"><ele>997.37</ele><time>2026-06-05T21:20:41.000Z</time></trkpt>
        <trkpt lat="28.2655619" lon="105.5127217"><ele>999.05</ele><time>2026-06-05T21:20:49.000Z</time></trkpt>
        <trkpt lat="28.2654653" lon="105.5126783"><ele>998.9</ele><time>2026-06-05T21:20:57.000Z</time></trkpt>
        <trkpt lat="28.2653784" lon="105.5126218"><ele>1000.3</ele><time>2026-06-05T21:21:05.000Z</time></trkpt>
        <trkpt lat="28.2652876" lon="105.5125478"><ele>1000.94</ele><time>2026-06-05T21:21:15.000Z</time></trkpt>
        <trkpt lat="28.2652111" lon="105.5124705"><ele>1001.71</ele><time>2026-06-05T21:21:25.000Z</time></trkpt>
        <trkpt lat="28.2651993" lon="105.5123626"><ele>1001.59</ele><time>2026-06-05T21:21:35.000Z</time></trkpt>
        <trkpt lat="28.2652579" lon="105.5122593"><ele>1000.73</ele><time>2026-06-05T21:21:45.000Z</time></trkpt>
        <trkpt lat="28.2653478" lon="105.5121712"><ele>1000.66</ele><time>2026-06-05T21:21:55.000Z</time></trkpt>
        <trkpt lat="28.2654489" lon="105.5120992"><ele>999.97</ele><time>2026-06-05T21:22:05.000Z</time></trkpt>
        <trkpt lat="28.2655194" lon="105.5120167"><ele>999.54</ele><time>2026-06-05T21:22:15.000Z</time></trkpt>
        <trkpt lat="28.2656038" lon="105.51195"><ele>998.43</ele><time>2026-06-05T21:22:23.000Z</time></trkpt>
        <trkpt lat="28.2657014" lon="105.5119204"><ele>997.11</ele><time>2026-06-05T21:22:31.000Z</time></trkpt>
        <trkpt lat="28.2657795" lon="105.5118542"><ele>994.72</ele><time>2026-06-05T21:22:41.000Z</time></trkpt>
        <trkpt lat="28.2657934" lon="105.5117502"><ele>993.69</ele><time>2026-06-05T21:22:53.000Z</time></trkpt>
        <trkpt lat="28.2657406" lon="105.5116634"><ele>993.51</ele><time>2026-06-05T21:23:01.000Z</time></trkpt>
        <trkpt lat="28.2656683" lon="105.5115858"><ele>993.82</ele><time>2026-06-05T21:23:09.000Z</time></trkpt>
        <trkpt lat="28.265581" lon="105.5115031"><ele>994.54</ele><time>2026-06-05T21:23:17.000Z</time></trkpt>
        <trkpt lat="28.2655242" lon="105.5114063"><ele>995.35</ele><time>2026-06-05T21:23:25.000Z</time></trkpt>
        <trkpt lat="28.2654892" lon="105.5112972"><ele>995.85</ele><time>2026-06-05T21:23:33.000Z</time></trkpt>
        <trkpt lat="28.2654585" lon="105.5111811"><ele>995.41</ele><time>2026-06-05T21:23:41.000Z</time></trkpt>
        <trkpt lat="28.2655117" lon="105.5110837"><ele>995.92</ele><time>2026-06-05T21:23:51.000Z</time></trkpt>
        <trkpt lat="28.2656119" lon="105.5110272"><ele>997.3</ele><time>2026-06-05T21:23:59.000Z</time></trkpt>
        <trkpt lat="28.2657272" lon="105.5110138"><ele>997.72</ele><time>2026-06-05T21:24:07.000Z</time></trkpt>
        <trkpt lat="28.265835" lon="105.511016"><ele>999.05</ele><time>2026-06-05T21:24:15.000Z</time></trkpt>
        <trkpt lat="28.265935" lon="105.5109854"><ele>999.36</ele><time>2026-06-05T21:24:23.000Z</time></trkpt>
        <trkpt lat="28.2660226" lon="105.5109274"><ele>998.58</ele><time>2026-06-05T21:24:31.000Z</time></trkpt>
        <trkpt lat="28.2660409" lon="105.5108167"><ele>998.04</ele><time>2026-06-05T21:24:41.000Z</time></trkpt>
        <trkpt lat="28.2659816" lon="105.5107285"><ele>997.37</ele><time>2026-06-05T21:24:49.000Z</time></trkpt>
        <trkpt lat="28.2658884" lon="105.5106534"><ele>996.65</ele><time>2026-06-05T21:24:59.000Z</time></trkpt>
        <trkpt lat="28.2658479" lon="105.5105515"><ele>996.84</ele><time>2026-06-05T21:25:09.000Z</time></trkpt>
        <trkpt lat="28.2658842" lon="105.5104558"><ele>997.04</ele><time>2026-06-05T21:25:19.000Z</time></trkpt>
        <trkpt lat="28.265972" lon="105.5104272"><ele>998.35</ele><time>2026-06-05T21:25:27.000Z</time></trkpt>
        <trkpt lat="28.2660702" lon="105.5103971"><ele>998.05</ele><time>2026-06-05T21:25:35.000Z</time></trkpt>
        <trkpt lat="28.2661697" lon="105.5103712"><ele>998.73</ele><time>2026-06-05T21:25:43.000Z</time></trkpt>
        <trkpt lat="28.2662674" lon="105.5103574"><ele>999.48</ele><time>2026-06-05T21:25:51.000Z</time></trkpt>
        <trkpt lat="28.2662888" lon="105.5102758"><ele>998.89</ele><time>2026-06-05T21:26:03.000Z</time></trkpt>
        <trkpt lat="28.2662233" lon="105.5101976"><ele>999.16</ele><time>2026-06-05T21:26:11.000Z</time></trkpt>
        <trkpt lat="28.2661404" lon="105.5101157"><ele>1000.43</ele><time>2026-06-05T21:26:19.000Z</time></trkpt>
        <trkpt lat="28.2660482" lon="105.5100543"><ele>1000.07</ele><time>2026-06-05T21:26:27.000Z</time></trkpt>
        <trkpt lat="28.2659854" lon="105.509951"><ele>1000.33</ele><time>2026-06-05T21:26:35.000Z</time></trkpt>
        <trkpt lat="28.2659345" lon="105.5098502"><ele>1000.88</ele><time>2026-06-05T21:26:43.000Z</time></trkpt>
        <trkpt lat="28.2659355" lon="105.5097362"><ele>1000.23</ele><time>2026-06-05T21:26:51.000Z</time></trkpt>
        <trkpt lat="28.2659931" lon="105.5096429"><ele>1000.55</ele><time>2026-06-05T21:26:59.000Z</time></trkpt>
        <trkpt lat="28.2660733" lon="105.5095759"><ele>1000.5</ele><time>2026-06-05T21:27:07.000Z</time></trkpt>
        <trkpt lat="28.2661687" lon="105.5095159"><ele>1001.86</ele><time>2026-06-05T21:27:17.000Z</time></trkpt>
        <trkpt lat="28.2662628" lon="105.5094499"><ele>1002.33</ele><time>2026-06-05T21:27:27.000Z</time></trkpt>
        <trkpt lat="28.2663318" lon="105.5093699"><ele>1003.76</ele><time>2026-06-05T21:27:35.000Z</time></trkpt>
        <trkpt lat="28.2663282" lon="105.5092646"><ele>1003.76</ele><time>2026-06-05T21:27:47.000Z</time></trkpt>
        <trkpt lat="28.2662476" lon="105.5091854"><ele>1003.81</ele><time>2026-06-05T21:27:57.000Z</time></trkpt>
        <trkpt lat="28.2661518" lon="105.5091079"><ele>1004.35</ele><time>2026-06-05T21:28:07.000Z</time></trkpt>
        <trkpt lat="28.2660502" lon="105.5090579"><ele>1006.75</ele><time>2026-06-05T21:28:15.000Z</time></trkpt>
        <trkpt lat="28.2659695" lon="105.5089776"><ele>1007.34</ele><time>2026-06-05T21:28:23.000Z</time></trkpt>
        <trkpt lat="28.2658853" lon="105.5089247"><ele>1007.95</ele><time>2026-06-05T21:28:31.000Z</time></trkpt>
        <trkpt lat="28.2658023" lon="105.5088696"><ele>1008.23</ele><time>2026-06-05T21:28:39.000Z</time></trkpt>
        <trkpt lat="28.2657295" lon="105.5087867"><ele>1009.42</ele><time>2026-06-05T21:28:47.000Z</time></trkpt>
        <trkpt lat="28.2656636" lon="105.5086944"><ele>1010.56</ele><time>2026-06-05T21:28:55.000Z</time></trkpt>
        <trkpt lat="28.2655969" lon="105.5086019"><ele>1010.76</ele><time>2026-06-05T21:29:03.000Z</time></trkpt>
        <trkpt lat="28.2655367" lon="105.5085056"><ele>1010.09</ele><time>2026-06-05T21:29:13.000Z</time></trkpt>
        <trkpt lat="28.2655755" lon="105.5084194"><ele>1009.83</ele><time>2026-06-05T21:29:21.000Z</time></trkpt>
        <trkpt lat="28.2656583" lon="105.5083625"><ele>1011.44</ele><time>2026-06-05T21:29:29.000Z</time></trkpt>
        <trkpt lat="28.2657345" lon="105.5082861"><ele>1012.95</ele><time>2026-06-05T21:29:39.000Z</time></trkpt>
        <trkpt lat="28.2658133" lon="105.508214"><ele>1013.64</ele><time>2026-06-05T21:29:49.000Z</time></trkpt>
        <trkpt lat="28.2658632" lon="105.5081107"><ele>1014.53</ele><time>2026-06-05T21:30:03.000Z</time></trkpt>
        <trkpt lat="28.2659393" lon="105.5080308"><ele>1015.41</ele><time>2026-06-05T21:30:15.000Z</time></trkpt>
        <trkpt lat="28.2660351" lon="105.5080305"><ele>1016.12</ele><time>2026-06-05T21:30:25.000Z</time></trkpt>
        <trkpt lat="28.2661205" lon="105.5079934"><ele>1016.33</ele><time>2026-06-05T21:30:37.000Z</time></trkpt>
        <trkpt lat="28.2661908" lon="105.5079211"><ele>1018.31</ele><time>2026-06-05T21:30:55.000Z</time></trkpt>
        <trkpt lat="28.2662694" lon="105.5078507"><ele>1020.3</ele><time>2026-06-05T21:31:09.000Z</time></trkpt>
        <trkpt lat="28.2663144" lon="105.5077542"><ele>1022.33</ele><time>2026-06-05T21:31:23.000Z</time></trkpt>
        <trkpt lat="28.2662498" lon="105.5076868"><ele>1024.26</ele><time>2026-06-05T21:31:55.000Z</time></trkpt>
        <trkpt lat="28.2661515" lon="105.5076554"><ele>1027.29</ele><time>2026-06-05T21:32:19.000Z</time></trkpt>
        <trkpt lat="28.2660998" lon="105.5075692"><ele>1028.64</ele><time>2026-06-05T21:32:35.000Z</time></trkpt>
        <trkpt lat="28.2660542" lon="105.5074603"><ele>1028.55</ele><time>2026-06-05T21:32:45.000Z</time></trkpt>
        <trkpt lat="28.2660631" lon="105.5073536"><ele>1029.15</ele><time>2026-06-05T21:32:51.000Z</time></trkpt>
        <trkpt lat="28.2660945" lon="105.5072497"><ele>1031.19</ele><time>2026-06-05T21:33:01.000Z</time></trkpt>
        <trkpt lat="28.2660296" lon="105.5072048"><ele>1032.48</ele><time>2026-06-05T21:33:11.000Z</time></trkpt>
        <trkpt lat="28.2659307" lon="105.5072138"><ele>1031.15</ele><time>2026-06-05T21:33:21.000Z</time></trkpt>
        <trkpt lat="28.2658472" lon="105.5071584"><ele>1030.59</ele><time>2026-06-05T21:33:31.000Z</time></trkpt>
        <trkpt lat="28.2658432" lon="105.5070657"><ele>1031.03</ele><time>2026-06-05T21:33:41.000Z</time></trkpt>
        <trkpt lat="28.2658394" lon="105.506944"><ele>1033.33</ele><time>2026-06-05T21:33:53.000Z</time></trkpt>
        <trkpt lat="28.265779" lon="105.5068709"><ele>1033.47</ele><time>2026-06-05T21:34:03.000Z</time></trkpt>
        <trkpt lat="28.2656945" lon="105.5068246"><ele>1034.04</ele><time>2026-06-05T21:34:11.000Z</time></trkpt>
        <trkpt lat="28.2656" lon="105.5067838"><ele>1034.87</ele><time>2026-06-05T21:34:19.000Z</time></trkpt>
        <trkpt lat="28.2654917" lon="105.5067598"><ele>1034.42</ele><time>2026-06-05T21:34:29.000Z</time></trkpt>
        <trkpt lat="28.2653786" lon="105.5067238"><ele>1032.39</ele><time>2026-06-05T21:34:37.000Z</time></trkpt>
        <trkpt lat="28.2652699" lon="105.5066831"><ele>1031.35</ele><time>2026-06-05T21:34:47.000Z</time></trkpt>
        <trkpt lat="28.2651727" lon="105.5066679"><ele>1029.4</ele><time>2026-06-05T21:34:59.000Z</time></trkpt>
        <trkpt lat="28.2651822" lon="105.5065842"><ele>1027.57</ele><time>2026-06-05T21:35:41.000Z</time></trkpt>
        <trkpt lat="28.2652455" lon="105.5064996"><ele>1025.25</ele><time>2026-06-05T21:35:49.000Z</time></trkpt>
        <trkpt lat="28.265314" lon="105.5064056"><ele>1024.14</ele><time>2026-06-05T21:36:03.000Z</time></trkpt>
        <trkpt lat="28.265379" lon="105.5063038"><ele>1023.33</ele><time>2026-06-05T21:36:15.000Z</time></trkpt>
        <trkpt lat="28.2654446" lon="105.5062101"><ele>1023.31</ele><time>2026-06-05T21:36:27.000Z</time></trkpt>
        <trkpt lat="28.2655047" lon="105.5061208"><ele>1025.69</ele><time>2026-06-05T21:36:39.000Z</time></trkpt>
        <trkpt lat="28.2655668" lon="105.5060392"><ele>1028.66</ele><time>2026-06-05T21:36:55.000Z</time></trkpt>
        <trkpt lat="28.2655079" lon="105.5060288"><ele>1030.73</ele><time>2026-06-05T21:37:43.000Z</time></trkpt>
        <trkpt lat="28.2654089" lon="105.506014"><ele>1033.37</ele><time>2026-06-05T21:38:11.000Z</time></trkpt>
        <trkpt lat="28.2653041" lon="105.5060106"><ele>1038.09</ele><time>2026-06-05T21:38:31.000Z</time></trkpt>
        <trkpt lat="28.2652127" lon="105.5059685"><ele>1043.22</ele><time>2026-06-05T21:38:45.000Z</time></trkpt>
        <trkpt lat="28.2651402" lon="105.5060521"><ele>1047.24</ele><time>2026-06-05T21:39:55.000Z</time></trkpt>
        <trkpt lat="28.2650526" lon="105.5060783"><ele>1050.79</ele><time>2026-06-05T21:40:07.000Z</time></trkpt>
        <trkpt lat="28.2650191" lon="105.5059991"><ele>1052.87</ele><time>2026-06-05T21:40:19.000Z</time></trkpt>
        <trkpt lat="28.2650329" lon="105.5059"><ele>1052.83</ele><time>2026-06-05T21:40:41.000Z</time></trkpt>
        <trkpt lat="28.2649991" lon="105.5057995"><ele>1057.66</ele><time>2026-06-05T21:40:57.000Z</time></trkpt>
        <trkpt lat="28.2649201" lon="105.5057497"><ele>1061.89</ele><time>2026-06-05T21:41:11.000Z</time></trkpt>
        <trkpt lat="28.2648442" lon="105.5056753"><ele>1066.09</ele><time>2026-06-05T21:41:23.000Z</time></trkpt>
        <trkpt lat="28.2647605" lon="105.50561"><ele>1070.33</ele><time>2026-06-05T21:41:41.000Z</time></trkpt>
        <trkpt lat="28.2646714" lon="105.5055489"><ele>1072.7</ele><time>2026-06-05T21:41:53.000Z</time></trkpt>
        <trkpt lat="28.2645843" lon="105.505504"><ele>1075.54</ele><time>2026-06-05T21:42:05.000Z</time></trkpt>
        <trkpt lat="28.2644849" lon="105.5054836"><ele>1077.76</ele><time>2026-06-05T21:42:17.000Z</time></trkpt>
        <trkpt lat="28.2644862" lon="105.5054113"><ele>1080.63</ele><time>2026-06-05T21:42:43.000Z</time></trkpt>
        <trkpt lat="28.2644469" lon="105.5053293"><ele>1082.1</ele><time>2026-06-05T21:43:07.000Z</time></trkpt>
        <trkpt lat="28.2643922" lon="105.5052209"><ele>1082.67</ele><time>2026-06-05T21:44:29.000Z</time></trkpt>
        <trkpt lat="28.2643777" lon="105.5051149"><ele>1087.9</ele><time>2026-06-05T21:45:41.000Z</time></trkpt>
        <trkpt lat="28.2642935" lon="105.505164"><ele>1094.28</ele><time>2026-06-05T21:46:01.000Z</time></trkpt>
        <trkpt lat="28.2642056" lon="105.5051406"><ele>1099.86</ele><time>2026-06-05T21:46:35.000Z</time></trkpt>
        <trkpt lat="28.2641896" lon="105.5052149"><ele>1103.89</ele><time>2026-06-05T21:47:33.000Z</time></trkpt>
        <trkpt lat="28.2641205" lon="105.5052481"><ele>1109.24</ele><time>2026-06-05T21:47:51.000Z</time></trkpt>
        <trkpt lat="28.2640638" lon="105.5051616"><ele>1114.86</ele><time>2026-06-05T21:49:33.000Z</time></trkpt>
        <trkpt lat="28.263987" lon="105.5050945"><ele>1120.84</ele><time>2026-06-05T21:50:31.000Z</time></trkpt>
        <trkpt lat="28.2639044" lon="105.5050207"><ele>1128.28</ele><time>2026-06-05T21:50:45.000Z</time></trkpt>
        <trkpt lat="28.2638279" lon="105.5049487"><ele>1133.32</ele><time>2026-06-05T21:51:03.000Z</time></trkpt>
        <trkpt lat="28.2637837" lon="105.5048469"><ele>1135.96</ele><time>2026-06-05T21:51:21.000Z</time></trkpt>
        <trkpt lat="28.2637591" lon="105.5047674"><ele>1138.01</ele><time>2026-06-05T21:51:33.000Z</time></trkpt>
        <trkpt lat="28.263703" lon="105.5046811"><ele>1140.45</ele><time>2026-06-05T21:51:49.000Z</time></trkpt>
        <trkpt lat="28.2636331" lon="105.5046069"><ele>1141.61</ele><time>2026-06-05T21:51:59.000Z</time></trkpt>
        <trkpt lat="28.2635508" lon="105.50455"><ele>1142.28</ele><time>2026-06-05T21:52:29.000Z</time></trkpt>
        <trkpt lat="28.263469" lon="105.5044946"><ele>1144</ele><time>2026-06-05T21:53:05.000Z</time></trkpt>
        <trkpt lat="28.263441" lon="105.5044848"><ele>1145.41</ele><time>2026-06-05T21:53:07.000Z</time></trkpt>
        <trkpt lat="28.2635119" lon="105.5044791"><ele>1146.46</ele><time>2026-06-05T21:53:23.000Z</time></trkpt>
        <trkpt lat="28.2635668" lon="105.504401"><ele>1147.58</ele><time>2026-06-05T21:53:57.000Z</time></trkpt>
        <trkpt lat="28.26363" lon="105.5043058"><ele>1149.12</ele><time>2026-06-05T21:54:15.000Z</time></trkpt>
        <trkpt lat="28.2636864" lon="105.5041986"><ele>1151</ele><time>2026-06-05T21:54:29.000Z</time></trkpt>
        <trkpt lat="28.2637287" lon="105.5040876"><ele>1151.8</ele><time>2026-06-05T21:54:41.000Z</time></trkpt>
        <trkpt lat="28.2636791" lon="105.5040175"><ele>1152.96</ele><time>2026-06-05T21:54:55.000Z</time></trkpt>
        <trkpt lat="28.2636037" lon="105.5039483"><ele>1154.48</ele><time>2026-06-05T21:55:09.000Z</time></trkpt>
        <trkpt lat="28.2635258" lon="105.5038805"><ele>1155.57</ele><time>2026-06-05T21:55:21.000Z</time></trkpt>
        <trkpt lat="28.2634559" lon="105.5038054"><ele>1155.43</ele><time>2026-06-05T21:55:33.000Z</time></trkpt>
        <trkpt lat="28.2633836" lon="105.5037344"><ele>1155.23</ele><time>2026-06-05T21:55:45.000Z</time></trkpt>
        <trkpt lat="28.2633149" lon="105.5036617"><ele>1154.89</ele><time>2026-06-05T21:55:57.000Z</time></trkpt>
        <trkpt lat="28.2632486" lon="105.5035784"><ele>1154.25</ele><time>2026-06-05T21:56:09.000Z</time></trkpt>
        <trkpt lat="28.2631726" lon="105.5035141"><ele>1154.07</ele><time>2026-06-05T21:56:37.000Z</time></trkpt>
        <trkpt lat="28.2631077" lon="105.5034421"><ele>1153.98</ele><time>2026-06-05T21:56:49.000Z</time></trkpt>
        <trkpt lat="28.2630609" lon="105.503344"><ele>1154.44</ele><time>2026-06-05T21:57:01.000Z</time></trkpt>
        <trkpt lat="28.2630573" lon="105.5032389"><ele>1154.93</ele><time>2026-06-05T21:57:21.000Z</time></trkpt>
        <trkpt lat="28.2630834" lon="105.5031347"><ele>1155.55</ele><time>2026-06-05T21:57:35.000Z</time></trkpt>
        <trkpt lat="28.263094" lon="105.5030293"><ele>1155.67</ele><time>2026-06-05T21:57:47.000Z</time></trkpt>
        <trkpt lat="28.2630559" lon="105.502932"><ele>1155.81</ele><time>2026-06-05T21:57:59.000Z</time></trkpt>
        <trkpt lat="28.2630665" lon="105.5028224"><ele>1155.51</ele><time>2026-06-05T21:58:09.000Z</time></trkpt>
        <trkpt lat="28.2631219" lon="105.5027418"><ele>1156.46</ele><time>2026-06-05T21:58:21.000Z</time></trkpt>
        <trkpt lat="28.2631154" lon="105.5026507"><ele>1157.81</ele><time>2026-06-05T21:59:11.000Z</time></trkpt>
        <trkpt lat="28.2630431" lon="105.5025808"><ele>1158.64</ele><time>2026-06-05T21:59:47.000Z</time></trkpt>
        <trkpt lat="28.2629485" lon="105.5025385"><ele>1160.48</ele><time>2026-06-05T22:00:05.000Z</time></trkpt>
        <trkpt lat="28.2628545" lon="105.502504"><ele>1161.1</ele><time>2026-06-05T22:00:17.000Z</time></trkpt>
        <trkpt lat="28.2627675" lon="105.5024299"><ele>1163.32</ele><time>2026-06-05T22:00:41.000Z</time></trkpt>
        <trkpt lat="28.2626802" lon="105.5023637"><ele>1166.25</ele><time>2026-06-05T22:00:57.000Z</time></trkpt>
        <trkpt lat="28.2626746" lon="105.5022677"><ele>1166.98</ele><time>2026-06-05T22:01:13.000Z</time></trkpt>
        <trkpt lat="28.2626748" lon="105.5021609"><ele>1169.58</ele><time>2026-06-05T22:01:25.000Z</time></trkpt>
        <trkpt lat="28.2626851" lon="105.5020495"><ele>1171.17</ele><time>2026-06-05T22:01:37.000Z</time></trkpt>
        <trkpt lat="28.2627314" lon="105.50195"><ele>1171.02</ele><time>2026-06-05T22:01:51.000Z</time></trkpt>
        <trkpt lat="28.2627537" lon="105.5018385"><ele>1171.69</ele><time>2026-06-05T22:02:05.000Z</time></trkpt>
        <trkpt lat="28.2626995" lon="105.501768"><ele>1172.15</ele><time>2026-06-05T22:02:17.000Z</time></trkpt>
        <trkpt lat="28.2626093" lon="105.5017586"><ele>1170.74</ele><time>2026-06-05T22:02:27.000Z</time></trkpt>
        <trkpt lat="28.2625025" lon="105.5017797"><ele>1168.13</ele><time>2026-06-05T22:02:39.000Z</time></trkpt>
        <trkpt lat="28.2624105" lon="105.5017532"><ele>1167.99</ele><time>2026-06-05T22:03:01.000Z</time></trkpt>
        <trkpt lat="28.2623157" lon="105.5017202"><ele>1168.39</ele><time>2026-06-05T22:03:15.000Z</time></trkpt>
        <trkpt lat="28.2622821" lon="105.5016913"><ele>1168.82</ele><time>2026-06-05T22:03:23.000Z</time></trkpt>
        <trkpt lat="28.2622238" lon="105.5016346"><ele>1170.15</ele><time>2026-06-05T22:04:15.000Z</time></trkpt>
        <trkpt lat="28.2621757" lon="105.5015448"><ele>1170.65</ele><time>2026-06-05T22:04:29.000Z</time></trkpt>
        <trkpt lat="28.2621494" lon="105.5014378"><ele>1172.8</ele><time>2026-06-05T22:04:41.000Z</time></trkpt>
        <trkpt lat="28.2620907" lon="105.5013517"><ele>1172.95</ele><time>2026-06-05T22:04:55.000Z</time></trkpt>
        <trkpt lat="28.2620293" lon="105.5012642"><ele>1172.99</ele><time>2026-06-05T22:05:05.000Z</time></trkpt>
        <trkpt lat="28.2619735" lon="105.5011678"><ele>1174.01</ele><time>2026-06-05T22:05:17.000Z</time></trkpt>
        <trkpt lat="28.2619622" lon="105.5010606"><ele>1174.86</ele><time>2026-06-05T22:05:27.000Z</time></trkpt>
        <trkpt lat="28.2619027" lon="105.500999"><ele>1175.34</ele><time>2026-06-05T22:05:43.000Z</time></trkpt>
        <trkpt lat="28.2618171" lon="105.5009897"><ele>1175.16</ele><time>2026-06-05T22:06:25.000Z</time></trkpt>
        <trkpt lat="28.2617177" lon="105.5009885"><ele>1172.86</ele><time>2026-06-05T22:06:43.000Z</time></trkpt>
        <trkpt lat="28.2616105" lon="105.5009841"><ele>1171.35</ele><time>2026-06-05T22:06:57.000Z</time></trkpt>
        <trkpt lat="28.261516" lon="105.5009617"><ele>1170.04</ele><time>2026-06-05T22:07:09.000Z</time></trkpt>
        <trkpt lat="28.2614201" lon="105.500924"><ele>1169.46</ele><time>2026-06-05T22:07:23.000Z</time></trkpt>
        <trkpt lat="28.2613401" lon="105.5008671"><ele>1168.97</ele><time>2026-06-05T22:07:33.000Z</time></trkpt>
        <trkpt lat="28.2612627" lon="105.5007881"><ele>1168.75</ele><time>2026-06-05T22:07:45.000Z</time></trkpt>
        <trkpt lat="28.2611723" lon="105.5007302"><ele>1168.95</ele><time>2026-06-05T22:08:01.000Z</time></trkpt>
        <trkpt lat="28.2610717" lon="105.500706"><ele>1168.88</ele><time>2026-06-05T22:08:13.000Z</time></trkpt>
        <trkpt lat="28.2609719" lon="105.500728"><ele>1168.67</ele><time>2026-06-05T22:08:27.000Z</time></trkpt>
        <trkpt lat="28.2608865" lon="105.5007814"><ele>1167.92</ele><time>2026-06-05T22:08:39.000Z</time></trkpt>
        <trkpt lat="28.2608625" lon="105.5007197"><ele>1168.42</ele><time>2026-06-05T22:09:03.000Z</time></trkpt>
        <trkpt lat="28.2608846" lon="105.5006092"><ele>1170.97</ele><time>2026-06-05T22:09:19.000Z</time></trkpt>
        <trkpt lat="28.2608863" lon="105.5004904"><ele>1174.87</ele><time>2026-06-05T22:09:31.000Z</time></trkpt>
        <trkpt lat="28.2608415" lon="105.5003931"><ele>1177.94</ele><time>2026-06-05T22:09:51.000Z</time></trkpt>
        <trkpt lat="28.2607697" lon="105.5003255"><ele>1181.41</ele><time>2026-06-05T22:10:07.000Z</time></trkpt>
        <trkpt lat="28.260712" lon="105.5002377"><ele>1183.87</ele><time>2026-06-05T22:10:19.000Z</time></trkpt>
        <trkpt lat="28.2606451" lon="105.5001603"><ele>1185.3</ele><time>2026-06-05T22:10:33.000Z</time></trkpt>
        <trkpt lat="28.260572" lon="105.5000929"><ele>1186.19</ele><time>2026-06-05T22:10:47.000Z</time></trkpt>
        <trkpt lat="28.2605173" lon="105.5000077"><ele>1188.16</ele><time>2026-06-05T22:10:59.000Z</time></trkpt>
        <trkpt lat="28.2604351" lon="105.4999736"><ele>1189.97</ele><time>2026-06-05T22:11:17.000Z</time></trkpt>
        <trkpt lat="28.2603436" lon="105.4999381"><ele>1189.68</ele><time>2026-06-05T22:11:29.000Z</time></trkpt>
        <trkpt lat="28.2602507" lon="105.4999645"><ele>1189.37</ele><time>2026-06-05T22:11:53.000Z</time></trkpt>
        <trkpt lat="28.2601613" lon="105.4999489"><ele>1188.91</ele><time>2026-06-05T22:12:03.000Z</time></trkpt>
        <trkpt lat="28.2601413" lon="105.4998591"><ele>1188.42</ele><time>2026-06-05T22:12:17.000Z</time></trkpt>
        <trkpt lat="28.2601538" lon="105.4997466"><ele>1188.13</ele><time>2026-06-05T22:12:27.000Z</time></trkpt>
        <trkpt lat="28.2601387" lon="105.4996376"><ele>1187.01</ele><time>2026-06-05T22:12:37.000Z</time></trkpt>
        <trkpt lat="28.2600735" lon="105.4995655"><ele>1186.39</ele><time>2026-06-05T22:12:51.000Z</time></trkpt>
        <trkpt lat="28.2599931" lon="105.4995032"><ele>1185.35</ele><time>2026-06-05T22:13:03.000Z</time></trkpt>
        <trkpt lat="28.2598896" lon="105.4994885"><ele>1185.61</ele><time>2026-06-05T22:13:23.000Z</time></trkpt>
        <trkpt lat="28.2597827" lon="105.4994862"><ele>1187.39</ele><time>2026-06-05T22:13:37.000Z</time></trkpt>
        <trkpt lat="28.2596761" lon="105.4994858"><ele>1188.44</ele><time>2026-06-05T22:13:49.000Z</time></trkpt>
        <trkpt lat="28.2595741" lon="105.4995165"><ele>1188.98</ele><time>2026-06-05T22:14:03.000Z</time></trkpt>
        <trkpt lat="28.2594736" lon="105.4995263"><ele>1189.02</ele><time>2026-06-05T22:14:27.000Z</time></trkpt>
        <trkpt lat="28.259378" lon="105.4995425"><ele>1188.98</ele><time>2026-06-05T22:14:39.000Z</time></trkpt>
        <trkpt lat="28.2592842" lon="105.4995154"><ele>1189.75</ele><time>2026-06-05T22:14:59.000Z</time></trkpt>
        <trkpt lat="28.2592476" lon="105.4994915"><ele>1188.91</ele><time>2026-06-05T22:15:03.000Z</time></trkpt>
        <trkpt lat="28.2591736" lon="105.4995035"><ele>1188.6</ele><time>2026-06-05T22:15:45.000Z</time></trkpt>
        <trkpt lat="28.2590998" lon="105.4994547"><ele>1187.81</ele><time>2026-06-05T22:15:59.000Z</time></trkpt>
        <trkpt lat="28.2591195" lon="105.4993726"><ele>1187.41</ele><time>2026-06-05T22:16:37.000Z</time></trkpt>
        <trkpt lat="28.2591973" lon="105.4993034"><ele>1188.59</ele><time>2026-06-05T22:16:51.000Z</time></trkpt>
        <trkpt lat="28.2593008" lon="105.4992535"><ele>1190.11</ele><time>2026-06-05T22:17:03.000Z</time></trkpt>
        <trkpt lat="28.2593826" lon="105.4991759"><ele>1191.28</ele><time>2026-06-05T22:17:21.000Z</time></trkpt>
        <trkpt lat="28.2594164" lon="105.4990688"><ele>1192.48</ele><time>2026-06-05T22:17:35.000Z</time></trkpt>
        <trkpt lat="28.2594247" lon="105.4989548"><ele>1194.48</ele><time>2026-06-05T22:17:57.000Z</time></trkpt>
        <trkpt lat="28.259399" lon="105.4988383"><ele>1195.6</ele><time>2026-06-05T22:18:11.000Z</time></trkpt>
        <trkpt lat="28.2593641" lon="105.498729"><ele>1195.65</ele><time>2026-06-05T22:18:29.000Z</time></trkpt>
        <trkpt lat="28.2593198" lon="105.4986281"><ele>1195.34</ele><time>2026-06-05T22:18:55.000Z</time></trkpt>
        <trkpt lat="28.2592651" lon="105.4985273"><ele>1194.61</ele><time>2026-06-05T22:19:09.000Z</time></trkpt>
        <trkpt lat="28.2592132" lon="105.4984277"><ele>1195.3</ele><time>2026-06-05T22:19:43.000Z</time></trkpt>
        <trkpt lat="28.2591853" lon="105.4983197"><ele>1195.36</ele><time>2026-06-05T22:19:59.000Z</time></trkpt>
        <trkpt lat="28.2591622" lon="105.4982558"><ele>1194.96</ele><time>2026-06-05T22:20:05.000Z</time></trkpt>
        <trkpt lat="28.2591525" lon="105.4981598"><ele>1194.33</ele><time>2026-06-05T22:20:23.000Z</time></trkpt>
        <trkpt lat="28.259126" lon="105.4980503"><ele>1194.21</ele><time>2026-06-05T22:20:37.000Z</time></trkpt>
        <trkpt lat="28.2590894" lon="105.4979518"><ele>1193.17</ele><time>2026-06-05T22:20:49.000Z</time></trkpt>
        <trkpt lat="28.2590276" lon="105.4978705"><ele>1193.53</ele><time>2026-06-05T22:21:05.000Z</time></trkpt>
        <trkpt lat="28.2589701" lon="105.4977853"><ele>1195.24</ele><time>2026-06-05T22:21:19.000Z</time></trkpt>
        <trkpt lat="28.2589072" lon="105.4977028"><ele>1196.09</ele><time>2026-06-05T22:21:33.000Z</time></trkpt>
        <trkpt lat="28.2588463" lon="105.4976132"><ele>1197.38</ele><time>2026-06-05T22:21:45.000Z</time></trkpt>
        <trkpt lat="28.2587837" lon="105.4975174"><ele>1199.23</ele><time>2026-06-05T22:21:59.000Z</time></trkpt>
        <trkpt lat="28.2587631" lon="105.4974836"><ele>1200.38</ele><time>2026-06-05T22:22:03.000Z</time></trkpt>
        <trkpt lat="28.2587674" lon="105.4973978"><ele>1201.39</ele><time>2026-06-05T22:22:21.000Z</time></trkpt>
        <trkpt lat="28.2587663" lon="105.4972943"><ele>1201.58</ele><time>2026-06-05T22:22:41.000Z</time></trkpt>
        <trkpt lat="28.2587634" lon="105.4971866"><ele>1202.71</ele><time>2026-06-05T22:23:27.000Z</time></trkpt>
        <trkpt lat="28.2587836" lon="105.4970841"><ele>1204.86</ele><time>2026-06-05T22:23:47.000Z</time></trkpt>
        <trkpt lat="28.2588467" lon="105.4971062"><ele>1208.39</ele><time>2026-06-05T22:23:59.000Z</time></trkpt>
        <trkpt lat="28.258939" lon="105.4971143"><ele>1210.45</ele><time>2026-06-05T22:24:23.000Z</time></trkpt>
        <trkpt lat="28.2590355" lon="105.4970631"><ele>1212.77</ele><time>2026-06-05T22:26:49.000Z</time></trkpt>
        <trkpt lat="28.2591062" lon="105.4971412"><ele>1217.29</ele><time>2026-06-05T22:27:01.000Z</time></trkpt>
        <trkpt lat="28.2591631" lon="105.4971789"><ele>1220.29</ele><time>2026-06-05T22:27:17.000Z</time></trkpt>
        <trkpt lat="28.2592078" lon="105.4971149"><ele>1223.49</ele><time>2026-06-05T22:28:09.000Z</time></trkpt>
        <trkpt lat="28.2592937" lon="105.4970904"><ele>1228.9</ele><time>2026-06-05T22:29:11.000Z</time></trkpt>
        <trkpt lat="28.2593368" lon="105.4969834"><ele>1234.35</ele><time>2026-06-05T22:32:45.000Z</time></trkpt>
        <trkpt lat="28.25935" lon="105.4969752"><ele>1243.03</ele><time>2026-06-05T22:32:49.000Z</time></trkpt>
        <trkpt lat="28.2594472" lon="105.496965"><ele>1247.85</ele><time>2026-06-05T22:34:05.000Z</time></trkpt>
        <trkpt lat="28.2595193" lon="105.4969033"><ele>1257.55</ele><time>2026-06-05T22:34:31.000Z</time></trkpt>
        <trkpt lat="28.2595787" lon="105.496825"><ele>1263.31</ele><time>2026-06-05T22:36:15.000Z</time></trkpt>
        <trkpt lat="28.2595534" lon="105.4967208"><ele>1268.21</ele><time>2026-06-05T22:37:27.000Z</time></trkpt>
        <trkpt lat="28.2596426" lon="105.4966945"><ele>1275.25</ele><time>2026-06-05T22:37:57.000Z</time></trkpt>
        <trkpt lat="28.2596226" lon="105.4965924"><ele>1281.29</ele><time>2026-06-05T22:39:07.000Z</time></trkpt>
        <trkpt lat="28.2597123" lon="105.4965748"><ele>1289.81</ele><time>2026-06-05T22:43:05.000Z</time></trkpt>
        <trkpt lat="28.2598115" lon="105.4965464"><ele>1299.07</ele><time>2026-06-05T22:43:25.000Z</time></trkpt>
        <trkpt lat="28.2599039" lon="105.4965574"><ele>1305.43</ele><time>2026-06-05T22:43:37.000Z</time></trkpt>
        <trkpt lat="28.2599799" lon="105.4965103"><ele>1310.5</ele><time>2026-06-05T22:44:03.000Z</time></trkpt>
        <trkpt lat="28.2600604" lon="105.4964599"><ele>1312.79</ele><time>2026-06-05T22:44:13.000Z</time></trkpt>
        <trkpt lat="28.2601419" lon="105.4963938"><ele>1313.46</ele><time>2026-06-05T22:44:23.000Z</time></trkpt>
        <trkpt lat="28.2602358" lon="105.4963552"><ele>1314.89</ele><time>2026-06-05T22:44:33.000Z</time></trkpt>
        <trkpt lat="28.2603368" lon="105.4963456"><ele>1316.29</ele><time>2026-06-05T22:44:43.000Z</time></trkpt>
        <trkpt lat="28.2604374" lon="105.4963589"><ele>1318.51</ele><time>2026-06-05T22:44:53.000Z</time></trkpt>
        <trkpt lat="28.260529" lon="105.4963874"><ele>1319.66</ele><time>2026-06-05T22:45:07.000Z</time></trkpt>
        <trkpt lat="28.2606234" lon="105.4964318"><ele>1321.12</ele><time>2026-06-05T22:45:21.000Z</time></trkpt>
        <trkpt lat="28.2607119" lon="105.4964182"><ele>1321.88</ele><time>2026-06-05T22:45:33.000Z</time></trkpt>
        <trkpt lat="28.2607269" lon="105.4963222"><ele>1321.84</ele><time>2026-06-05T22:45:45.000Z</time></trkpt>
        <trkpt lat="28.2606835" lon="105.4962203"><ele>1320.03</ele><time>2026-06-05T22:45:55.000Z</time></trkpt>
        <trkpt lat="28.2606093" lon="105.4961315"><ele>1317.84</ele><time>2026-06-05T22:46:05.000Z</time></trkpt>
        <trkpt lat="28.2605291" lon="105.4960607"><ele>1316.08</ele><time>2026-06-05T22:46:19.000Z</time></trkpt>
        <trkpt lat="28.2604386" lon="105.4960199"><ele>1315.45</ele><time>2026-06-05T22:46:39.000Z</time></trkpt>
        <trkpt lat="28.2603585" lon="105.4959562"><ele>1313.89</ele><time>2026-06-05T22:46:59.000Z</time></trkpt>
        <trkpt lat="28.2603188" lon="105.4958569"><ele>1312.71</ele><time>2026-06-05T22:47:15.000Z</time></trkpt>
        <trkpt lat="28.2602591" lon="105.4957615"><ele>1312.59</ele><time>2026-06-05T22:47:43.000Z</time></trkpt>
        <trkpt lat="28.2602241" lon="105.4956501"><ele>1309.69</ele><time>2026-06-05T22:47:53.000Z</time></trkpt>
        <trkpt lat="28.2602764" lon="105.4955529"><ele>1308.6</ele><time>2026-06-05T22:48:03.000Z</time></trkpt>
        <trkpt lat="28.2603721" lon="105.495483"><ele>1308.48</ele><time>2026-06-05T22:48:13.000Z</time></trkpt>
        <trkpt lat="28.2604665" lon="105.4954256"><ele>1307.7</ele><time>2026-06-05T22:48:23.000Z</time></trkpt>
        <trkpt lat="28.2605691" lon="105.4954212"><ele>1307.83</ele><time>2026-06-05T22:48:33.000Z</time></trkpt>
        <trkpt lat="28.2606662" lon="105.4954311"><ele>1309.28</ele><time>2026-06-05T22:48:43.000Z</time></trkpt>
        <trkpt lat="28.2607272" lon="105.4953649"><ele>1309.9</ele><time>2026-06-05T22:48:59.000Z</time></trkpt>
        <trkpt lat="28.2607321" lon="105.4953015"><ele>1309.79</ele><time>2026-06-05T22:49:07.000Z</time></trkpt>
        <trkpt lat="28.2607278" lon="105.4952034"><ele>1309.54</ele><time>2026-06-05T22:49:21.000Z</time></trkpt>
        <trkpt lat="28.2607432" lon="105.4950991"><ele>1309.45</ele><time>2026-06-05T22:49:31.000Z</time></trkpt>
        <trkpt lat="28.2608141" lon="105.4950751"><ele>1308.67</ele><time>2026-06-05T22:49:41.000Z</time></trkpt>
        <trkpt lat="28.2609048" lon="105.4950666"><ele>1307.11</ele><time>2026-06-05T22:49:49.000Z</time></trkpt>
        <trkpt lat="28.2610027" lon="105.4950465"><ele>1306.35</ele><time>2026-06-05T22:50:01.000Z</time></trkpt>
        <trkpt lat="28.2611032" lon="105.4950481"><ele>1305.42</ele><time>2026-06-05T22:50:11.000Z</time></trkpt>
        <trkpt lat="28.2611994" lon="105.4950252"><ele>1304.45</ele><time>2026-06-05T22:50:39.000Z</time></trkpt>
        <trkpt lat="28.2612164" lon="105.4949416"><ele>1303.23</ele><time>2026-06-05T22:51:01.000Z</time></trkpt>
        <trkpt lat="28.2611694" lon="105.4948487"><ele>1303.04</ele><time>2026-06-05T22:51:21.000Z</time></trkpt>
        <trkpt lat="28.261098" lon="105.4947505"><ele>1303.53</ele><time>2026-06-05T22:51:39.000Z</time></trkpt>
        <trkpt lat="28.2610174" lon="105.4946638"><ele>1304.38</ele><time>2026-06-05T22:51:55.000Z</time></trkpt>
        <trkpt lat="28.2609635" lon="105.4945661"><ele>1305.5</ele><time>2026-06-05T22:52:11.000Z</time></trkpt>
        <trkpt lat="28.2609843" lon="105.4944736"><ele>1306.55</ele><time>2026-06-05T22:52:35.000Z</time></trkpt>
        <trkpt lat="28.2610526" lon="105.4943997"><ele>1306.13</ele><time>2026-06-05T22:52:45.000Z</time></trkpt>
        <trkpt lat="28.2611343" lon="105.494324"><ele>1305.56</ele><time>2026-06-05T22:52:55.000Z</time></trkpt>
        <trkpt lat="28.2612027" lon="105.4942308"><ele>1305.09</ele><time>2026-06-05T22:53:07.000Z</time></trkpt>
        <trkpt lat="28.2612655" lon="105.4941362"><ele>1304.44</ele><time>2026-06-05T22:53:17.000Z</time></trkpt>
        <trkpt lat="28.2612922" lon="105.4940195"><ele>1303.92</ele><time>2026-06-05T22:53:27.000Z</time></trkpt>
        <trkpt lat="28.2612869" lon="105.4939085"><ele>1303.64</ele><time>2026-06-05T22:53:35.000Z</time></trkpt>
        <trkpt lat="28.2612851" lon="105.4937915"><ele>1303.43</ele><time>2026-06-05T22:53:45.000Z</time></trkpt>
        <trkpt lat="28.2613242" lon="105.4936808"><ele>1303.57</ele><time>2026-06-05T22:53:55.000Z</time></trkpt>
        <trkpt lat="28.2613908" lon="105.4935823"><ele>1304.03</ele><time>2026-06-05T22:54:05.000Z</time></trkpt>
        <trkpt lat="28.2614391" lon="105.4934886"><ele>1303.97</ele><time>2026-06-05T22:54:13.000Z</time></trkpt>
        <trkpt lat="28.2614306" lon="105.4933868"><ele>1303.9</ele><time>2026-06-05T22:54:23.000Z</time></trkpt>
        <trkpt lat="28.261409" lon="105.4932847"><ele>1304.21</ele><time>2026-06-05T22:54:31.000Z</time></trkpt>
        <trkpt lat="28.2613568" lon="105.4931854"><ele>1303.45</ele><time>2026-06-05T22:54:41.000Z</time></trkpt>
        <trkpt lat="28.2613443" lon="105.4930703"><ele>1302.17</ele><time>2026-06-05T22:54:51.000Z</time></trkpt>
        <trkpt lat="28.2613316" lon="105.4929463"><ele>1302.41</ele><time>2026-06-05T22:55:01.000Z</time></trkpt>
        <trkpt lat="28.2613357" lon="105.4928315"><ele>1302.16</ele><time>2026-06-05T22:55:11.000Z</time></trkpt>
        <trkpt lat="28.261394" lon="105.4927358"><ele>1302.14</ele><time>2026-06-05T22:55:21.000Z</time></trkpt>
        <trkpt lat="28.2614438" lon="105.492632"><ele>1302.08</ele><time>2026-06-05T22:55:31.000Z</time></trkpt>
        <trkpt lat="28.2614468" lon="105.4925133"><ele>1301.18</ele><time>2026-06-05T22:55:41.000Z</time></trkpt>
        <trkpt lat="28.261459" lon="105.4924072"><ele>1300.32</ele><time>2026-06-05T22:55:49.000Z</time></trkpt>
        <trkpt lat="28.2615064" lon="105.4923115"><ele>1300.05</ele><time>2026-06-05T22:55:59.000Z</time></trkpt>
        <trkpt lat="28.2615686" lon="105.4922145"><ele>1299.9</ele><time>2026-06-05T22:56:09.000Z</time></trkpt>
        <trkpt lat="28.2616385" lon="105.4921373"><ele>1299.73</ele><time>2026-06-05T22:56:17.000Z</time></trkpt>
        <trkpt lat="28.2616773" lon="105.4920495"><ele>1300.34</ele><time>2026-06-05T22:56:29.000Z</time></trkpt>
        <trkpt lat="28.2617144" lon="105.4919575"><ele>1301.18</ele><time>2026-06-05T22:58:09.000Z</time></trkpt>
        <trkpt lat="28.2617324" lon="105.4918412"><ele>1301.85</ele><time>2026-06-05T22:58:17.000Z</time></trkpt>
        <trkpt lat="28.261761" lon="105.4917411"><ele>1302.06</ele><time>2026-06-05T22:58:25.000Z</time></trkpt>
        <trkpt lat="28.2617778" lon="105.4916347"><ele>1302.31</ele><time>2026-06-05T22:58:35.000Z</time></trkpt>
        <trkpt lat="28.2617956" lon="105.4915164"><ele>1302.68</ele><time>2026-06-05T22:58:45.000Z</time></trkpt>
        <trkpt lat="28.2617745" lon="105.4914125"><ele>1302.51</ele><time>2026-06-05T22:58:57.000Z</time></trkpt>
        <trkpt lat="28.2617153" lon="105.4913292"><ele>1302.14</ele><time>2026-06-05T22:59:13.000Z</time></trkpt>
        <trkpt lat="28.261704" lon="105.4912311"><ele>1303.4</ele><time>2026-06-05T22:59:23.000Z</time></trkpt>
        <trkpt lat="28.261779" lon="105.4911916"><ele>1302.98</ele><time>2026-06-05T22:59:31.000Z</time></trkpt>
        <trkpt lat="28.2618766" lon="105.4911838"><ele>1302.53</ele><time>2026-06-05T22:59:39.000Z</time></trkpt>
        <trkpt lat="28.261973" lon="105.4911318"><ele>1302.08</ele><time>2026-06-05T22:59:49.000Z</time></trkpt>
        <trkpt lat="28.2620744" lon="105.4910812"><ele>1301.37</ele><time>2026-06-05T22:59:59.000Z</time></trkpt>
        <trkpt lat="28.2621462" lon="105.4909958"><ele>1299.74</ele><time>2026-06-05T23:00:09.000Z</time></trkpt>
        <trkpt lat="28.2622415" lon="105.4909445"><ele>1298.36</ele><time>2026-06-05T23:00:19.000Z</time></trkpt>
        <trkpt lat="28.2623365" lon="105.4909194"><ele>1297.21</ele><time>2026-06-05T23:00:27.000Z</time></trkpt>
        <trkpt lat="28.2623919" lon="105.4908459"><ele>1296.91</ele><time>2026-06-05T23:00:37.000Z</time></trkpt>
        <trkpt lat="28.2624733" lon="105.4907868"><ele>1296.55</ele><time>2026-06-05T23:00:47.000Z</time></trkpt>
        <trkpt lat="28.2625634" lon="105.4907884"><ele>1295.44</ele><time>2026-06-05T23:00:55.000Z</time></trkpt>
        <trkpt lat="28.2626338" lon="105.4908"><ele>1295.32</ele><time>2026-06-05T23:01:03.000Z</time></trkpt>
        <trkpt lat="28.2627054" lon="105.4908603"><ele>1293.71</ele><time>2026-06-05T23:01:15.000Z</time></trkpt>
        <trkpt lat="28.2628006" lon="105.4909056"><ele>1293.31</ele><time>2026-06-05T23:01:25.000Z</time></trkpt>
        <trkpt lat="28.2628812" lon="105.4908675"><ele>1293.32</ele><time>2026-06-05T23:01:37.000Z</time></trkpt>
        <trkpt lat="28.2629352" lon="105.4907762"><ele>1292.25</ele><time>2026-06-05T23:01:47.000Z</time></trkpt>
        <trkpt lat="28.263013" lon="105.4907167"><ele>1291.32</ele><time>2026-06-05T23:01:55.000Z</time></trkpt>
        <trkpt lat="28.263101" lon="105.490737"><ele>1291.52</ele><time>2026-06-05T23:02:03.000Z</time></trkpt>
        <trkpt lat="28.2631828" lon="105.4908149"><ele>1292.16</ele><time>2026-06-05T23:02:13.000Z</time></trkpt>
        <trkpt lat="28.2632517" lon="105.490899"><ele>1292.11</ele><time>2026-06-05T23:02:21.000Z</time></trkpt>
        <trkpt lat="28.2633109" lon="105.4909865"><ele>1291.69</ele><time>2026-06-05T23:02:29.000Z</time></trkpt>
        <trkpt lat="28.2633944" lon="105.4910005"><ele>1291.69</ele><time>2026-06-05T23:02:39.000Z</time></trkpt>
        <trkpt lat="28.2634754" lon="105.4909286"><ele>1291.07</ele><time>2026-06-05T23:02:49.000Z</time></trkpt>
        <trkpt lat="28.2635387" lon="105.490836"><ele>1289.77</ele><time>2026-06-05T23:02:57.000Z</time></trkpt>
        <trkpt lat="28.2635608" lon="105.4907169"><ele>1289.61</ele><time>2026-06-05T23:03:07.000Z</time></trkpt>
        <trkpt lat="28.2635735" lon="105.4906025"><ele>1289.11</ele><time>2026-06-05T23:03:15.000Z</time></trkpt>
        <trkpt lat="28.2636346" lon="105.4905305"><ele>1287.76</ele><time>2026-06-05T23:03:23.000Z</time></trkpt>
        <trkpt lat="28.2637188" lon="105.4904599"><ele>1286.6</ele><time>2026-06-05T23:03:33.000Z</time></trkpt>
        <trkpt lat="28.2637906" lon="105.4903835"><ele>1285.56</ele><time>2026-06-05T23:03:41.000Z</time></trkpt>
        <trkpt lat="28.2638774" lon="105.4903578"><ele>1284.3</ele><time>2026-06-05T23:03:49.000Z</time></trkpt>
        <trkpt lat="28.2639665" lon="105.4903929"><ele>1282.99</ele><time>2026-06-05T23:03:57.000Z</time></trkpt>
        <trkpt lat="28.2640416" lon="105.4904844"><ele>1283.71</ele><time>2026-06-05T23:04:07.000Z</time></trkpt>
        <trkpt lat="28.2640388" lon="105.4906042"><ele>1284.57</ele><time>2026-06-05T23:04:15.000Z</time></trkpt>
        <trkpt lat="28.2640273" lon="105.4907304"><ele>1285.74</ele><time>2026-06-05T23:04:23.000Z</time></trkpt>
        <trkpt lat="28.2640503" lon="105.4908464"><ele>1287.53</ele><time>2026-06-05T23:04:33.000Z</time></trkpt>
        <trkpt lat="28.2641297" lon="105.4909085"><ele>1287.62</ele><time>2026-06-05T23:04:45.000Z</time></trkpt>
        <trkpt lat="28.2642262" lon="105.4909328"><ele>1285.67</ele><time>2026-06-05T23:04:55.000Z</time></trkpt>
        <trkpt lat="28.2642506" lon="105.4910209"><ele>1282.52</ele><time>2026-06-05T23:05:05.000Z</time></trkpt>
        <trkpt lat="28.2642074" lon="105.4911194"><ele>1281.15</ele><time>2026-06-05T23:05:15.000Z</time></trkpt>
        <trkpt lat="28.2641227" lon="105.4911778"><ele>1279.9</ele><time>2026-06-05T23:05:23.000Z</time></trkpt>
        <trkpt lat="28.2640302" lon="105.4912345"><ele>1278.11</ele><time>2026-06-05T23:05:31.000Z</time></trkpt>
        <trkpt lat="28.2639811" lon="105.4913225"><ele>1277.08</ele><time>2026-06-05T23:05:39.000Z</time></trkpt>
        <trkpt lat="28.2639864" lon="105.4914268"><ele>1276.02</ele><time>2026-06-05T23:05:47.000Z</time></trkpt>
        <trkpt lat="28.2639726" lon="105.4915304"><ele>1275.66</ele><time>2026-06-05T23:05:55.000Z</time></trkpt>
        <trkpt lat="28.2639894" lon="105.4916452"><ele>1275.38</ele><time>2026-06-05T23:06:05.000Z</time></trkpt>
        <trkpt lat="28.2640792" lon="105.4916921"><ele>1274.81</ele><time>2026-06-05T23:06:17.000Z</time></trkpt>
        <trkpt lat="28.2641868" lon="105.4916725"><ele>1273.37</ele><time>2026-06-05T23:06:25.000Z</time></trkpt>
        <trkpt lat="28.26429" lon="105.4916233"><ele>1272.11</ele><time>2026-06-05T23:06:33.000Z</time></trkpt>
        <trkpt lat="28.2643925" lon="105.4915872"><ele>1270.06</ele><time>2026-06-05T23:06:41.000Z</time></trkpt>
        <trkpt lat="28.2644996" lon="105.4915475"><ele>1268.27</ele><time>2026-06-05T23:06:51.000Z</time></trkpt>
        <trkpt lat="28.2646011" lon="105.4915274"><ele>1268.02</ele><time>2026-06-05T23:07:03.000Z</time></trkpt>
        <trkpt lat="28.264622" lon="105.4916323"><ele>1270.23</ele><time>2026-06-05T23:10:13.000Z</time></trkpt>
        <trkpt lat="28.2646085" lon="105.4917448"><ele>1272.11</ele><time>2026-06-05T23:10:27.000Z</time></trkpt>
        <trkpt lat="28.2645921" lon="105.4918585"><ele>1273.47</ele><time>2026-06-05T23:10:45.000Z</time></trkpt>
        <trkpt lat="28.2645421" lon="105.4919473"><ele>1274.14</ele><time>2026-06-05T23:10:55.000Z</time></trkpt>
        <trkpt lat="28.2644656" lon="105.4920297"><ele>1275.24</ele><time>2026-06-05T23:11:07.000Z</time></trkpt>
        <trkpt lat="28.2645" lon="105.4921055"><ele>1276.74</ele><time>2026-06-05T23:11:29.000Z</time></trkpt>
        <trkpt lat="28.2645763" lon="105.4921787"><ele>1276.07</ele><time>2026-06-05T23:11:41.000Z</time></trkpt>
        <trkpt lat="28.2646146" lon="105.4922777"><ele>1275.76</ele><time>2026-06-05T23:11:51.000Z</time></trkpt>
        <trkpt lat="28.2646451" lon="105.4923802"><ele>1275.48</ele><time>2026-06-05T23:12:21.000Z</time></trkpt>
        <trkpt lat="28.2647079" lon="105.4924727"><ele>1274.18</ele><time>2026-06-05T23:13:13.000Z</time></trkpt>
        <trkpt lat="28.2647556" lon="105.4925444"><ele>1272.79</ele><time>2026-06-05T23:13:25.000Z</time></trkpt>
        <trkpt lat="28.264813" lon="105.4926254"><ele>1271.07</ele><time>2026-06-05T23:13:41.000Z</time></trkpt>
        <trkpt lat="28.2648945" lon="105.4926842"><ele>1268.89</ele><time>2026-06-05T23:13:53.000Z</time></trkpt>
        <trkpt lat="28.2649453" lon="105.4927819"><ele>1265.79</ele><time>2026-06-05T23:14:05.000Z</time></trkpt>
        <trkpt lat="28.2649304" lon="105.4928932"><ele>1262.68</ele><time>2026-06-05T23:14:13.000Z</time></trkpt>
        <trkpt lat="28.2649423" lon="105.4929986"><ele>1260.79</ele><time>2026-06-05T23:14:21.000Z</time></trkpt>
        <trkpt lat="28.264999" lon="105.4930913"><ele>1260.17</ele><time>2026-06-05T23:14:31.000Z</time></trkpt>
        <trkpt lat="28.2650615" lon="105.4931914"><ele>1258.9</ele><time>2026-06-05T23:14:43.000Z</time></trkpt>
        <trkpt lat="28.2650666" lon="105.4932992"><ele>1258.09</ele><time>2026-06-05T23:14:51.000Z</time></trkpt>
        <trkpt lat="28.2650545" lon="105.4934104"><ele>1257.56</ele><time>2026-06-05T23:14:59.000Z</time></trkpt>
        <trkpt lat="28.2650512" lon="105.4935223"><ele>1258.59</ele><time>2026-06-05T23:15:09.000Z</time></trkpt>
        <trkpt lat="28.2650531" lon="105.4936412"><ele>1258.21</ele><time>2026-06-05T23:15:21.000Z</time></trkpt>
        <trkpt lat="28.2650709" lon="105.4937503"><ele>1257.16</ele><time>2026-06-05T23:15:35.000Z</time></trkpt>
        <trkpt lat="28.2650648" lon="105.4938632"><ele>1256.27</ele><time>2026-06-05T23:15:45.000Z</time></trkpt>
        <trkpt lat="28.2650726" lon="105.4939772"><ele>1255.13</ele><time>2026-06-05T23:15:57.000Z</time></trkpt>
        <trkpt lat="28.2651006" lon="105.4940856"><ele>1254.17</ele><time>2026-06-05T23:16:09.000Z</time></trkpt>
        <trkpt lat="28.2651369" lon="105.4941883"><ele>1252.65</ele><time>2026-06-05T23:16:21.000Z</time></trkpt>
        <trkpt lat="28.2651751" lon="105.4942933"><ele>1250.4</ele><time>2026-06-05T23:16:41.000Z</time></trkpt>
        <trkpt lat="28.2651708" lon="105.4944045"><ele>1250</ele><time>2026-06-05T23:16:51.000Z</time></trkpt>
        <trkpt lat="28.2651456" lon="105.4945192"><ele>1250.19</ele><time>2026-06-05T23:17:01.000Z</time></trkpt>
        <trkpt lat="28.2650936" lon="105.4946269"><ele>1250.15</ele><time>2026-06-05T23:17:11.000Z</time></trkpt>
        <trkpt lat="28.2650431" lon="105.4947371"><ele>1250.13</ele><time>2026-06-05T23:17:21.000Z</time></trkpt>
        <trkpt lat="28.2650059" lon="105.494838"><ele>1250.09</ele><time>2026-06-05T23:17:29.000Z</time></trkpt>
        <trkpt lat="28.2649552" lon="105.4949294"><ele>1248.98</ele><time>2026-06-05T23:17:37.000Z</time></trkpt>
        <trkpt lat="28.2649025" lon="105.4950169"><ele>1247.9</ele><time>2026-06-05T23:17:45.000Z</time></trkpt>
        <trkpt lat="28.2648695" lon="105.4951285"><ele>1246.62</ele><time>2026-06-05T23:17:55.000Z</time></trkpt>
        <trkpt lat="28.2648304" lon="105.4952328"><ele>1245.05</ele><time>2026-06-05T23:18:03.000Z</time></trkpt>
        <trkpt lat="28.2648055" lon="105.4953465"><ele>1243.05</ele><time>2026-06-05T23:18:13.000Z</time></trkpt>
        <trkpt lat="28.264857" lon="105.4954394"><ele>1240.84</ele><time>2026-06-05T23:18:23.000Z</time></trkpt>
        <trkpt lat="28.2649513" lon="105.4954706"><ele>1238.55</ele><time>2026-06-05T23:18:31.000Z</time></trkpt>
        <trkpt lat="28.2650577" lon="105.4954509"><ele>1236.57</ele><time>2026-06-05T23:18:39.000Z</time></trkpt>
        <trkpt lat="28.26516" lon="105.495408"><ele>1235.92</ele><time>2026-06-05T23:18:47.000Z</time></trkpt>
        <trkpt lat="28.2652561" lon="105.4953373"><ele>1236.24</ele><time>2026-06-05T23:18:57.000Z</time></trkpt>
        <trkpt lat="28.2653541" lon="105.4953437"><ele>1236.8</ele><time>2026-06-05T23:19:07.000Z</time></trkpt>
        <trkpt lat="28.2654059" lon="105.4954267"><ele>1237.09</ele><time>2026-06-05T23:19:15.000Z</time></trkpt>
        <trkpt lat="28.2654011" lon="105.4955384"><ele>1237.16</ele><time>2026-06-05T23:19:23.000Z</time></trkpt>
        <trkpt lat="28.2653304" lon="105.4956188"><ele>1237.07</ele><time>2026-06-05T23:19:31.000Z</time></trkpt>
        <trkpt lat="28.2652543" lon="105.4957126"><ele>1236.68</ele><time>2026-06-05T23:19:41.000Z</time></trkpt>
        <trkpt lat="28.2651848" lon="105.4958145"><ele>1236.77</ele><time>2026-06-05T23:19:51.000Z</time></trkpt>
        <trkpt lat="28.2651328" lon="105.4959285"><ele>1236.43</ele><time>2026-06-05T23:20:01.000Z</time></trkpt>
        <trkpt lat="28.2651159" lon="105.4960536"><ele>1236.16</ele><time>2026-06-05T23:20:11.000Z</time></trkpt>
        <trkpt lat="28.2651737" lon="105.4961422"><ele>1235.78</ele><time>2026-06-05T23:20:23.000Z</time></trkpt>
        <trkpt lat="28.2652512" lon="105.4962143"><ele>1235.04</ele><time>2026-06-05T23:20:35.000Z</time></trkpt>
        <trkpt lat="28.2653393" lon="105.4962833"><ele>1233.58</ele><time>2026-06-05T23:20:45.000Z</time></trkpt>
        <trkpt lat="28.2654037" lon="105.4963733"><ele>1232.7</ele><time>2026-06-05T23:21:09.000Z</time></trkpt>
        <trkpt lat="28.2653373" lon="105.4962971"><ele>1232.29</ele><time>2026-06-05T23:29:28.000Z</time></trkpt>
        <trkpt lat="28.2654135" lon="105.4963519"><ele>1234.04</ele><time>2026-06-05T23:40:12.000Z</time></trkpt>
        <trkpt lat="28.2654427" lon="105.4963735"><ele>1233.9</ele><time>2026-06-05T23:40:18.000Z</time></trkpt>
        <trkpt lat="28.2655102" lon="105.4964457"><ele>1234.35</ele><time>2026-06-05T23:40:42.000Z</time></trkpt>
        <trkpt lat="28.2655895" lon="105.4965297"><ele>1234.8</ele><time>2026-06-05T23:40:52.000Z</time></trkpt>
        <trkpt lat="28.2656761" lon="105.4966073"><ele>1234.48</ele><time>2026-06-05T23:41:02.000Z</time></trkpt>
        <trkpt lat="28.2657712" lon="105.496679"><ele>1235.07</ele><time>2026-06-05T23:41:12.000Z</time></trkpt>
        <trkpt lat="28.2658512" lon="105.4967458"><ele>1235.49</ele><time>2026-06-05T23:41:20.000Z</time></trkpt>
        <trkpt lat="28.2658974" lon="105.4967944"><ele>1235.82</ele><time>2026-06-05T23:41:28.000Z</time></trkpt>
        <trkpt lat="28.2659573" lon="105.4968548"><ele>1236.08</ele><time>2026-06-05T23:41:40.000Z</time></trkpt>
        <trkpt lat="28.2660431" lon="105.49691"><ele>1235.81</ele><time>2026-06-05T23:41:50.000Z</time></trkpt>
        <trkpt lat="28.266131" lon="105.4969544"><ele>1234.91</ele><time>2026-06-05T23:41:58.000Z</time></trkpt>
        <trkpt lat="28.2662168" lon="105.4970061"><ele>1233.87</ele><time>2026-06-05T23:42:10.000Z</time></trkpt>
        <trkpt lat="28.2663141" lon="105.4970195"><ele>1231.49</ele><time>2026-06-05T23:42:24.000Z</time></trkpt>
        <trkpt lat="28.2664185" lon="105.4970193"><ele>1228.39</ele><time>2026-06-05T23:42:40.000Z</time></trkpt>
        <trkpt lat="28.2665231" lon="105.4970299"><ele>1223.51</ele><time>2026-06-05T23:42:52.000Z</time></trkpt>
        <trkpt lat="28.2666296" lon="105.4970455"><ele>1219.02</ele><time>2026-06-05T23:43:02.000Z</time></trkpt>
        <trkpt lat="28.2667306" lon="105.4970522"><ele>1215.56</ele><time>2026-06-05T23:43:12.000Z</time></trkpt>
        <trkpt lat="28.2668275" lon="105.4970692"><ele>1213.56</ele><time>2026-06-05T23:43:22.000Z</time></trkpt>
        <trkpt lat="28.2668554" lon="105.4970717"><ele>1210.83</ele><time>2026-06-05T23:43:24.000Z</time></trkpt>
        <trkpt lat="28.2669336" lon="105.4970582"><ele>1209.57</ele><time>2026-06-05T23:43:44.000Z</time></trkpt>
        <trkpt lat="28.2670244" lon="105.4970849"><ele>1208.05</ele><time>2026-06-05T23:43:58.000Z</time></trkpt>
        <trkpt lat="28.2671159" lon="105.4971177"><ele>1205.57</ele><time>2026-06-05T23:44:08.000Z</time></trkpt>
        <trkpt lat="28.2672208" lon="105.4971443"><ele>1203.19</ele><time>2026-06-05T23:44:20.000Z</time></trkpt>
        <trkpt lat="28.2673234" lon="105.497158"><ele>1200.73</ele><time>2026-06-05T23:44:32.000Z</time></trkpt>
        <trkpt lat="28.2674124" lon="105.497201"><ele>1197.73</ele><time>2026-06-05T23:44:40.000Z</time></trkpt>
        <trkpt lat="28.2675099" lon="105.4972402"><ele>1194.89</ele><time>2026-06-05T23:44:50.000Z</time></trkpt>
        <trkpt lat="28.2676139" lon="105.4972568"><ele>1191.76</ele><time>2026-06-05T23:45:00.000Z</time></trkpt>
        <trkpt lat="28.2677067" lon="105.4972361"><ele>1189.01</ele><time>2026-06-05T23:45:10.000Z</time></trkpt>
        <trkpt lat="28.2678126" lon="105.4972144"><ele>1187.48</ele><time>2026-06-05T23:45:20.000Z</time></trkpt>
        <trkpt lat="28.2679077" lon="105.4972315"><ele>1186.61</ele><time>2026-06-05T23:45:28.000Z</time></trkpt>
        <trkpt lat="28.2679934" lon="105.4972747"><ele>1185</ele><time>2026-06-05T23:45:36.000Z</time></trkpt>
        <trkpt lat="28.2680728" lon="105.4973314"><ele>1183.2</ele><time>2026-06-05T23:45:44.000Z</time></trkpt>
        <trkpt lat="28.2681178" lon="105.4974259"><ele>1180.18</ele><time>2026-06-05T23:46:02.000Z</time></trkpt>
        <trkpt lat="28.2681862" lon="105.4974089"><ele>1174.18</ele><time>2026-06-05T23:46:14.000Z</time></trkpt>
        <trkpt lat="28.2682271" lon="105.4973094"><ele>1170.57</ele><time>2026-06-05T23:46:26.000Z</time></trkpt>
        <trkpt lat="28.2682964" lon="105.4972148"><ele>1167.45</ele><time>2026-06-05T23:46:44.000Z</time></trkpt>
        <trkpt lat="28.2683816" lon="105.4971592"><ele>1164.43</ele><time>2026-06-05T23:47:08.000Z</time></trkpt>
        <trkpt lat="28.2684744" lon="105.497169"><ele>1159.92</ele><time>2026-06-05T23:47:44.000Z</time></trkpt>
        <trkpt lat="28.2685047" lon="105.4971779"><ele>1153.69</ele><time>2026-06-05T23:47:48.000Z</time></trkpt>
        <trkpt lat="28.2685702" lon="105.4971551"><ele>1149.76</ele><time>2026-06-05T23:48:22.000Z</time></trkpt>
        <trkpt lat="28.2686477" lon="105.4971899"><ele>1144.25</ele><time>2026-06-05T23:48:52.000Z</time></trkpt>
        <trkpt lat="28.2686905" lon="105.4971279"><ele>1137.94</ele><time>2026-06-05T23:49:34.000Z</time></trkpt>
        <trkpt lat="28.268766" lon="105.4970998"><ele>1129.87</ele><time>2026-06-05T23:50:04.000Z</time></trkpt>
        <trkpt lat="28.2688578" lon="105.4970819"><ele>1122.47</ele><time>2026-06-05T23:50:42.000Z</time></trkpt>
        <trkpt lat="28.268957" lon="105.4970909"><ele>1115.48</ele><time>2026-06-05T23:51:54.000Z</time></trkpt>
        <trkpt lat="28.2690326" lon="105.4970343"><ele>1104.19</ele><time>2026-06-05T23:52:28.000Z</time></trkpt>
        <trkpt lat="28.2691138" lon="105.4969724"><ele>1096.28</ele><time>2026-06-05T23:53:12.000Z</time></trkpt>
        <trkpt lat="28.2692054" lon="105.4969589"><ele>1086.74</ele><time>2026-06-05T23:53:36.000Z</time></trkpt>
        <trkpt lat="28.2691989" lon="105.4968872"><ele>1079.66</ele><time>2026-06-05T23:53:50.000Z</time></trkpt>
        <trkpt lat="28.2691847" lon="105.496866"><ele>1073.79</ele><time>2026-06-05T23:53:52.000Z</time></trkpt>
        <trkpt lat="28.2692426" lon="105.4968329"><ele>1070.42</ele><time>2026-06-05T23:54:18.000Z</time></trkpt>
        <trkpt lat="28.2692923" lon="105.4967489"><ele>1065.71</ele><time>2026-06-05T23:54:54.000Z</time></trkpt>
        <trkpt lat="28.2693081" lon="105.4967194"><ele>1059.79</ele><time>2026-06-05T23:54:56.000Z</time></trkpt>
        <trkpt lat="28.2693048" lon="105.4966355"><ele>1056.92</ele><time>2026-06-05T23:55:36.000Z</time></trkpt>
        <trkpt lat="28.2692418" lon="105.496555"><ele>1050.93</ele><time>2026-06-05T23:56:00.000Z</time></trkpt>
        <trkpt lat="28.2692195" lon="105.4965288"><ele>1046.44</ele><time>2026-06-05T23:56:02.000Z</time></trkpt>
        <trkpt lat="28.2692318" lon="105.4964415"><ele>1043.59</ele><time>2026-06-05T23:56:28.000Z</time></trkpt>
        <trkpt lat="28.2692584" lon="105.4963557"><ele>1040.3</ele><time>2026-06-05T23:56:42.000Z</time></trkpt>
        <trkpt lat="28.2693564" lon="105.4963016"><ele>1038.75</ele><time>2026-06-05T23:57:46.000Z</time></trkpt>
        <trkpt lat="28.269407" lon="105.4962172"><ele>1035.77</ele><time>2026-06-05T23:58:04.000Z</time></trkpt>
        <trkpt lat="28.2694357" lon="105.4961071"><ele>1032.39</ele><time>2026-06-05T23:58:22.000Z</time></trkpt>
        <trkpt lat="28.2694133" lon="105.4959969"><ele>1028.34</ele><time>2026-06-05T23:58:34.000Z</time></trkpt>
        <trkpt lat="28.2694114" lon="105.4958916"><ele>1025.84</ele><time>2026-06-05T23:58:42.000Z</time></trkpt>
        <trkpt lat="28.2693787" lon="105.4957942"><ele>1025.36</ele><time>2026-06-05T23:58:54.000Z</time></trkpt>
        <trkpt lat="28.2693533" lon="105.4956881"><ele>1023.92</ele><time>2026-06-05T23:59:04.000Z</time></trkpt>
        <trkpt lat="28.2693201" lon="105.4955771"><ele>1021.78</ele><time>2026-06-05T23:59:14.000Z</time></trkpt>
        <trkpt lat="28.2693058" lon="105.4955214"><ele>1020.92</ele><time>2026-06-05T23:59:20.000Z</time></trkpt>
        <trkpt lat="28.2692661" lon="105.4954429"><ele>1020.38</ele><time>2026-06-05T23:59:30.000Z</time></trkpt>
        <trkpt lat="28.2692436" lon="105.4953474"><ele>1019.99</ele><time>2026-06-05T23:59:44.000Z</time></trkpt>
        <trkpt lat="28.2692319" lon="105.4952433"><ele>1016.83</ele><time>2026-06-05T23:59:54.000Z</time></trkpt>
        <trkpt lat="28.2692461" lon="105.4951474"><ele>1015.93</ele><time>2026-06-06T00:00:06.000Z</time></trkpt>
        <trkpt lat="28.2692729" lon="105.4950378"><ele>1016.23</ele><time>2026-06-06T00:00:22.000Z</time></trkpt>
        <trkpt lat="28.2692815" lon="105.494928"><ele>1016</ele><time>2026-06-06T00:00:30.000Z</time></trkpt>
        <trkpt lat="28.2692706" lon="105.4948228"><ele>1016.7</ele><time>2026-06-06T00:00:40.000Z</time></trkpt>
        <trkpt lat="28.2692613" lon="105.4947078"><ele>1018.4</ele><time>2026-06-06T00:00:52.000Z</time></trkpt>
        <trkpt lat="28.2692558" lon="105.4945957"><ele>1018.87</ele><time>2026-06-06T00:01:04.000Z</time></trkpt>
        <trkpt lat="28.2692645" lon="105.4944786"><ele>1018.68</ele><time>2026-06-06T00:01:18.000Z</time></trkpt>
        <trkpt lat="28.2692697" lon="105.4943584"><ele>1017.92</ele><time>2026-06-06T00:01:30.000Z</time></trkpt>
        <trkpt lat="28.2692342" lon="105.4942627"><ele>1017.99</ele><time>2026-06-06T00:01:38.000Z</time></trkpt>
        <trkpt lat="28.2692091" lon="105.494154"><ele>1016.51</ele><time>2026-06-06T00:01:48.000Z</time></trkpt>
        <trkpt lat="28.2691742" lon="105.4940466"><ele>1015.41</ele><time>2026-06-06T00:02:00.000Z</time></trkpt>
        <trkpt lat="28.2691184" lon="105.493951"><ele>1014.58</ele><time>2026-06-06T00:02:12.000Z</time></trkpt>
        <trkpt lat="28.2691118" lon="105.4938435"><ele>1014.74</ele><time>2026-06-06T00:02:24.000Z</time></trkpt>
        <trkpt lat="28.2690407" lon="105.4938456"><ele>1015.74</ele><time>2026-06-06T00:03:14.000Z</time></trkpt>
        <trkpt lat="28.2690154" lon="105.4937779"><ele>1017.43</ele><time>2026-06-06T00:04:00.000Z</time></trkpt>
        <trkpt lat="28.2689974" lon="105.493682"><ele>1022.61</ele><time>2026-06-06T00:04:20.000Z</time></trkpt>
        <trkpt lat="28.2689557" lon="105.4935793"><ele>1027.01</ele><time>2026-06-06T00:04:32.000Z</time></trkpt>
        <trkpt lat="28.2688996" lon="105.4934854"><ele>1031.35</ele><time>2026-06-06T00:04:46.000Z</time></trkpt>
        <trkpt lat="28.2688971" lon="105.4933841"><ele>1034.4</ele><time>2026-06-06T00:04:58.000Z</time></trkpt>
        <trkpt lat="28.2688758" lon="105.4932724"><ele>1035.59</ele><time>2026-06-06T00:05:20.000Z</time></trkpt>
        <trkpt lat="28.2688795" lon="105.4932158"><ele>1037.35</ele><time>2026-06-06T00:05:24.000Z</time></trkpt>
        <trkpt lat="28.2688775" lon="105.4931285"><ele>1038.96</ele><time>2026-06-06T00:05:52.000Z</time></trkpt>
        <trkpt lat="28.2688325" lon="105.4930415"><ele>1039.6</ele><time>2026-06-06T00:06:04.000Z</time></trkpt>
        <trkpt lat="28.2687566" lon="105.4929758"><ele>1039.42</ele><time>2026-06-06T00:06:16.000Z</time></trkpt>
        <trkpt lat="28.2687461" lon="105.492883"><ele>1041.27</ele><time>2026-06-06T00:06:44.000Z</time></trkpt>
        <trkpt lat="28.2688219" lon="105.4928501"><ele>1043.4</ele><time>2026-06-06T00:07:04.000Z</time></trkpt>
        <trkpt lat="28.268896" lon="105.4927855"><ele>1043.88</ele><time>2026-06-06T00:07:26.000Z</time></trkpt>
        <trkpt lat="28.26892" lon="105.4926833"><ele>1043.58</ele><time>2026-06-06T00:07:46.000Z</time></trkpt>
        <trkpt lat="28.2689222" lon="105.4925644"><ele>1042.41</ele><time>2026-06-06T00:08:02.000Z</time></trkpt>
        <trkpt lat="28.2689289" lon="105.492522"><ele>1040.49</ele><time>2026-06-06T00:08:06.000Z</time></trkpt>
        <trkpt lat="28.2689313" lon="105.4924406"><ele>1039.81</ele><time>2026-06-06T00:08:30.000Z</time></trkpt>
        <trkpt lat="28.2688882" lon="105.4923575"><ele>1037.59</ele><time>2026-06-06T00:08:52.000Z</time></trkpt>
        <trkpt lat="28.2688775" lon="105.4922508"><ele>1037.9</ele><time>2026-06-06T00:09:08.000Z</time></trkpt>
        <trkpt lat="28.268852" lon="105.4921907"><ele>1038.04</ele><time>2026-06-06T00:09:18.000Z</time></trkpt>
        <trkpt lat="28.2688429" lon="105.4920985"><ele>1036.63</ele><time>2026-06-06T00:09:34.000Z</time></trkpt>
        <trkpt lat="28.2688846" lon="105.4920042"><ele>1034.81</ele><time>2026-06-06T00:09:46.000Z</time></trkpt>
        <trkpt lat="28.2689085" lon="105.4919018"><ele>1034.37</ele><time>2026-06-06T00:10:00.000Z</time></trkpt>
        <trkpt lat="28.2689605" lon="105.4917981"><ele>1034.52</ele><time>2026-06-06T00:10:14.000Z</time></trkpt>
        <trkpt lat="28.2690473" lon="105.4917373"><ele>1035.39</ele><time>2026-06-06T00:10:26.000Z</time></trkpt>
        <trkpt lat="28.269131" lon="105.4916804"><ele>1035.14</ele><time>2026-06-06T00:10:40.000Z</time></trkpt>
        <trkpt lat="28.2692237" lon="105.4916694"><ele>1033.45</ele><time>2026-06-06T00:11:04.000Z</time></trkpt>
        <trkpt lat="28.2692237" lon="105.4916694"><ele>1033.45</ele><time>2026-06-06T00:11:49.000Z</time></trkpt>
      </trkseg>
      <trkseg>
        <trkpt lat="28.2692989" lon="105.4916039"><ele>1031.11</ele><time>2026-06-06T00:11:53.000Z</time></trkpt>
        <trkpt lat="28.2692989" lon="105.4916039"><ele>1031.11</ele><time>2026-06-06T00:12:08.000Z</time></trkpt>
        <trkpt lat="28.2692866" lon="105.4915852"><ele>1024.88</ele><time>2026-06-06T00:12:14.000Z</time></trkpt>
        <trkpt lat="28.2693519" lon="105.4915332"><ele>1020.94</ele><time>2026-06-06T00:12:26.000Z</time></trkpt>
        <trkpt lat="28.2693842" lon="105.4914333"><ele>1019.81</ele><time>2026-06-06T00:12:50.000Z</time></trkpt>
        <trkpt lat="28.2693762" lon="105.4913284"><ele>1019.4</ele><time>2026-06-06T00:13:02.000Z</time></trkpt>
        <trkpt lat="28.2693405" lon="105.4912236"><ele>1019.97</ele><time>2026-06-06T00:13:12.000Z</time></trkpt>
        <trkpt lat="28.2692939" lon="105.4911265"><ele>1022.6</ele><time>2026-06-06T00:13:22.000Z</time></trkpt>
        <trkpt lat="28.2692533" lon="105.4910228"><ele>1023.15</ele><time>2026-06-06T00:13:34.000Z</time></trkpt>
        <trkpt lat="28.2692287" lon="105.4909092"><ele>1022.58</ele><time>2026-06-06T00:13:44.000Z</time></trkpt>
        <trkpt lat="28.2692037" lon="105.4907976"><ele>1022.88</ele><time>2026-06-06T00:13:56.000Z</time></trkpt>
        <trkpt lat="28.2691865" lon="105.4906925"><ele>1023.2</ele><time>2026-06-06T00:14:10.000Z</time></trkpt>
        <trkpt lat="28.2691853" lon="105.4905809"><ele>1023.64</ele><time>2026-06-06T00:14:24.000Z</time></trkpt>
        <trkpt lat="28.2691514" lon="105.4904735"><ele>1021.44</ele><time>2026-06-06T00:14:38.000Z</time></trkpt>
        <trkpt lat="28.2691864" lon="105.4903773"><ele>1020.89</ele><time>2026-06-06T00:14:50.000Z</time></trkpt>
        <trkpt lat="28.2692227" lon="105.4902781"><ele>1021.01</ele><time>2026-06-06T00:15:04.000Z</time></trkpt>
        <trkpt lat="28.2693108" lon="105.4902459"><ele>1020.77</ele><time>2026-06-06T00:15:32.000Z</time></trkpt>
        <trkpt lat="28.2693877" lon="105.4903091"><ele>1019.24</ele><time>2026-06-06T00:15:52.000Z</time></trkpt>
        <trkpt lat="28.2694516" lon="105.4904074"><ele>1018.27</ele><time>2026-06-06T00:16:06.000Z</time></trkpt>
        <trkpt lat="28.2695063" lon="105.4905194"><ele>1018.26</ele><time>2026-06-06T00:16:20.000Z</time></trkpt>
        <trkpt lat="28.2695512" lon="105.4906236"><ele>1018.11</ele><time>2026-06-06T00:16:30.000Z</time></trkpt>
        <trkpt lat="28.2696132" lon="105.4907174"><ele>1018.3</ele><time>2026-06-06T00:16:44.000Z</time></trkpt>
        <trkpt lat="28.2696718" lon="105.4908012"><ele>1016.87</ele><time>2026-06-06T00:16:54.000Z</time></trkpt>
        <trkpt lat="28.2696889" lon="105.4909003"><ele>1014.91</ele><time>2026-06-06T00:17:08.000Z</time></trkpt>
        <trkpt lat="28.2696973" lon="105.4910144"><ele>1014.84</ele><time>2026-06-06T00:17:22.000Z</time></trkpt>
        <trkpt lat="28.269727" lon="105.4911206"><ele>1016.95</ele><time>2026-06-06T00:17:48.000Z</time></trkpt>
        <trkpt lat="28.2697424" lon="105.4912255"><ele>1018.39</ele><time>2026-06-06T00:18:00.000Z</time></trkpt>
        <trkpt lat="28.2697278" lon="105.4913344"><ele>1019.65</ele><time>2026-06-06T00:18:12.000Z</time></trkpt>
        <trkpt lat="28.2697267" lon="105.4914501"><ele>1019.51</ele><time>2026-06-06T00:18:22.000Z</time></trkpt>
        <trkpt lat="28.2697335" lon="105.4915676"><ele>1019.93</ele><time>2026-06-06T00:18:32.000Z</time></trkpt>
        <trkpt lat="28.269753" lon="105.4916739"><ele>1020</ele><time>2026-06-06T00:18:40.000Z</time></trkpt>
        <trkpt lat="28.2697727" lon="105.4917765"><ele>1019.68</ele><time>2026-06-06T00:18:48.000Z</time></trkpt>
        <trkpt lat="28.2697854" lon="105.491886"><ele>1019.14</ele><time>2026-06-06T00:18:58.000Z</time></trkpt>
        <trkpt lat="28.2697902" lon="105.4920074"><ele>1016.61</ele><time>2026-06-06T00:19:08.000Z</time></trkpt>
        <trkpt lat="28.2697895" lon="105.4920432"><ele>1014.93</ele><time>2026-06-06T00:19:10.000Z</time></trkpt>
        <trkpt lat="28.2697585" lon="105.4921156"><ele>1013.38</ele><time>2026-06-06T00:19:24.000Z</time></trkpt>
        <trkpt lat="28.2697084" lon="105.4922086"><ele>1011.81</ele><time>2026-06-06T00:19:36.000Z</time></trkpt>
        <trkpt lat="28.2696631" lon="105.4923119"><ele>1009.35</ele><time>2026-06-06T00:19:48.000Z</time></trkpt>
        <trkpt lat="28.2696928" lon="105.4924108"><ele>1008.18</ele><time>2026-06-06T00:19:58.000Z</time></trkpt>
        <trkpt lat="28.2697473" lon="105.4925152"><ele>1007.48</ele><time>2026-06-06T00:20:10.000Z</time></trkpt>
        <trkpt lat="28.2698238" lon="105.4925891"><ele>1007.66</ele><time>2026-06-06T00:20:20.000Z</time></trkpt>
        <trkpt lat="28.2699127" lon="105.4926578"><ele>1008.8</ele><time>2026-06-06T00:20:32.000Z</time></trkpt>
        <trkpt lat="28.2699948" lon="105.492728"><ele>1009.5</ele><time>2026-06-06T00:20:46.000Z</time></trkpt>
        <trkpt lat="28.2699566" lon="105.4927801"><ele>1010.84</ele><time>2026-06-06T00:21:00.000Z</time></trkpt>
        <trkpt lat="28.2698939" lon="105.4928599"><ele>1013.51</ele><time>2026-06-06T00:21:16.000Z</time></trkpt>
        <trkpt lat="28.2699008" lon="105.49295"><ele>1016.01</ele><time>2026-06-06T00:21:26.000Z</time></trkpt>
        <trkpt lat="28.2699305" lon="105.4930527"><ele>1018.12</ele><time>2026-06-06T00:21:38.000Z</time></trkpt>
        <trkpt lat="28.2699664" lon="105.493166"><ele>1022.38</ele><time>2026-06-06T00:21:52.000Z</time></trkpt>
        <trkpt lat="28.2699827" lon="105.4932734"><ele>1025.55</ele><time>2026-06-06T00:22:02.000Z</time></trkpt>
        <trkpt lat="28.2700101" lon="105.493386"><ele>1027.29</ele><time>2026-06-06T00:22:14.000Z</time></trkpt>
        <trkpt lat="28.2700412" lon="105.4934923"><ele>1027.37</ele><time>2026-06-06T00:22:24.000Z</time></trkpt>
        <trkpt lat="28.2700826" lon="105.4935994"><ele>1027.13</ele><time>2026-06-06T00:22:34.000Z</time></trkpt>
        <trkpt lat="28.2701272" lon="105.4937009"><ele>1027.56</ele><time>2026-06-06T00:22:44.000Z</time></trkpt>
        <trkpt lat="28.2701733" lon="105.4937673"><ele>1027.05</ele><time>2026-06-06T00:22:56.000Z</time></trkpt>
        <trkpt lat="28.2702" lon="105.493856"><ele>1026.84</ele><time>2026-06-06T00:23:16.000Z</time></trkpt>
        <trkpt lat="28.2701834" lon="105.4939543"><ele>1025.65</ele><time>2026-06-06T00:23:28.000Z</time></trkpt>
        <trkpt lat="28.2701978" lon="105.4940576"><ele>1024.33</ele><time>2026-06-06T00:23:36.000Z</time></trkpt>
        <trkpt lat="28.2702144" lon="105.4941671"><ele>1024.08</ele><time>2026-06-06T00:23:44.000Z</time></trkpt>
        <trkpt lat="28.2702305" lon="105.494278"><ele>1024.48</ele><time>2026-06-06T00:23:52.000Z</time></trkpt>
        <trkpt lat="28.2703073" lon="105.4943432"><ele>1025.93</ele><time>2026-06-06T00:24:06.000Z</time></trkpt>
        <trkpt lat="28.2703606" lon="105.4943458"><ele>1025.68</ele><time>2026-06-06T00:24:12.000Z</time></trkpt>
        <trkpt lat="28.2704436" lon="105.4943467"><ele>1025.79</ele><time>2026-06-06T00:24:22.000Z</time></trkpt>
        <trkpt lat="28.2705445" lon="105.4943621"><ele>1025.42</ele><time>2026-06-06T00:24:32.000Z</time></trkpt>
        <trkpt lat="28.2705822" lon="105.4943674"><ele>1025.03</ele><time>2026-06-06T00:24:36.000Z</time></trkpt>
        <trkpt lat="28.2706463" lon="105.4944041"><ele>1023.56</ele><time>2026-06-06T00:24:50.000Z</time></trkpt>
        <trkpt lat="28.2706687" lon="105.4945002"><ele>1021.81</ele><time>2026-06-06T00:25:04.000Z</time></trkpt>
        <trkpt lat="28.2706113" lon="105.494585"><ele>1020.82</ele><time>2026-06-06T00:25:14.000Z</time></trkpt>
        <trkpt lat="28.2705186" lon="105.4946489"><ele>1021.34</ele><time>2026-06-06T00:25:26.000Z</time></trkpt>
        <trkpt lat="28.2704372" lon="105.49473"><ele>1023.33</ele><time>2026-06-06T00:25:44.000Z</time></trkpt>
        <trkpt lat="28.2704278" lon="105.4948299"><ele>1024.92</ele><time>2026-06-06T00:26:00.000Z</time></trkpt>
        <trkpt lat="28.270443" lon="105.4949442"><ele>1024.87</ele><time>2026-06-06T00:26:12.000Z</time></trkpt>
        <trkpt lat="28.2704796" lon="105.4950553"><ele>1024.53</ele><time>2026-06-06T00:26:22.000Z</time></trkpt>
        <trkpt lat="28.2704912" lon="105.4951757"><ele>1024.15</ele><time>2026-06-06T00:26:34.000Z</time></trkpt>
        <trkpt lat="28.2704657" lon="105.4952881"><ele>1026</ele><time>2026-06-06T00:26:44.000Z</time></trkpt>
        <trkpt lat="28.2704717" lon="105.4953997"><ele>1028.21</ele><time>2026-06-06T00:26:56.000Z</time></trkpt>
        <trkpt lat="28.2705299" lon="105.4954841"><ele>1029.61</ele><time>2026-06-06T00:27:06.000Z</time></trkpt>
        <trkpt lat="28.2705998" lon="105.4955647"><ele>1030.26</ele><time>2026-06-06T00:27:16.000Z</time></trkpt>
        <trkpt lat="28.2706074" lon="105.4956615"><ele>1032.21</ele><time>2026-06-06T00:27:28.000Z</time></trkpt>
        <trkpt lat="28.2706456" lon="105.4957523"><ele>1034.71</ele><time>2026-06-06T00:27:40.000Z</time></trkpt>
        <trkpt lat="28.2706779" lon="105.4958504"><ele>1035.1</ele><time>2026-06-06T00:27:50.000Z</time></trkpt>
        <trkpt lat="28.2707095" lon="105.4959614"><ele>1035.64</ele><time>2026-06-06T00:28:02.000Z</time></trkpt>
        <trkpt lat="28.2707432" lon="105.4960663"><ele>1035.43</ele><time>2026-06-06T00:28:12.000Z</time></trkpt>
        <trkpt lat="28.2708191" lon="105.4961074"><ele>1035.23</ele><time>2026-06-06T00:28:32.000Z</time></trkpt>
        <trkpt lat="28.2709085" lon="105.4961555"><ele>1032.5</ele><time>2026-06-06T00:28:44.000Z</time></trkpt>
        <trkpt lat="28.2710014" lon="105.4962072"><ele>1030.85</ele><time>2026-06-06T00:28:54.000Z</time></trkpt>
        <trkpt lat="28.2711102" lon="105.4962075"><ele>1030.02</ele><time>2026-06-06T00:29:06.000Z</time></trkpt>
        <trkpt lat="28.2711713" lon="105.4962809"><ele>1028.94</ele><time>2026-06-06T00:29:16.000Z</time></trkpt>
        <trkpt lat="28.271173" lon="105.4963841"><ele>1028.58</ele><time>2026-06-06T00:29:26.000Z</time></trkpt>
        <trkpt lat="28.2710998" lon="105.4964799"><ele>1031.18</ele><time>2026-06-06T00:29:38.000Z</time></trkpt>
        <trkpt lat="28.2710084" lon="105.4965419"><ele>1032.75</ele><time>2026-06-06T00:29:46.000Z</time></trkpt>
        <trkpt lat="28.2709112" lon="105.4965889"><ele>1033.17</ele><time>2026-06-06T00:29:56.000Z</time></trkpt>
        <trkpt lat="28.2708659" lon="105.4966783"><ele>1033.26</ele><time>2026-06-06T00:30:08.000Z</time></trkpt>
        <trkpt lat="28.2708757" lon="105.4967842"><ele>1032.72</ele><time>2026-06-06T00:30:18.000Z</time></trkpt>
        <trkpt lat="28.2708924" lon="105.4969065"><ele>1031.56</ele><time>2026-06-06T00:30:28.000Z</time></trkpt>
        <trkpt lat="28.2709493" lon="105.4970138"><ele>1030.76</ele><time>2026-06-06T00:30:40.000Z</time></trkpt>
        <trkpt lat="28.2710454" lon="105.4970701"><ele>1029.25</ele><time>2026-06-06T00:30:50.000Z</time></trkpt>
        <trkpt lat="28.2711469" lon="105.4970874"><ele>1028.12</ele><time>2026-06-06T00:31:00.000Z</time></trkpt>
        <trkpt lat="28.2712139" lon="105.4971587"><ele>1027.39</ele><time>2026-06-06T00:31:12.000Z</time></trkpt>
        <trkpt lat="28.2711898" lon="105.4972427"><ele>1024.73</ele><time>2026-06-06T00:31:20.000Z</time></trkpt>
        <trkpt lat="28.2711174" lon="105.4973334"><ele>1023.33</ele><time>2026-06-06T00:31:32.000Z</time></trkpt>
        <trkpt lat="28.2710229" lon="105.497409"><ele>1022.96</ele><time>2026-06-06T00:31:42.000Z</time></trkpt>
        <trkpt lat="28.271012" lon="105.4975084"><ele>1023.14</ele><time>2026-06-06T00:31:54.000Z</time></trkpt>
        <trkpt lat="28.2710402" lon="105.4976098"><ele>1023.42</ele><time>2026-06-06T00:32:06.000Z</time></trkpt>
        <trkpt lat="28.2711198" lon="105.4976717"><ele>1023.71</ele><time>2026-06-06T00:32:14.000Z</time></trkpt>
        <trkpt lat="28.2712259" lon="105.4976848"><ele>1024.59</ele><time>2026-06-06T00:32:29.000Z</time></trkpt>
        <trkpt lat="28.2712544" lon="105.4976885"><ele>1021.64</ele><time>2026-06-06T00:32:33.000Z</time></trkpt>
        <trkpt lat="28.2712277" lon="105.497755"><ele>1019.88</ele><time>2026-06-06T00:32:45.000Z</time></trkpt>
        <trkpt lat="28.2711862" lon="105.4978492"><ele>1017.68</ele><time>2026-06-06T00:32:53.000Z</time></trkpt>
        <trkpt lat="28.2711252" lon="105.4979444"><ele>1016.59</ele><time>2026-06-06T00:33:01.000Z</time></trkpt>
        <trkpt lat="28.2710614" lon="105.4980481"><ele>1015.66</ele><time>2026-06-06T00:33:11.000Z</time></trkpt>
        <trkpt lat="28.2710414" lon="105.4981709"><ele>1015.87</ele><time>2026-06-06T00:33:21.000Z</time></trkpt>
        <trkpt lat="28.2710392" lon="105.49829"><ele>1016.81</ele><time>2026-06-06T00:33:31.000Z</time></trkpt>
        <trkpt lat="28.2710741" lon="105.4983942"><ele>1016.7</ele><time>2026-06-06T00:33:41.000Z</time></trkpt>
        <trkpt lat="28.2711693" lon="105.4984212"><ele>1015.87</ele><time>2026-06-06T00:33:51.000Z</time></trkpt>
        <trkpt lat="28.271276" lon="105.4984505"><ele>1014.36</ele><time>2026-06-06T00:34:01.000Z</time></trkpt>
        <trkpt lat="28.2713765" lon="105.4985039"><ele>1013</ele><time>2026-06-06T00:34:11.000Z</time></trkpt>
        <trkpt lat="28.2714668" lon="105.4985609"><ele>1012.89</ele><time>2026-06-06T00:34:21.000Z</time></trkpt>
        <trkpt lat="28.271487" lon="105.4986555"><ele>1012.56</ele><time>2026-06-06T00:34:29.000Z</time></trkpt>
        <trkpt lat="28.2714364" lon="105.4987403"><ele>1014.45</ele><time>2026-06-06T00:34:41.000Z</time></trkpt>
        <trkpt lat="28.2713807" lon="105.4988334"><ele>1016.06</ele><time>2026-06-06T00:34:53.000Z</time></trkpt>
        <trkpt lat="28.2713112" lon="105.4989132"><ele>1018.84</ele><time>2026-06-06T00:35:05.000Z</time></trkpt>
        <trkpt lat="28.2712324" lon="105.4989792"><ele>1021.28</ele><time>2026-06-06T00:35:17.000Z</time></trkpt>
        <trkpt lat="28.2711487" lon="105.4990564"><ele>1022.79</ele><time>2026-06-06T00:35:27.000Z</time></trkpt>
        <trkpt lat="28.2710755" lon="105.4991422"><ele>1023.36</ele><time>2026-06-06T00:35:53.000Z</time></trkpt>
        <trkpt lat="28.2710407" lon="105.4992491"><ele>1021.03</ele><time>2026-06-06T00:36:05.000Z</time></trkpt>
        <trkpt lat="28.2710364" lon="105.4993693"><ele>1019.73</ele><time>2026-06-06T00:36:17.000Z</time></trkpt>
        <trkpt lat="28.2710861" lon="105.4994653"><ele>1018.77</ele><time>2026-06-06T00:36:31.000Z</time></trkpt>
        <trkpt lat="28.2711782" lon="105.4994908"><ele>1016.17</ele><time>2026-06-06T00:36:41.000Z</time></trkpt>
        <trkpt lat="28.2712719" lon="105.4995219"><ele>1013.98</ele><time>2026-06-06T00:36:49.000Z</time></trkpt>
        <trkpt lat="28.2713637" lon="105.4995586"><ele>1014</ele><time>2026-06-06T00:36:57.000Z</time></trkpt>
        <trkpt lat="28.2714385" lon="105.4996329"><ele>1013.95</ele><time>2026-06-06T00:37:09.000Z</time></trkpt>
        <trkpt lat="28.2714875" lon="105.4997289"><ele>1014.04</ele><time>2026-06-06T00:37:19.000Z</time></trkpt>
        <trkpt lat="28.2714738" lon="105.4998312"><ele>1014.9</ele><time>2026-06-06T00:37:29.000Z</time></trkpt>
        <trkpt lat="28.2714051" lon="105.4999175"><ele>1014.2</ele><time>2026-06-06T00:37:39.000Z</time></trkpt>
        <trkpt lat="28.2713078" lon="105.4999823"><ele>1014.06</ele><time>2026-06-06T00:37:49.000Z</time></trkpt>
        <trkpt lat="28.2712207" lon="105.5000559"><ele>1012.84</ele><time>2026-06-06T00:38:01.000Z</time></trkpt>
        <trkpt lat="28.2711938" lon="105.5001606"><ele>1013.95</ele><time>2026-06-06T00:38:15.000Z</time></trkpt>
        <trkpt lat="28.271162" lon="105.5002602"><ele>1014.88</ele><time>2026-06-06T00:38:25.000Z</time></trkpt>
        <trkpt lat="28.271138" lon="105.5003653"><ele>1015.88</ele><time>2026-06-06T00:38:35.000Z</time></trkpt>
        <trkpt lat="28.2711424" lon="105.5004838"><ele>1016.61</ele><time>2026-06-06T00:38:47.000Z</time></trkpt>
        <trkpt lat="28.2711216" lon="105.5006004"><ele>1017.3</ele><time>2026-06-06T00:39:05.000Z</time></trkpt>
        <trkpt lat="28.2711948" lon="105.5006579"><ele>1017.17</ele><time>2026-06-06T00:39:15.000Z</time></trkpt>
        <trkpt lat="28.2712793" lon="105.5007233"><ele>1016.97</ele><time>2026-06-06T00:39:27.000Z</time></trkpt>
        <trkpt lat="28.2713431" lon="105.5008084"><ele>1015.98</ele><time>2026-06-06T00:39:37.000Z</time></trkpt>
        <trkpt lat="28.2713557" lon="105.5009155"><ele>1015.46</ele><time>2026-06-06T00:39:47.000Z</time></trkpt>
        <trkpt lat="28.2713145" lon="105.5010082"><ele>1015.54</ele><time>2026-06-06T00:39:59.000Z</time></trkpt>
        <trkpt lat="28.2712281" lon="105.5010675"><ele>1016.63</ele><time>2026-06-06T00:40:19.000Z</time></trkpt>
        <trkpt lat="28.271171" lon="105.5011576"><ele>1015.78</ele><time>2026-06-06T00:40:33.000Z</time></trkpt>
        <trkpt lat="28.2711235" lon="105.5012527"><ele>1016.4</ele><time>2026-06-06T00:40:43.000Z</time></trkpt>
        <trkpt lat="28.2710493" lon="105.5013194"><ele>1016.26</ele><time>2026-06-06T00:40:55.000Z</time></trkpt>
        <trkpt lat="28.2709816" lon="105.5014036"><ele>1016.01</ele><time>2026-06-06T00:41:05.000Z</time></trkpt>
        <trkpt lat="28.2709284" lon="105.5015087"><ele>1015.9</ele><time>2026-06-06T00:41:15.000Z</time></trkpt>
        <trkpt lat="28.27089" lon="105.5016175"><ele>1014.89</ele><time>2026-06-06T00:41:25.000Z</time></trkpt>
        <trkpt lat="28.2708687" lon="105.5017231"><ele>1013.95</ele><time>2026-06-06T00:41:35.000Z</time></trkpt>
        <trkpt lat="28.2709309" lon="105.5017885"><ele>1013.01</ele><time>2026-06-06T00:41:47.000Z</time></trkpt>
        <trkpt lat="28.2710304" lon="105.5017978"><ele>1013.26</ele><time>2026-06-06T00:41:57.000Z</time></trkpt>
        <trkpt lat="28.2711381" lon="105.5017779"><ele>1012.3</ele><time>2026-06-06T00:42:07.000Z</time></trkpt>
        <trkpt lat="28.2712159" lon="105.5018326"><ele>1011.04</ele><time>2026-06-06T00:42:17.000Z</time></trkpt>
        <trkpt lat="28.271292" lon="105.5019042"><ele>1010.82</ele><time>2026-06-06T00:42:29.000Z</time></trkpt>
        <trkpt lat="28.2713755" lon="105.5019688"><ele>1009.38</ele><time>2026-06-06T00:42:39.000Z</time></trkpt>
        <trkpt lat="28.2714466" lon="105.5020513"><ele>1008.14</ele><time>2026-06-06T00:42:49.000Z</time></trkpt>
        <trkpt lat="28.2715118" lon="105.5021402"><ele>1007.03</ele><time>2026-06-06T00:42:59.000Z</time></trkpt>
        <trkpt lat="28.2715175" lon="105.5022427"><ele>1005.96</ele><time>2026-06-06T00:43:09.000Z</time></trkpt>
        <trkpt lat="28.2714463" lon="105.5023161"><ele>1006.36</ele><time>2026-06-06T00:43:19.000Z</time></trkpt>
        <trkpt lat="28.2713488" lon="105.5023448"><ele>1007.27</ele><time>2026-06-06T00:43:29.000Z</time></trkpt>
        <trkpt lat="28.2712488" lon="105.5023667"><ele>1007.19</ele><time>2026-06-06T00:43:39.000Z</time></trkpt>
        <trkpt lat="28.271149" lon="105.5024156"><ele>1008.17</ele><time>2026-06-06T00:43:51.000Z</time></trkpt>
        <trkpt lat="28.2710564" lon="105.5024723"><ele>1008.31</ele><time>2026-06-06T00:44:03.000Z</time></trkpt>
        <trkpt lat="28.270982" lon="105.5025417"><ele>1009.02</ele><time>2026-06-06T00:44:15.000Z</time></trkpt>
        <trkpt lat="28.2710211" lon="105.5026169"><ele>1009.7</ele><time>2026-06-06T00:44:27.000Z</time></trkpt>
        <trkpt lat="28.2710894" lon="105.5027006"><ele>1009.6</ele><time>2026-06-06T00:44:37.000Z</time></trkpt>
        <trkpt lat="28.2711622" lon="105.5027934"><ele>1010.34</ele><time>2026-06-06T00:44:49.000Z</time></trkpt>
        <trkpt lat="28.2712352" lon="105.5028862"><ele>1009.91</ele><time>2026-06-06T00:45:01.000Z</time></trkpt>
        <trkpt lat="28.271203" lon="105.5029756"><ele>1009</ele><time>2026-06-06T00:45:15.000Z</time></trkpt>
        <trkpt lat="28.2711187" lon="105.5030473"><ele>1010.05</ele><time>2026-06-06T00:45:27.000Z</time></trkpt>
        <trkpt lat="28.2710231" lon="105.5031061"><ele>1011.24</ele><time>2026-06-06T00:45:37.000Z</time></trkpt>
        <trkpt lat="28.2709131" lon="105.5031269"><ele>1010.39</ele><time>2026-06-06T00:45:47.000Z</time></trkpt>
        <trkpt lat="28.2708069" lon="105.5031373"><ele>1010.23</ele><time>2026-06-06T00:45:57.000Z</time></trkpt>
        <trkpt lat="28.2707172" lon="105.5031969"><ele>1008.88</ele><time>2026-06-06T00:46:07.000Z</time></trkpt>
        <trkpt lat="28.2706456" lon="105.5032779"><ele>1008.88</ele><time>2026-06-06T00:46:17.000Z</time></trkpt>
        <trkpt lat="28.270688" lon="105.5033597"><ele>1008.24</ele><time>2026-06-06T00:46:29.000Z</time></trkpt>
        <trkpt lat="28.270772" lon="105.5034352"><ele>1007.65</ele><time>2026-06-06T00:46:39.000Z</time></trkpt>
        <trkpt lat="28.2708481" lon="105.5035258"><ele>1007.49</ele><time>2026-06-06T00:46:49.000Z</time></trkpt>
        <trkpt lat="28.2709051" lon="105.5036264"><ele>1006.99</ele><time>2026-06-06T00:46:59.000Z</time></trkpt>
        <trkpt lat="28.2709794" lon="105.5037017"><ele>1006.16</ele><time>2026-06-06T00:47:15.000Z</time></trkpt>
        <trkpt lat="28.2710585" lon="105.5037696"><ele>1006.54</ele><time>2026-06-06T00:47:25.000Z</time></trkpt>
        <trkpt lat="28.271043" lon="105.5038488"><ele>1004.86</ele><time>2026-06-06T00:47:37.000Z</time></trkpt>
        <trkpt lat="28.2709516" lon="105.5038725"><ele>1005.69</ele><time>2026-06-06T00:47:47.000Z</time></trkpt>
        <trkpt lat="28.2708408" lon="105.5038995"><ele>1006.15</ele><time>2026-06-06T00:47:57.000Z</time></trkpt>
        <trkpt lat="28.2707351" lon="105.5039542"><ele>1007.23</ele><time>2026-06-06T00:48:07.000Z</time></trkpt>
        <trkpt lat="28.2706241" lon="105.5039656"><ele>1008.97</ele><time>2026-06-06T00:48:17.000Z</time></trkpt>
        <trkpt lat="28.2705187" lon="105.5039541"><ele>1011.08</ele><time>2026-06-06T00:48:27.000Z</time></trkpt>
        <trkpt lat="28.2704277" lon="105.5040024"><ele>1012.16</ele><time>2026-06-06T00:48:39.000Z</time></trkpt>
        <trkpt lat="28.2703991" lon="105.5041027"><ele>1012.28</ele><time>2026-06-06T00:48:49.000Z</time></trkpt>
        <trkpt lat="28.2703746" lon="105.5042187"><ele>1012.57</ele><time>2026-06-06T00:48:59.000Z</time></trkpt>
        <trkpt lat="28.270345" lon="105.5043328"><ele>1012.86</ele><time>2026-06-06T00:49:09.000Z</time></trkpt>
        <trkpt lat="28.2703622" lon="105.5044433"><ele>1012.52</ele><time>2026-06-06T00:49:19.000Z</time></trkpt>
        <trkpt lat="28.2704181" lon="105.5045308"><ele>1011.95</ele><time>2026-06-06T00:49:27.000Z</time></trkpt>
        <trkpt lat="28.2704417" lon="105.5045565"><ele>1011.89</ele><time>2026-06-06T00:49:29.000Z</time></trkpt>
        <trkpt lat="28.2705067" lon="105.5046023"><ele>1011.87</ele><time>2026-06-06T00:50:15.000Z</time></trkpt>
        <trkpt lat="28.2705825" lon="105.5046569"><ele>1010.67</ele><time>2026-06-06T00:50:25.000Z</time></trkpt>
        <trkpt lat="28.270666" lon="105.5047112"><ele>1010.49</ele><time>2026-06-06T00:50:35.000Z</time></trkpt>
        <trkpt lat="28.27074" lon="105.5047945"><ele>1009.54</ele><time>2026-06-06T00:50:45.000Z</time></trkpt>
        <trkpt lat="28.2707046" lon="105.5048795"><ele>1008.94</ele><time>2026-06-06T00:50:55.000Z</time></trkpt>
        <trkpt lat="28.2706181" lon="105.5049262"><ele>1008.07</ele><time>2026-06-06T00:51:05.000Z</time></trkpt>
        <trkpt lat="28.2705041" lon="105.5049541"><ele>1007.29</ele><time>2026-06-06T00:51:15.000Z</time></trkpt>
        <trkpt lat="28.2703972" lon="105.504972"><ele>1007.98</ele><time>2026-06-06T00:51:23.000Z</time></trkpt>
        <trkpt lat="28.2703013" lon="105.5050106"><ele>1007.66</ele><time>2026-06-06T00:51:31.000Z</time></trkpt>
        <trkpt lat="28.2701982" lon="105.505016"><ele>1008.4</ele><time>2026-06-06T00:51:41.000Z</time></trkpt>
        <trkpt lat="28.2701177" lon="105.505063"><ele>1009.4</ele><time>2026-06-06T00:51:51.000Z</time></trkpt>
        <trkpt lat="28.2700576" lon="105.5051579"><ele>1009.29</ele><time>2026-06-06T00:52:01.000Z</time></trkpt>
        <trkpt lat="28.2700478" lon="105.5052777"><ele>1007.98</ele><time>2026-06-06T00:52:11.000Z</time></trkpt>
        <trkpt lat="28.2700305" lon="105.505401"><ele>1005.68</ele><time>2026-06-06T00:52:21.000Z</time></trkpt>
        <trkpt lat="28.2700279" lon="105.5055251"><ele>1004.91</ele><time>2026-06-06T00:52:33.000Z</time></trkpt>
        <trkpt lat="28.2700757" lon="105.5056284"><ele>1004.43</ele><time>2026-06-06T00:52:43.000Z</time></trkpt>
        <trkpt lat="28.2701301" lon="105.5057375"><ele>1003.52</ele><time>2026-06-06T00:52:53.000Z</time></trkpt>
        <trkpt lat="28.2701538" lon="105.5058438"><ele>1002.88</ele><time>2026-06-06T00:53:01.000Z</time></trkpt>
        <trkpt lat="28.2701623" lon="105.5059568"><ele>1002.18</ele><time>2026-06-06T00:53:09.000Z</time></trkpt>
        <trkpt lat="28.2701938" lon="105.5060564"><ele>1002.13</ele><time>2026-06-06T00:53:17.000Z</time></trkpt>
        <trkpt lat="28.2702696" lon="105.5061004"><ele>1003.53</ele><time>2026-06-06T00:53:25.000Z</time></trkpt>
        <trkpt lat="28.270318" lon="105.5061875"><ele>1003.62</ele><time>2026-06-06T00:53:35.000Z</time></trkpt>
        <trkpt lat="28.2703204" lon="105.50629"><ele>1003.29</ele><time>2026-06-06T00:53:45.000Z</time></trkpt>
        <trkpt lat="28.2703013" lon="105.5063978"><ele>1003</ele><time>2026-06-06T00:53:55.000Z</time></trkpt>
        <trkpt lat="28.2703024" lon="105.5065198"><ele>1002.71</ele><time>2026-06-06T00:54:05.000Z</time></trkpt>
        <trkpt lat="28.2703721" lon="105.5066001"><ele>1000.86</ele><time>2026-06-06T00:54:15.000Z</time></trkpt>
        <trkpt lat="28.2703284" lon="105.5066583"><ele>1000.06</ele><time>2026-06-06T00:54:35.000Z</time></trkpt>
        <trkpt lat="28.2702328" lon="105.5066734"><ele>1002.72</ele><time>2026-06-06T00:54:45.000Z</time></trkpt>
        <trkpt lat="28.2701383" lon="105.5066312"><ele>1005.52</ele><time>2026-06-06T00:54:55.000Z</time></trkpt>
        <trkpt lat="28.2700323" lon="105.5065851"><ele>1007.54</ele><time>2026-06-06T00:55:07.000Z</time></trkpt>
        <trkpt lat="28.2699394" lon="105.5066112"><ele>1008.47</ele><time>2026-06-06T00:55:17.000Z</time></trkpt>
        <trkpt lat="28.2699108" lon="105.506701"><ele>1009.63</ele><time>2026-06-06T00:55:27.000Z</time></trkpt>
        <trkpt lat="28.2699086" lon="105.5068234"><ele>1010.7</ele><time>2026-06-06T00:55:37.000Z</time></trkpt>
        <trkpt lat="28.2699219" lon="105.5069496"><ele>1011.17</ele><time>2026-06-06T00:55:47.000Z</time></trkpt>
        <trkpt lat="28.2699183" lon="105.5070657"><ele>1012.37</ele><time>2026-06-06T00:55:57.000Z</time></trkpt>
        <trkpt lat="28.2698864" lon="105.5071692"><ele>1013.83</ele><time>2026-06-06T00:56:07.000Z</time></trkpt>
        <trkpt lat="28.2698646" lon="105.5072787"><ele>1015.12</ele><time>2026-06-06T00:56:17.000Z</time></trkpt>
        <trkpt lat="28.2699343" lon="105.5073419"><ele>1016.85</ele><time>2026-06-06T00:56:29.000Z</time></trkpt>
        <trkpt lat="28.27" lon="105.5074261"><ele>1017.65</ele><time>2026-06-06T00:56:41.000Z</time></trkpt>
        <trkpt lat="28.2700757" lon="105.5075002"><ele>1018.07</ele><time>2026-06-06T00:56:51.000Z</time></trkpt>
        <trkpt lat="28.2701669" lon="105.5075091"><ele>1018.34</ele><time>2026-06-06T00:56:59.000Z</time></trkpt>
        <trkpt lat="28.2702719" lon="105.5075222"><ele>1018.73</ele><time>2026-06-06T00:57:09.000Z</time></trkpt>
        <trkpt lat="28.2703463" lon="105.507583"><ele>1020.44</ele><time>2026-06-06T00:57:19.000Z</time></trkpt>
        <trkpt lat="28.2703535" lon="105.5076813"><ele>1022.38</ele><time>2026-06-06T00:57:27.000Z</time></trkpt>
        <trkpt lat="28.2703627" lon="105.5077906"><ele>1023.15</ele><time>2026-06-06T00:57:35.000Z</time></trkpt>
        <trkpt lat="28.2704201" lon="105.5078634"><ele>1023.71</ele><time>2026-06-06T00:57:43.000Z</time></trkpt>
        <trkpt lat="28.270506" lon="105.5078864"><ele>1023.51</ele><time>2026-06-06T00:57:51.000Z</time></trkpt>
        <trkpt lat="28.270607" lon="105.5079112"><ele>1023.11</ele><time>2026-06-06T00:58:01.000Z</time></trkpt>
        <trkpt lat="28.2706652" lon="105.5079866"><ele>1022.14</ele><time>2026-06-06T00:58:09.000Z</time></trkpt>
        <trkpt lat="28.2707362" lon="105.5080511"><ele>1022.29</ele><time>2026-06-06T00:58:17.000Z</time></trkpt>
        <trkpt lat="28.2708149" lon="105.5081232"><ele>1021.51</ele><time>2026-06-06T00:58:25.000Z</time></trkpt>
        <trkpt lat="28.2709041" lon="105.5081923"><ele>1022.44</ele><time>2026-06-06T00:58:35.000Z</time></trkpt>
        <trkpt lat="28.2709278" lon="105.5082938"><ele>1022.53</ele><time>2026-06-06T00:58:45.000Z</time></trkpt>
        <trkpt lat="28.2708791" lon="105.5083833"><ele>1022.29</ele><time>2026-06-06T00:58:53.000Z</time></trkpt>
        <trkpt lat="28.2707846" lon="105.5084495"><ele>1024.05</ele><time>2026-06-06T00:59:03.000Z</time></trkpt>
        <trkpt lat="28.2706784" lon="105.5084986"><ele>1025.81</ele><time>2026-06-06T00:59:13.000Z</time></trkpt>
        <trkpt lat="28.2705745" lon="105.5085589"><ele>1027.18</ele><time>2026-06-06T00:59:23.000Z</time></trkpt>
        <trkpt lat="28.2704787" lon="105.5086067"><ele>1027.82</ele><time>2026-06-06T00:59:31.000Z</time></trkpt>
        <trkpt lat="28.2703955" lon="105.5086584"><ele>1027.8</ele><time>2026-06-06T00:59:39.000Z</time></trkpt>
        <trkpt lat="28.270315" lon="105.5087134"><ele>1028.2</ele><time>2026-06-06T00:59:47.000Z</time></trkpt>
        <trkpt lat="28.2703208" lon="105.5088069"><ele>1027.53</ele><time>2026-06-06T01:00:07.000Z</time></trkpt>
        <trkpt lat="28.2704012" lon="105.5088808"><ele>1028.02</ele><time>2026-06-06T01:00:25.000Z</time></trkpt>
        <trkpt lat="28.2705052" lon="105.5089055"><ele>1028.81</ele><time>2026-06-06T01:00:33.000Z</time></trkpt>
        <trkpt lat="28.2706184" lon="105.508925"><ele>1028.18</ele><time>2026-06-06T01:00:43.000Z</time></trkpt>
        <trkpt lat="28.2707363" lon="105.5089421"><ele>1028.24</ele><time>2026-06-06T01:00:53.000Z</time></trkpt>
        <trkpt lat="28.2708108" lon="105.5090061"><ele>1028.03</ele><time>2026-06-06T01:01:01.000Z</time></trkpt>
        <trkpt lat="28.2708614" lon="105.5091003"><ele>1027.24</ele><time>2026-06-06T01:01:09.000Z</time></trkpt>
        <trkpt lat="28.2709264" lon="105.5091848"><ele>1026.66</ele><time>2026-06-06T01:01:17.000Z</time></trkpt>
        <trkpt lat="28.2709928" lon="105.5092639"><ele>1026.33</ele><time>2026-06-06T01:01:25.000Z</time></trkpt>
        <trkpt lat="28.2710268" lon="105.5093697"><ele>1026.36</ele><time>2026-06-06T01:01:33.000Z</time></trkpt>
        <trkpt lat="28.2710528" lon="105.5094767"><ele>1025.97</ele><time>2026-06-06T01:01:41.000Z</time></trkpt>
        <trkpt lat="28.2710578" lon="105.509584"><ele>1025.98</ele><time>2026-06-06T01:01:51.000Z</time></trkpt>
        <trkpt lat="28.2709803" lon="105.5096262"><ele>1025.06</ele><time>2026-06-06T01:01:59.000Z</time></trkpt>
        <trkpt lat="28.2708669" lon="105.5096448"><ele>1024.39</ele><time>2026-06-06T01:02:09.000Z</time></trkpt>
        <trkpt lat="28.2707553" lon="105.5096655"><ele>1022.68</ele><time>2026-06-06T01:02:17.000Z</time></trkpt>
        <trkpt lat="28.2706492" lon="105.5096947"><ele>1020.82</ele><time>2026-06-06T01:02:25.000Z</time></trkpt>
        <trkpt lat="28.270575" lon="105.5097657"><ele>1020.01</ele><time>2026-06-06T01:02:33.000Z</time></trkpt>
        <trkpt lat="28.2704998" lon="105.5098327"><ele>1020.07</ele><time>2026-06-06T01:02:41.000Z</time></trkpt>
        <trkpt lat="28.2704132" lon="105.5098958"><ele>1020.09</ele><time>2026-06-06T01:02:51.000Z</time></trkpt>
        <trkpt lat="28.2703251" lon="105.5099324"><ele>1019.55</ele><time>2026-06-06T01:02:59.000Z</time></trkpt>
        <trkpt lat="28.270245" lon="105.5099819"><ele>1018.59</ele><time>2026-06-06T01:03:07.000Z</time></trkpt>
        <trkpt lat="28.2701619" lon="105.5100424"><ele>1018.63</ele><time>2026-06-06T01:03:17.000Z</time></trkpt>
        <trkpt lat="28.2700796" lon="105.5101063"><ele>1019.51</ele><time>2026-06-06T01:03:27.000Z</time></trkpt>
        <trkpt lat="28.2700726" lon="105.5101875"><ele>1020.23</ele><time>2026-06-06T01:03:43.000Z</time></trkpt>
        <trkpt lat="28.2701398" lon="105.5102505"><ele>1020.89</ele><time>2026-06-06T01:03:57.000Z</time></trkpt>
        <trkpt lat="28.2702362" lon="105.5103057"><ele>1020.63</ele><time>2026-06-06T01:04:07.000Z</time></trkpt>
        <trkpt lat="28.2703294" lon="105.5103813"><ele>1020.09</ele><time>2026-06-06T01:04:19.000Z</time></trkpt>
        <trkpt lat="28.2704139" lon="105.5104713"><ele>1019.13</ele><time>2026-06-06T01:04:29.000Z</time></trkpt>
        <trkpt lat="28.2705052" lon="105.5105269"><ele>1018.19</ele><time>2026-06-06T01:04:39.000Z</time></trkpt>
        <trkpt lat="28.2705767" lon="105.5105964"><ele>1018.05</ele><time>2026-06-06T01:04:49.000Z</time></trkpt>
        <trkpt lat="28.2706356" lon="105.5106911"><ele>1017.07</ele><time>2026-06-06T01:04:59.000Z</time></trkpt>
        <trkpt lat="28.2707187" lon="105.5107413"><ele>1015.27</ele><time>2026-06-06T01:05:07.000Z</time></trkpt>
        <trkpt lat="28.2708207" lon="105.5107702"><ele>1014.97</ele><time>2026-06-06T01:05:17.000Z</time></trkpt>
        <trkpt lat="28.2709059" lon="105.5108161"><ele>1015.34</ele><time>2026-06-06T01:05:25.000Z</time></trkpt>
        <trkpt lat="28.2708765" lon="105.5108931"><ele>1014.86</ele><time>2026-06-06T01:05:33.000Z</time></trkpt>
        <trkpt lat="28.2707956" lon="105.5109668"><ele>1013.83</ele><time>2026-06-06T01:05:41.000Z</time></trkpt>
        <trkpt lat="28.270694" lon="105.5110083"><ele>1014.67</ele><time>2026-06-06T01:05:49.000Z</time></trkpt>
        <trkpt lat="28.2705872" lon="105.5110451"><ele>1015.2</ele><time>2026-06-06T01:05:57.000Z</time></trkpt>
        <trkpt lat="28.270485" lon="105.5110707"><ele>1015.72</ele><time>2026-06-06T01:06:05.000Z</time></trkpt>
        <trkpt lat="28.2703964" lon="105.5111125"><ele>1015.95</ele><time>2026-06-06T01:06:13.000Z</time></trkpt>
        <trkpt lat="28.2703148" lon="105.5111654"><ele>1016.08</ele><time>2026-06-06T01:06:21.000Z</time></trkpt>
        <trkpt lat="28.2702411" lon="105.5112291"><ele>1015.58</ele><time>2026-06-06T01:06:29.000Z</time></trkpt>
        <trkpt lat="28.2701606" lon="105.5112895"><ele>1014.93</ele><time>2026-06-06T01:06:37.000Z</time></trkpt>
        <trkpt lat="28.2701094" lon="105.5113769"><ele>1014.69</ele><time>2026-06-06T01:06:47.000Z</time></trkpt>
        <trkpt lat="28.2701553" lon="105.5114516"><ele>1014.21</ele><time>2026-06-06T01:06:55.000Z</time></trkpt>
        <trkpt lat="28.2702412" lon="105.5115106"><ele>1013.67</ele><time>2026-06-06T01:07:03.000Z</time></trkpt>
        <trkpt lat="28.2703356" lon="105.5115837"><ele>1012.69</ele><time>2026-06-06T01:07:13.000Z</time></trkpt>
        <trkpt lat="28.2703921" lon="105.511696"><ele>1012.5</ele><time>2026-06-06T01:07:23.000Z</time></trkpt>
        <trkpt lat="28.2704668" lon="105.5117745"><ele>1012.62</ele><time>2026-06-06T01:07:31.000Z</time></trkpt>
        <trkpt lat="28.2705294" lon="105.5118578"><ele>1011.84</ele><time>2026-06-06T01:07:39.000Z</time></trkpt>
        <trkpt lat="28.2706024" lon="105.5119254"><ele>1012.13</ele><time>2026-06-06T01:07:47.000Z</time></trkpt>
        <trkpt lat="28.2706518" lon="105.5120143"><ele>1013.1</ele><time>2026-06-06T01:07:55.000Z</time></trkpt>
        <trkpt lat="28.2705951" lon="105.5120894"><ele>1014.22</ele><time>2026-06-06T01:08:05.000Z</time></trkpt>
        <trkpt lat="28.2704946" lon="105.5121227"><ele>1014.78</ele><time>2026-06-06T01:08:15.000Z</time></trkpt>
        <trkpt lat="28.2703814" lon="105.5121451"><ele>1014.56</ele><time>2026-06-06T01:08:23.000Z</time></trkpt>
        <trkpt lat="28.2702856" lon="105.5121999"><ele>1012.73</ele><time>2026-06-06T01:08:33.000Z</time></trkpt>
        <trkpt lat="28.2701863" lon="105.5121945"><ele>1011.99</ele><time>2026-06-06T01:08:41.000Z</time></trkpt>
        <trkpt lat="28.2700775" lon="105.5121838"><ele>1010.41</ele><time>2026-06-06T01:08:49.000Z</time></trkpt>
        <trkpt lat="28.2699857" lon="105.5122337"><ele>1009.96</ele><time>2026-06-06T01:08:57.000Z</time></trkpt>
        <trkpt lat="28.2698884" lon="105.512222"><ele>1009.62</ele><time>2026-06-06T01:09:05.000Z</time></trkpt>
        <trkpt lat="28.2697937" lon="105.5122095"><ele>1010.34</ele><time>2026-06-06T01:09:13.000Z</time></trkpt>
        <trkpt lat="28.2697007" lon="105.5122183"><ele>1010.59</ele><time>2026-06-06T01:09:21.000Z</time></trkpt>
        <trkpt lat="28.2696139" lon="105.5122613"><ele>1010.25</ele><time>2026-06-06T01:09:31.000Z</time></trkpt>
        <trkpt lat="28.2695981" lon="105.5123422"><ele>1010.5</ele><time>2026-06-06T01:09:41.000Z</time></trkpt>
        <trkpt lat="28.2696547" lon="105.5124223"><ele>1010.02</ele><time>2026-06-06T01:09:51.000Z</time></trkpt>
        <trkpt lat="28.2697391" lon="105.5125124"><ele>1009.08</ele><time>2026-06-06T01:10:01.000Z</time></trkpt>
        <trkpt lat="28.2697908" lon="105.5126183"><ele>1008.26</ele><time>2026-06-06T01:10:11.000Z</time></trkpt>
        <trkpt lat="28.2697463" lon="105.5127119"><ele>1009.01</ele><time>2026-06-06T01:10:21.000Z</time></trkpt>
        <trkpt lat="28.2696555" lon="105.5127578"><ele>1009.63</ele><time>2026-06-06T01:10:29.000Z</time></trkpt>
        <trkpt lat="28.2695615" lon="105.5128127"><ele>1010.24</ele><time>2026-06-06T01:10:39.000Z</time></trkpt>
        <trkpt lat="28.2695906" lon="105.5128752"><ele>1010.76</ele><time>2026-06-06T01:10:51.000Z</time></trkpt>
        <trkpt lat="28.2696759" lon="105.5129022"><ele>1010.46</ele><time>2026-06-06T01:10:59.000Z</time></trkpt>
        <trkpt lat="28.2697816" lon="105.512947"><ele>1010.47</ele><time>2026-06-06T01:11:09.000Z</time></trkpt>
        <trkpt lat="28.2698792" lon="105.512924"><ele>1010.56</ele><time>2026-06-06T01:11:17.000Z</time></trkpt>
        <trkpt lat="28.2699871" lon="105.5129052"><ele>1011.11</ele><time>2026-06-06T01:11:27.000Z</time></trkpt>
        <trkpt lat="28.2700884" lon="105.5129517"><ele>1011.3</ele><time>2026-06-06T01:11:37.000Z</time></trkpt>
        <trkpt lat="28.2701867" lon="105.5129752"><ele>1011.94</ele><time>2026-06-06T01:11:45.000Z</time></trkpt>
        <trkpt lat="28.2702776" lon="105.5130065"><ele>1012.13</ele><time>2026-06-06T01:11:53.000Z</time></trkpt>
        <trkpt lat="28.2703654" lon="105.5130325"><ele>1013.49</ele><time>2026-06-06T01:12:01.000Z</time></trkpt>
        <trkpt lat="28.270465" lon="105.5130347"><ele>1014.17</ele><time>2026-06-06T01:12:11.000Z</time></trkpt>
        <trkpt lat="28.2705529" lon="105.5130965"><ele>1014.86</ele><time>2026-06-06T01:12:21.000Z</time></trkpt>
        <trkpt lat="28.2706206" lon="105.5131882"><ele>1015.44</ele><time>2026-06-06T01:12:31.000Z</time></trkpt>
        <trkpt lat="28.2706139" lon="105.5133127"><ele>1014.64</ele><time>2026-06-06T01:12:39.000Z</time></trkpt>
        <trkpt lat="28.2705716" lon="105.5134246"><ele>1014.1</ele><time>2026-06-06T01:12:47.000Z</time></trkpt>
        <trkpt lat="28.2704869" lon="105.5134789"><ele>1014.47</ele><time>2026-06-06T01:12:55.000Z</time></trkpt>
        <trkpt lat="28.2703932" lon="105.5135276"><ele>1014.31</ele><time>2026-06-06T01:13:03.000Z</time></trkpt>
        <trkpt lat="28.2703019" lon="105.5135794"><ele>1014.37</ele><time>2026-06-06T01:13:11.000Z</time></trkpt>
        <trkpt lat="28.2702155" lon="105.5136311"><ele>1014.52</ele><time>2026-06-06T01:13:19.000Z</time></trkpt>
        <trkpt lat="28.270146" lon="105.5137005"><ele>1014.18</ele><time>2026-06-06T01:13:27.000Z</time></trkpt>
        <trkpt lat="28.2701758" lon="105.5137885"><ele>1013.93</ele><time>2026-06-06T01:13:37.000Z</time></trkpt>
        <trkpt lat="28.2702744" lon="105.5138459"><ele>1013.49</ele><time>2026-06-06T01:13:47.000Z</time></trkpt>
        <trkpt lat="28.2703823" lon="105.5138811"><ele>1012.42</ele><time>2026-06-06T01:13:55.000Z</time></trkpt>
        <trkpt lat="28.2704856" lon="105.5139347"><ele>1011.49</ele><time>2026-06-06T01:14:05.000Z</time></trkpt>
        <trkpt lat="28.2705605" lon="105.5140177"><ele>1010.24</ele><time>2026-06-06T01:14:13.000Z</time></trkpt>
        <trkpt lat="28.2706288" lon="105.5141008"><ele>1009.83</ele><time>2026-06-06T01:14:21.000Z</time></trkpt>
        <trkpt lat="28.2705848" lon="105.5141757"><ele>1009.2</ele><time>2026-06-06T01:14:29.000Z</time></trkpt>
        <trkpt lat="28.2704966" lon="105.5142451"><ele>1008.5</ele><time>2026-06-06T01:14:37.000Z</time></trkpt>
        <trkpt lat="28.2703917" lon="105.5142937"><ele>1008.07</ele><time>2026-06-06T01:14:45.000Z</time></trkpt>
        <trkpt lat="28.2702825" lon="105.5143189"><ele>1007.66</ele><time>2026-06-06T01:14:53.000Z</time></trkpt>
        <trkpt lat="28.2701698" lon="105.5143276"><ele>1007.34</ele><time>2026-06-06T01:15:01.000Z</time></trkpt>
        <trkpt lat="28.2701431" lon="105.5144032"><ele>1007.37</ele><time>2026-06-06T01:15:13.000Z</time></trkpt>
        <trkpt lat="28.2702043" lon="105.5144693"><ele>1007.47</ele><time>2026-06-06T01:15:21.000Z</time></trkpt>
        <trkpt lat="28.2702918" lon="105.5145289"><ele>1006.98</ele><time>2026-06-06T01:15:29.000Z</time></trkpt>
        <trkpt lat="28.2703937" lon="105.5145681"><ele>1007.31</ele><time>2026-06-06T01:15:37.000Z</time></trkpt>
        <trkpt lat="28.2704739" lon="105.5146313"><ele>1008.37</ele><time>2026-06-06T01:15:45.000Z</time></trkpt>
        <trkpt lat="28.2705496" lon="105.5146945"><ele>1009.06</ele><time>2026-06-06T01:15:53.000Z</time></trkpt>
        <trkpt lat="28.2705343" lon="105.5147858"><ele>1008.87</ele><time>2026-06-06T01:16:03.000Z</time></trkpt>
        <trkpt lat="28.2704581" lon="105.5148586"><ele>1008.21</ele><time>2026-06-06T01:16:11.000Z</time></trkpt>
        <trkpt lat="28.2703641" lon="105.5149125"><ele>1007.32</ele><time>2026-06-06T01:16:19.000Z</time></trkpt>
        <trkpt lat="28.2702593" lon="105.5149282"><ele>1006.84</ele><time>2026-06-06T01:16:27.000Z</time></trkpt>
        <trkpt lat="28.2701585" lon="105.514946"><ele>1006.64</ele><time>2026-06-06T01:16:35.000Z</time></trkpt>
        <trkpt lat="28.2700689" lon="105.5150072"><ele>1006.38</ele><time>2026-06-06T01:16:45.000Z</time></trkpt>
        <trkpt lat="28.2700037" lon="105.5150886"><ele>1006.22</ele><time>2026-06-06T01:16:53.000Z</time></trkpt>
        <trkpt lat="28.2699259" lon="105.515151"><ele>1005.76</ele><time>2026-06-06T01:17:01.000Z</time></trkpt>
        <trkpt lat="28.2698509" lon="105.5152131"><ele>1005.28</ele><time>2026-06-06T01:17:09.000Z</time></trkpt>
        <trkpt lat="28.2697782" lon="105.5152748"><ele>1004.67</ele><time>2026-06-06T01:17:17.000Z</time></trkpt>
        <trkpt lat="28.2698206" lon="105.5153444"><ele>1004.08</ele><time>2026-06-06T01:17:27.000Z</time></trkpt>
        <trkpt lat="28.2699082" lon="105.5153911"><ele>1003.08</ele><time>2026-06-06T01:17:35.000Z</time></trkpt>
        <trkpt lat="28.2699953" lon="105.5154523"><ele>1002.58</ele><time>2026-06-06T01:17:43.000Z</time></trkpt>
        <trkpt lat="28.2700943" lon="105.5154656"><ele>1001.87</ele><time>2026-06-06T01:17:51.000Z</time></trkpt>
        <trkpt lat="28.2701876" lon="105.5155008"><ele>1001.12</ele><time>2026-06-06T01:17:59.000Z</time></trkpt>
        <trkpt lat="28.2702426" lon="105.5155782"><ele>1000.38</ele><time>2026-06-06T01:18:09.000Z</time></trkpt>
        <trkpt lat="28.2703154" lon="105.5156419"><ele>1000.53</ele><time>2026-06-06T01:18:23.000Z</time></trkpt>
        <trkpt lat="28.2704129" lon="105.5156763"><ele>1000.79</ele><time>2026-06-06T01:18:33.000Z</time></trkpt>
        <trkpt lat="28.270513" lon="105.5157163"><ele>1000.72</ele><time>2026-06-06T01:18:43.000Z</time></trkpt>
        <trkpt lat="28.270592" lon="105.5157896"><ele>999.58</ele><time>2026-06-06T01:18:53.000Z</time></trkpt>
        <trkpt lat="28.2706179" lon="105.5158959"><ele>998.74</ele><time>2026-06-06T01:19:05.000Z</time></trkpt>
        <trkpt lat="28.2705853" lon="105.5160156"><ele>997.84</ele><time>2026-06-06T01:19:13.000Z</time></trkpt>
        <trkpt lat="28.2705067" lon="105.5160895"><ele>997.07</ele><time>2026-06-06T01:19:21.000Z</time></trkpt>
        <trkpt lat="28.2704021" lon="105.516115"><ele>996.13</ele><time>2026-06-06T01:19:29.000Z</time></trkpt>
        <trkpt lat="28.2703161" lon="105.5161687"><ele>995.49</ele><time>2026-06-06T01:19:37.000Z</time></trkpt>
        <trkpt lat="28.2702321" lon="105.5162308"><ele>995.18</ele><time>2026-06-06T01:19:45.000Z</time></trkpt>
        <trkpt lat="28.2701685" lon="105.5163104"><ele>994.77</ele><time>2026-06-06T01:19:53.000Z</time></trkpt>
        <trkpt lat="28.2700951" lon="105.5163743"><ele>994.29</ele><time>2026-06-06T01:20:01.000Z</time></trkpt>
        <trkpt lat="28.2700612" lon="105.5164047"><ele>994.06</ele><time>2026-06-06T01:20:05.000Z</time></trkpt>
        <trkpt lat="28.2700936" lon="105.5164883"><ele>993.94</ele><time>2026-06-06T01:20:37.000Z</time></trkpt>
        <trkpt lat="28.2701684" lon="105.5165622"><ele>991.37</ele><time>2026-06-06T01:20:47.000Z</time></trkpt>
        <trkpt lat="28.2702493" lon="105.5166354"><ele>989.39</ele><time>2026-06-06T01:20:55.000Z</time></trkpt>
        <trkpt lat="28.2703334" lon="105.5166951"><ele>988.27</ele><time>2026-06-06T01:21:03.000Z</time></trkpt>
        <trkpt lat="28.2704327" lon="105.516732"><ele>986.53</ele><time>2026-06-06T01:21:13.000Z</time></trkpt>
        <trkpt lat="28.2704915" lon="105.5168207"><ele>985.5</ele><time>2026-06-06T01:21:23.000Z</time></trkpt>
        <trkpt lat="28.2704401" lon="105.5168879"><ele>984.71</ele><time>2026-06-06T01:21:31.000Z</time></trkpt>
        <trkpt lat="28.2703496" lon="105.5169446"><ele>984.23</ele><time>2026-06-06T01:21:39.000Z</time></trkpt>
        <trkpt lat="28.2702439" lon="105.5169586"><ele>983.52</ele><time>2026-06-06T01:21:47.000Z</time></trkpt>
        <trkpt lat="28.2701673" lon="105.5169599"><ele>982.06</ele><time>2026-06-06T01:21:55.000Z</time></trkpt>
        <trkpt lat="28.2700959" lon="105.5170098"><ele>979.51</ele><time>2026-06-06T01:22:05.000Z</time></trkpt>
        <trkpt lat="28.2700204" lon="105.5170769"><ele>978.02</ele><time>2026-06-06T01:22:13.000Z</time></trkpt>
        <trkpt lat="28.2699369" lon="105.5171543"><ele>977.49</ele><time>2026-06-06T01:22:23.000Z</time></trkpt>
        <trkpt lat="28.2698688" lon="105.5172562"><ele>976.66</ele><time>2026-06-06T01:22:33.000Z</time></trkpt>
        <trkpt lat="28.2698079" lon="105.5173484"><ele>975.4</ele><time>2026-06-06T01:22:41.000Z</time></trkpt>
        <trkpt lat="28.2697243" lon="105.5174194"><ele>973.71</ele><time>2026-06-06T01:22:49.000Z</time></trkpt>
        <trkpt lat="28.2697288" lon="105.5175086"><ele>972.49</ele><time>2026-06-06T01:23:03.000Z</time></trkpt>
        <trkpt lat="28.2698051" lon="105.5175631"><ele>971.24</ele><time>2026-06-06T01:23:11.000Z</time></trkpt>
        <trkpt lat="28.269905" lon="105.5176046"><ele>970.92</ele><time>2026-06-06T01:23:19.000Z</time></trkpt>
        <trkpt lat="28.2700097" lon="105.5176248"><ele>972.6</ele><time>2026-06-06T01:23:27.000Z</time></trkpt>
        <trkpt lat="28.2701024" lon="105.5176675"><ele>974.58</ele><time>2026-06-06T01:23:35.000Z</time></trkpt>
        <trkpt lat="28.2701797" lon="105.5177377"><ele>975.64</ele><time>2026-06-06T01:23:43.000Z</time></trkpt>
        <trkpt lat="28.2702203" lon="105.5178353"><ele>975.83</ele><time>2026-06-06T01:23:51.000Z</time></trkpt>
        <trkpt lat="28.2702109" lon="105.5179448"><ele>977.18</ele><time>2026-06-06T01:24:01.000Z</time></trkpt>
        <trkpt lat="28.27015" lon="105.5180509"><ele>977.69</ele><time>2026-06-06T01:24:11.000Z</time></trkpt>
        <trkpt lat="28.2701009" lon="105.5181511"><ele>975.93</ele><time>2026-06-06T01:24:19.000Z</time></trkpt>
        <trkpt lat="28.2700238" lon="105.5182242"><ele>975.34</ele><time>2026-06-06T01:24:27.000Z</time></trkpt>
        <trkpt lat="28.2699215" lon="105.5182362"><ele>974.09</ele><time>2026-06-06T01:24:35.000Z</time></trkpt>
        <trkpt lat="28.2698244" lon="105.5182633"><ele>972.86</ele><time>2026-06-06T01:24:43.000Z</time></trkpt>
        <trkpt lat="28.2697562" lon="105.5183345"><ele>970.82</ele><time>2026-06-06T01:24:51.000Z</time></trkpt>
        <trkpt lat="28.2696845" lon="105.5184108"><ele>970.56</ele><time>2026-06-06T01:24:59.000Z</time></trkpt>
        <trkpt lat="28.2696154" lon="105.5185025"><ele>970.61</ele><time>2026-06-06T01:25:09.000Z</time></trkpt>
        <trkpt lat="28.2696626" lon="105.5185816"><ele>971.43</ele><time>2026-06-06T01:25:27.000Z</time></trkpt>
        <trkpt lat="28.2697662" lon="105.5186216"><ele>973.92</ele><time>2026-06-06T01:25:39.000Z</time></trkpt>
        <trkpt lat="28.2698678" lon="105.5186871"><ele>975.68</ele><time>2026-06-06T01:25:49.000Z</time></trkpt>
        <trkpt lat="28.2699477" lon="105.5187634"><ele>976.22</ele><time>2026-06-06T01:25:57.000Z</time></trkpt>
        <trkpt lat="28.2700206" lon="105.5188469"><ele>976.5</ele><time>2026-06-06T01:26:07.000Z</time></trkpt>
        <trkpt lat="28.2701029" lon="105.5189196"><ele>976.39</ele><time>2026-06-06T01:26:17.000Z</time></trkpt>
        <trkpt lat="28.2701456" lon="105.5189478"><ele>975.59</ele><time>2026-06-06T01:26:23.000Z</time></trkpt>
        <trkpt lat="28.2702203" lon="105.5189509"><ele>975.24</ele><time>2026-06-06T01:26:35.000Z</time></trkpt>
        <trkpt lat="28.2703107" lon="105.5189227"><ele>974.34</ele><time>2026-06-06T01:26:51.000Z</time></trkpt>
        <trkpt lat="28.2704053" lon="105.5188991"><ele>973.63</ele><time>2026-06-06T01:27:01.000Z</time></trkpt>
        <trkpt lat="28.2704363" lon="105.5188964"><ele>973.27</ele><time>2026-06-06T01:27:05.000Z</time></trkpt>
        <trkpt lat="28.2703288" lon="105.5188826"><ele>973.13</ele><time>2026-06-06T01:31:33.000Z</time></trkpt>
        <trkpt lat="28.2704245" lon="105.5188981"><ele>973.82</ele><time>2026-06-06T01:38:13.000Z</time></trkpt>
        <trkpt lat="28.2705231" lon="105.5189007"><ele>973.44</ele><time>2026-06-06T01:38:21.000Z</time></trkpt>
        <trkpt lat="28.2704929" lon="105.5189865"><ele>973.04</ele><time>2026-06-06T01:38:43.000Z</time></trkpt>
        <trkpt lat="28.2704257" lon="105.5190764"><ele>972.22</ele><time>2026-06-06T01:38:53.000Z</time></trkpt>
        <trkpt lat="28.27034" lon="105.5191718"><ele>971.55</ele><time>2026-06-06T01:39:03.000Z</time></trkpt>
        <trkpt lat="28.2702644" lon="105.5192575"><ele>970.22</ele><time>2026-06-06T01:39:11.000Z</time></trkpt>
        <trkpt lat="28.2702065" lon="105.5193582"><ele>969.32</ele><time>2026-06-06T01:39:21.000Z</time></trkpt>
        <trkpt lat="28.2701959" lon="105.5194776"><ele>968.01</ele><time>2026-06-06T01:39:31.000Z</time></trkpt>
        <trkpt lat="28.2702081" lon="105.5195972"><ele>966.47</ele><time>2026-06-06T01:39:41.000Z</time></trkpt>
        <trkpt lat="28.270215" lon="105.5196458"><ele>965.78</ele><time>2026-06-06T01:39:45.000Z</time></trkpt>
        <trkpt lat="28.2701779" lon="105.5197141"><ele>965.38</ele><time>2026-06-06T01:39:57.000Z</time></trkpt>
        <trkpt lat="28.2700988" lon="105.5197843"><ele>964.92</ele><time>2026-06-06T01:40:07.000Z</time></trkpt>
        <trkpt lat="28.2700222" lon="105.519871"><ele>964.47</ele><time>2026-06-06T01:40:17.000Z</time></trkpt>
        <trkpt lat="28.2700034" lon="105.5199717"><ele>963.04</ele><time>2026-06-06T01:40:25.000Z</time></trkpt>
        <trkpt lat="28.2700172" lon="105.5200787"><ele>962.35</ele><time>2026-06-06T01:40:33.000Z</time></trkpt>
        <trkpt lat="28.2700406" lon="105.5201884"><ele>961.75</ele><time>2026-06-06T01:40:41.000Z</time></trkpt>
        <trkpt lat="28.2700648" lon="105.5203059"><ele>960.28</ele><time>2026-06-06T01:40:49.000Z</time></trkpt>
        <trkpt lat="28.2701096" lon="105.5204059"><ele>959.18</ele><time>2026-06-06T01:40:57.000Z</time></trkpt>
        <trkpt lat="28.2701861" lon="105.5204908"><ele>958.74</ele><time>2026-06-06T01:41:05.000Z</time></trkpt>
        <trkpt lat="28.2702518" lon="105.5205777"><ele>959.3</ele><time>2026-06-06T01:41:13.000Z</time></trkpt>
        <trkpt lat="28.2703293" lon="105.5206609"><ele>959.01</ele><time>2026-06-06T01:41:21.000Z</time></trkpt>
        <trkpt lat="28.2704064" lon="105.5207424"><ele>958.44</ele><time>2026-06-06T01:41:29.000Z</time></trkpt>
        <trkpt lat="28.2704583" lon="105.5208476"><ele>958.11</ele><time>2026-06-06T01:41:37.000Z</time></trkpt>
        <trkpt lat="28.270462" lon="105.5209613"><ele>957.39</ele><time>2026-06-06T01:41:45.000Z</time></trkpt>
        <trkpt lat="28.270494" lon="105.5210756"><ele>956.43</ele><time>2026-06-06T01:41:53.000Z</time></trkpt>
        <trkpt lat="28.2705474" lon="105.5211775"><ele>955.43</ele><time>2026-06-06T01:42:01.000Z</time></trkpt>
        <trkpt lat="28.2705986" lon="105.5212778"><ele>954.58</ele><time>2026-06-06T01:42:09.000Z</time></trkpt>
        <trkpt lat="28.2706479" lon="105.5213813"><ele>953.99</ele><time>2026-06-06T01:42:17.000Z</time></trkpt>
        <trkpt lat="28.2706641" lon="105.521494"><ele>953.5</ele><time>2026-06-06T01:42:25.000Z</time></trkpt>
        <trkpt lat="28.2706676" lon="105.5216131"><ele>953.21</ele><time>2026-06-06T01:42:33.000Z</time></trkpt>
        <trkpt lat="28.2706656" lon="105.5217379"><ele>952.67</ele><time>2026-06-06T01:42:41.000Z</time></trkpt>
        <trkpt lat="28.2706633" lon="105.5218604"><ele>950.93</ele><time>2026-06-06T01:42:49.000Z</time></trkpt>
        <trkpt lat="28.2706579" lon="105.5219736"><ele>949.16</ele><time>2026-06-06T01:42:57.000Z</time></trkpt>
        <trkpt lat="28.2706589" lon="105.5220795"><ele>947.42</ele><time>2026-06-06T01:43:05.000Z</time></trkpt>
        <trkpt lat="28.2706661" lon="105.5221956"><ele>946.3</ele><time>2026-06-06T01:43:13.000Z</time></trkpt>
        <trkpt lat="28.2706725" lon="105.5223151"><ele>946.04</ele><time>2026-06-06T01:43:21.000Z</time></trkpt>
        <trkpt lat="28.2706799" lon="105.5224263"><ele>945.42</ele><time>2026-06-06T01:43:29.000Z</time></trkpt>
        <trkpt lat="28.2706969" lon="105.5225363"><ele>944.69</ele><time>2026-06-06T01:43:39.000Z</time></trkpt>
        <trkpt lat="28.270717" lon="105.5226472"><ele>943.63</ele><time>2026-06-06T01:43:47.000Z</time></trkpt>
        <trkpt lat="28.270738" lon="105.5227613"><ele>941.97</ele><time>2026-06-06T01:43:57.000Z</time></trkpt>
        <trkpt lat="28.2707569" lon="105.5228689"><ele>939.84</ele><time>2026-06-06T01:44:05.000Z</time></trkpt>
        <trkpt lat="28.2707798" lon="105.5229709"><ele>937.64</ele><time>2026-06-06T01:44:13.000Z</time></trkpt>
        <trkpt lat="28.2708005" lon="105.5230896"><ele>935.1</ele><time>2026-06-06T01:44:23.000Z</time></trkpt>
        <trkpt lat="28.2708318" lon="105.5232089"><ele>932.63</ele><time>2026-06-06T01:44:33.000Z</time></trkpt>
        <trkpt lat="28.270862" lon="105.5233219"><ele>929.82</ele><time>2026-06-06T01:44:41.000Z</time></trkpt>
        <trkpt lat="28.2708898" lon="105.523436"><ele>927.73</ele><time>2026-06-06T01:44:49.000Z</time></trkpt>
        <trkpt lat="28.2709121" lon="105.5235517"><ele>926.47</ele><time>2026-06-06T01:44:57.000Z</time></trkpt>
        <trkpt lat="28.2709372" lon="105.5236662"><ele>925.41</ele><time>2026-06-06T01:45:05.000Z</time></trkpt>
        <trkpt lat="28.2709876" lon="105.5237549"><ele>924.38</ele><time>2026-06-06T01:45:13.000Z</time></trkpt>
        <trkpt lat="28.27106" lon="105.5238206"><ele>923.08</ele><time>2026-06-06T01:45:21.000Z</time></trkpt>
        <trkpt lat="28.2711435" lon="105.5238778"><ele>921.36</ele><time>2026-06-06T01:45:29.000Z</time></trkpt>
        <trkpt lat="28.2712209" lon="105.5239423"><ele>919.55</ele><time>2026-06-06T01:45:37.000Z</time></trkpt>
        <trkpt lat="28.2712913" lon="105.5240166"><ele>917.39</ele><time>2026-06-06T01:45:45.000Z</time></trkpt>
        <trkpt lat="28.2713595" lon="105.5241049"><ele>914.98</ele><time>2026-06-06T01:45:55.000Z</time></trkpt>
        <trkpt lat="28.2714208" lon="105.5241914"><ele>912.25</ele><time>2026-06-06T01:46:03.000Z</time></trkpt>
        <trkpt lat="28.2714853" lon="105.5242746"><ele>909.71</ele><time>2026-06-06T01:46:11.000Z</time></trkpt>
        <trkpt lat="28.2715615" lon="105.5243414"><ele>907.41</ele><time>2026-06-06T01:46:19.000Z</time></trkpt>
        <trkpt lat="28.2716423" lon="105.524396"><ele>905.26</ele><time>2026-06-06T01:46:27.000Z</time></trkpt>
        <trkpt lat="28.2717192" lon="105.5244556"><ele>903.54</ele><time>2026-06-06T01:46:35.000Z</time></trkpt>
        <trkpt lat="28.2717836" lon="105.5245498"><ele>902.48</ele><time>2026-06-06T01:46:45.000Z</time></trkpt>
        <trkpt lat="28.2718135" lon="105.5246527"><ele>900.92</ele><time>2026-06-06T01:46:53.000Z</time></trkpt>
        <trkpt lat="28.2718255" lon="105.5247737"><ele>899.19</ele><time>2026-06-06T01:47:03.000Z</time></trkpt>
        <trkpt lat="28.271835" lon="105.5248856"><ele>897.08</ele><time>2026-06-06T01:47:11.000Z</time></trkpt>
        <trkpt lat="28.2718294" lon="105.5250044"><ele>895.83</ele><time>2026-06-06T01:47:21.000Z</time></trkpt>
        <trkpt lat="28.2717996" lon="105.525123"><ele>894.91</ele><time>2026-06-06T01:47:31.000Z</time></trkpt>
        <trkpt lat="28.2717777" lon="105.5252419"><ele>893.59</ele><time>2026-06-06T01:47:41.000Z</time></trkpt>
        <trkpt lat="28.2717795" lon="105.5253517"><ele>892.06</ele><time>2026-06-06T01:47:51.000Z</time></trkpt>
        <trkpt lat="28.2718081" lon="105.5254587"><ele>889.86</ele><time>2026-06-06T01:48:01.000Z</time></trkpt>
        <trkpt lat="28.2718502" lon="105.5255599"><ele>888.8</ele><time>2026-06-06T01:48:11.000Z</time></trkpt>
        <trkpt lat="28.2718867" lon="105.52567"><ele>887.06</ele><time>2026-06-06T01:48:21.000Z</time></trkpt>
        <trkpt lat="28.2719259" lon="105.5257784"><ele>885.36</ele><time>2026-06-06T01:48:31.000Z</time></trkpt>
        <trkpt lat="28.2719755" lon="105.5258799"><ele>884.36</ele><time>2026-06-06T01:48:41.000Z</time></trkpt>
        <trkpt lat="28.2720439" lon="105.5259715"><ele>882.64</ele><time>2026-06-06T01:48:51.000Z</time></trkpt>
        <trkpt lat="28.2721299" lon="105.5260456"><ele>881.43</ele><time>2026-06-06T01:49:01.000Z</time></trkpt>
        <trkpt lat="28.2722061" lon="105.5261303"><ele>879.95</ele><time>2026-06-06T01:49:11.000Z</time></trkpt>
        <trkpt lat="28.2722723" lon="105.5262278"><ele>878.19</ele><time>2026-06-06T01:49:21.000Z</time></trkpt>
        <trkpt lat="28.2723363" lon="105.5263306"><ele>876.37</ele><time>2026-06-06T01:49:31.000Z</time></trkpt>
        <trkpt lat="28.2723953" lon="105.5264379"><ele>874.55</ele><time>2026-06-06T01:49:41.000Z</time></trkpt>
        <trkpt lat="28.2724482" lon="105.5265429"><ele>872.74</ele><time>2026-06-06T01:49:51.000Z</time></trkpt>
        <trkpt lat="28.2725158" lon="105.5266284"><ele>871.23</ele><time>2026-06-06T01:50:01.000Z</time></trkpt>
        <trkpt lat="28.272594" lon="105.5266937"><ele>869.35</ele><time>2026-06-06T01:50:11.000Z</time></trkpt>
        <trkpt lat="28.2726543" lon="105.5267809"><ele>867.22</ele><time>2026-06-06T01:50:21.000Z</time></trkpt>
        <trkpt lat="28.2726952" lon="105.5268814"><ele>864.31</ele><time>2026-06-06T01:50:31.000Z</time></trkpt>
        <trkpt lat="28.2727199" lon="105.5269942"><ele>861.99</ele><time>2026-06-06T01:50:41.000Z</time></trkpt>
        <trkpt lat="28.2727333" lon="105.5271042"><ele>860.33</ele><time>2026-06-06T01:50:51.000Z</time></trkpt>
        <trkpt lat="28.2727604" lon="105.5272051"><ele>858.5</ele><time>2026-06-06T01:51:01.000Z</time></trkpt>
        <trkpt lat="28.2728149" lon="105.5272901"><ele>856.14</ele><time>2026-06-06T01:51:11.000Z</time></trkpt>
        <trkpt lat="28.272868" lon="105.5273873"><ele>853.28</ele><time>2026-06-06T01:51:21.000Z</time></trkpt>
        <trkpt lat="28.2728881" lon="105.5274205"><ele>850.91</ele><time>2026-06-06T01:51:23.000Z</time></trkpt>
        <trkpt lat="28.2729157" lon="105.5275142"><ele>849.86</ele><time>2026-06-06T01:51:39.000Z</time></trkpt>
        <trkpt lat="28.2729649" lon="105.527591"><ele>849.12</ele><time>2026-06-06T01:52:01.000Z</time></trkpt>
        <trkpt lat="28.2730005" lon="105.5276965"><ele>847.29</ele><time>2026-06-06T01:52:21.000Z</time></trkpt>
        <trkpt lat="28.2730205" lon="105.527805"><ele>843.35</ele><time>2026-06-06T01:52:33.000Z</time></trkpt>
        <trkpt lat="28.2730039" lon="105.5279194"><ele>839.44</ele><time>2026-06-06T01:52:47.000Z</time></trkpt>
        <trkpt lat="28.2730289" lon="105.5280276"><ele>835.86</ele><time>2026-06-06T01:52:57.000Z</time></trkpt>
        <trkpt lat="28.273066" lon="105.5281415"><ele>833.01</ele><time>2026-06-06T01:53:21.000Z</time></trkpt>
        <trkpt lat="28.2730911" lon="105.5282563"><ele>830.67</ele><time>2026-06-06T01:53:29.000Z</time></trkpt>
        <trkpt lat="28.2731084" lon="105.5282694"><ele>828.19</ele><time>2026-06-06T01:53:49.000Z</time></trkpt>
        <trkpt lat="28.2730592" lon="105.5282082"><ele>826.06</ele><time>2026-06-06T01:54:01.000Z</time></trkpt>
        <trkpt lat="28.2730149" lon="105.5280844"><ele>824.44</ele><time>2026-06-06T01:54:11.000Z</time></trkpt>
        <trkpt lat="28.2729357" lon="105.5280136"><ele>824.2</ele><time>2026-06-06T01:54:25.000Z</time></trkpt>
        <trkpt lat="28.2728829" lon="105.5279208"><ele>825.71</ele><time>2026-06-06T01:54:33.000Z</time></trkpt>
        <trkpt lat="28.2729108" lon="105.5278915"><ele>826.41</ele><time>2026-06-06T01:54:35.000Z</time></trkpt>
        <trkpt lat="28.2729704" lon="105.5279511"><ele>826.8</ele><time>2026-06-06T01:54:47.000Z</time></trkpt>
        <trkpt lat="28.2730161" lon="105.5280049"><ele>827.29</ele><time>2026-06-06T01:54:55.000Z</time></trkpt>
        <trkpt lat="28.2731193" lon="105.5280686"><ele>827.13</ele><time>2026-06-06T01:56:25.000Z</time></trkpt>
        <trkpt lat="28.2731934" lon="105.5281279"><ele>826.16</ele><time>2026-06-06T01:56:37.000Z</time></trkpt>
        <trkpt lat="28.2732425" lon="105.5281522"><ele>825.2</ele><time>2026-06-06T01:56:43.000Z</time></trkpt>
        <trkpt lat="28.2733323" lon="105.5281228"><ele>824.88</ele><time>2026-06-06T01:56:51.000Z</time></trkpt>
        <trkpt lat="28.2733372" lon="105.5280227"><ele>827.52</ele><time>2026-06-06T01:57:01.000Z</time></trkpt>
        <trkpt lat="28.2733832" lon="105.5280393"><ele>830.22</ele><time>2026-06-06T01:57:11.000Z</time></trkpt>
        <trkpt lat="28.2734352" lon="105.5281381"><ele>828.74</ele><time>2026-06-06T01:57:19.000Z</time></trkpt>
        <trkpt lat="28.2734946" lon="105.5282492"><ele>825.13</ele><time>2026-06-06T01:57:27.000Z</time></trkpt>
        <trkpt lat="28.2735518" lon="105.5283562"><ele>821.88</ele><time>2026-06-06T01:57:35.000Z</time></trkpt>
        <trkpt lat="28.2735956" lon="105.528476"><ele>819.52</ele><time>2026-06-06T01:57:43.000Z</time></trkpt>
        <trkpt lat="28.2736153" lon="105.5286064"><ele>818.22</ele><time>2026-06-06T01:57:51.000Z</time></trkpt>
        <trkpt lat="28.273642" lon="105.5287262"><ele>817.26</ele><time>2026-06-06T01:57:59.000Z</time></trkpt>
        <trkpt lat="28.2736874" lon="105.5288331"><ele>816.16</ele><time>2026-06-06T01:58:07.000Z</time></trkpt>
        <trkpt lat="28.2737361" lon="105.528937"><ele>815.85</ele><time>2026-06-06T01:58:15.000Z</time></trkpt>
        <trkpt lat="28.2737542" lon="105.5290574"><ele>815.53</ele><time>2026-06-06T01:58:23.000Z</time></trkpt>
        <trkpt lat="28.2737614" lon="105.5291684"><ele>814.93</ele><time>2026-06-06T01:58:31.000Z</time></trkpt>
        <trkpt lat="28.2737371" lon="105.5292767"><ele>813.94</ele><time>2026-06-06T01:58:39.000Z</time></trkpt>
        <trkpt lat="28.2737558" lon="105.5293924"><ele>812.62</ele><time>2026-06-06T01:58:49.000Z</time></trkpt>
        <trkpt lat="28.2737634" lon="105.5295097"><ele>810.69</ele><time>2026-06-06T01:58:57.000Z</time></trkpt>
        <trkpt lat="28.2737721" lon="105.5296175"><ele>808.89</ele><time>2026-06-06T01:59:05.000Z</time></trkpt>
        <trkpt lat="28.2738432" lon="105.5296713"><ele>807.35</ele><time>2026-06-06T01:59:17.000Z</time></trkpt>
        <trkpt lat="28.2739487" lon="105.5296898"><ele>805.49</ele><time>2026-06-06T01:59:31.000Z</time></trkpt>
        <trkpt lat="28.2740077" lon="105.5297"><ele>803.38</ele><time>2026-06-06T01:59:37.000Z</time></trkpt>
        <trkpt lat="28.2739411" lon="105.5296858"><ele>801.75</ele><time>2026-06-06T01:59:47.000Z</time></trkpt>
        <trkpt lat="28.2738377" lon="105.5296787"><ele>801.16</ele><time>2026-06-06T01:59:55.000Z</time></trkpt>
        <trkpt lat="28.2737283" lon="105.5296425"><ele>801.95</ele><time>2026-06-06T02:00:05.000Z</time></trkpt>
        <trkpt lat="28.2737274" lon="105.5296579"><ele>803.33</ele><time>2026-06-06T02:00:15.000Z</time></trkpt>
        <trkpt lat="28.2737579" lon="105.529745"><ele>804.2</ele><time>2026-06-06T02:00:37.000Z</time></trkpt>
        <trkpt lat="28.273793" lon="105.5298521"><ele>801.67</ele><time>2026-06-06T02:00:53.000Z</time></trkpt>
        <trkpt lat="28.2738248" lon="105.5299671"><ele>798.39</ele><time>2026-06-06T02:01:07.000Z</time></trkpt>
        <trkpt lat="28.2738459" lon="105.5300501"><ele>794.56</ele><time>2026-06-06T02:01:17.000Z</time></trkpt>
        <trkpt lat="28.2738674" lon="105.5301508"><ele>791.63</ele><time>2026-06-06T02:01:33.000Z</time></trkpt>
        <trkpt lat="28.2738931" lon="105.5302535"><ele>788.35</ele><time>2026-06-06T02:01:45.000Z</time></trkpt>
        <trkpt lat="28.2739106" lon="105.5303615"><ele>784.85</ele><time>2026-06-06T02:01:55.000Z</time></trkpt>
        <trkpt lat="28.2739201" lon="105.5304759"><ele>781.74</ele><time>2026-06-06T02:02:05.000Z</time></trkpt>
        <trkpt lat="28.2739332" lon="105.5305968"><ele>779.13</ele><time>2026-06-06T02:02:15.000Z</time></trkpt>
        <trkpt lat="28.2739431" lon="105.5307122"><ele>776.65</ele><time>2026-06-06T02:02:25.000Z</time></trkpt>
        <trkpt lat="28.2739284" lon="105.5308277"><ele>774.02</ele><time>2026-06-06T02:02:35.000Z</time></trkpt>
        <trkpt lat="28.2739227" lon="105.53086"><ele>770.9</ele><time>2026-06-06T02:02:37.000Z</time></trkpt>
        <trkpt lat="28.273905" lon="105.5309348"><ele>769.06</ele><time>2026-06-06T02:03:01.000Z</time></trkpt>
        <trkpt lat="28.2739174" lon="105.5310338"><ele>766.75</ele><time>2026-06-06T02:03:13.000Z</time></trkpt>
        <trkpt lat="28.273931" lon="105.5311379"><ele>763.87</ele><time>2026-06-06T02:03:25.000Z</time></trkpt>
        <trkpt lat="28.2739663" lon="105.5312412"><ele>761.17</ele><time>2026-06-06T02:03:39.000Z</time></trkpt>
        <trkpt lat="28.2740207" lon="105.5313455"><ele>757.64</ele><time>2026-06-06T02:03:51.000Z</time></trkpt>
        <trkpt lat="28.2740761" lon="105.5314406"><ele>754.43</ele><time>2026-06-06T02:04:07.000Z</time></trkpt>
        <trkpt lat="28.2741138" lon="105.5315393"><ele>750.72</ele><time>2026-06-06T02:04:23.000Z</time></trkpt>
        <trkpt lat="28.2741383" lon="105.5316493"><ele>746.04</ele><time>2026-06-06T02:04:37.000Z</time></trkpt>
        <trkpt lat="28.2741626" lon="105.5317674"><ele>742.42</ele><time>2026-06-06T02:04:55.000Z</time></trkpt>
        <trkpt lat="28.274185" lon="105.5318862"><ele>738.18</ele><time>2026-06-06T02:05:05.000Z</time></trkpt>
        <trkpt lat="28.2742101" lon="105.5320013"><ele>734.42</ele><time>2026-06-06T02:05:15.000Z</time></trkpt>
        <trkpt lat="28.2742419" lon="105.5321178"><ele>731.04</ele><time>2026-06-06T02:05:25.000Z</time></trkpt>
        <trkpt lat="28.274273" lon="105.5322206"><ele>728.65</ele><time>2026-06-06T02:05:55.000Z</time></trkpt>
        <trkpt lat="28.2743218" lon="105.5323161"><ele>725.73</ele><time>2026-06-06T02:06:13.000Z</time></trkpt>
        <trkpt lat="28.2743667" lon="105.5324128"><ele>721.72</ele><time>2026-06-06T02:06:31.000Z</time></trkpt>
        <trkpt lat="28.2743993" lon="105.5325099"><ele>718.13</ele><time>2026-06-06T02:06:43.000Z</time></trkpt>
        <trkpt lat="28.274433" lon="105.5326218"><ele>715.8</ele><time>2026-06-06T02:06:55.000Z</time></trkpt>
        <trkpt lat="28.2744897" lon="105.5327237"><ele>714.97</ele><time>2026-06-06T02:07:05.000Z</time></trkpt>
        <trkpt lat="28.2745385" lon="105.5328222"><ele>714.38</ele><time>2026-06-06T02:07:19.000Z</time></trkpt>
        <trkpt lat="28.2745617" lon="105.5329337"><ele>712.03</ele><time>2026-06-06T02:07:43.000Z</time></trkpt>
        <trkpt lat="28.2745368" lon="105.5330388"><ele>707.9</ele><time>2026-06-06T02:09:55.000Z</time></trkpt>
        <trkpt lat="28.2745476" lon="105.5331501"><ele>704.44</ele><time>2026-06-06T02:10:55.000Z</time></trkpt>
        <trkpt lat="28.2745646" lon="105.5332588"><ele>700.16</ele><time>2026-06-06T02:11:05.000Z</time></trkpt>
        <trkpt lat="28.2745419" lon="105.5333624"><ele>696.99</ele><time>2026-06-06T02:11:15.000Z</time></trkpt>
        <trkpt lat="28.2745014" lon="105.5334602"><ele>694</ele><time>2026-06-06T02:11:27.000Z</time></trkpt>
        <trkpt lat="28.2744678" lon="105.5335575"><ele>691.13</ele><time>2026-06-06T02:11:43.000Z</time></trkpt>
        <trkpt lat="28.2745135" lon="105.5336249"><ele>686.82</ele><time>2026-06-06T02:11:59.000Z</time></trkpt>
        <trkpt lat="28.2746034" lon="105.5336455"><ele>683.83</ele><time>2026-06-06T02:12:19.000Z</time></trkpt>
        <trkpt lat="28.2746811" lon="105.5337049"><ele>679.64</ele><time>2026-06-06T02:12:45.000Z</time></trkpt>
        <trkpt lat="28.2746969" lon="105.5338062"><ele>674.43</ele><time>2026-06-06T02:13:05.000Z</time></trkpt>
        <trkpt lat="28.2746889" lon="105.5339142"><ele>670.38</ele><time>2026-06-06T02:13:19.000Z</time></trkpt>
        <trkpt lat="28.274675" lon="105.534022"><ele>666.13</ele><time>2026-06-06T02:13:33.000Z</time></trkpt>
        <trkpt lat="28.2746474" lon="105.5341251"><ele>662.23</ele><time>2026-06-06T02:13:53.000Z</time></trkpt>
        <trkpt lat="28.2745944" lon="105.5342123"><ele>657.73</ele><time>2026-06-06T02:14:13.000Z</time></trkpt>
        <trkpt lat="28.2745708" lon="105.5343145"><ele>652.74</ele><time>2026-06-06T02:14:31.000Z</time></trkpt>
        <trkpt lat="28.2745581" lon="105.5344235"><ele>647.31</ele><time>2026-06-06T02:14:47.000Z</time></trkpt>
        <trkpt lat="28.2745871" lon="105.5345249"><ele>641.86</ele><time>2026-06-06T02:15:09.000Z</time></trkpt>
        <trkpt lat="28.2746191" lon="105.5346262"><ele>635.84</ele><time>2026-06-06T02:15:29.000Z</time></trkpt>
        <trkpt lat="28.2747064" lon="105.5346489"><ele>628.84</ele><time>2026-06-06T02:15:51.000Z</time></trkpt>
        <trkpt lat="28.274775" lon="105.5345769"><ele>621.8</ele><time>2026-06-06T02:16:13.000Z</time></trkpt>
        <trkpt lat="28.2748619" lon="105.5345667"><ele>614.87</ele><time>2026-06-06T02:16:31.000Z</time></trkpt>
        <trkpt lat="28.2749535" lon="105.5345775"><ele>610.09</ele><time>2026-06-06T02:16:43.000Z</time></trkpt>
        <trkpt lat="28.2750152" lon="105.5345772"><ele>607.45</ele><time>2026-06-06T02:16:55.000Z</time></trkpt>
        <trkpt lat="28.2750528" lon="105.5346505"><ele>605.61</ele><time>2026-06-06T02:17:25.000Z</time></trkpt>
        <trkpt lat="28.2750572" lon="105.5347553"><ele>601.3</ele><time>2026-06-06T02:17:39.000Z</time></trkpt>
        <trkpt lat="28.2750208" lon="105.5348582"><ele>596.03</ele><time>2026-06-06T02:17:49.000Z</time></trkpt>
        <trkpt lat="28.2749763" lon="105.5349627"><ele>591.92</ele><time>2026-06-06T02:18:01.000Z</time></trkpt>
        <trkpt lat="28.2749268" lon="105.535063"><ele>587.96</ele><time>2026-06-06T02:18:13.000Z</time></trkpt>
        <trkpt lat="28.2748731" lon="105.5351632"><ele>583.35</ele><time>2026-06-06T02:18:25.000Z</time></trkpt>
        <trkpt lat="28.2747749" lon="105.5351943"><ele>579.7</ele><time>2026-06-06T02:18:35.000Z</time></trkpt>
        <trkpt lat="28.2748081" lon="105.5352467"><ele>574.64</ele><time>2026-06-06T02:18:51.000Z</time></trkpt>
        <trkpt lat="28.2748337" lon="105.5353348"><ele>572.05</ele><time>2026-06-06T02:19:13.000Z</time></trkpt>
        <trkpt lat="28.2748436" lon="105.5354531"><ele>568.39</ele><time>2026-06-06T02:19:37.000Z</time></trkpt>
        <trkpt lat="28.2748854" lon="105.5355635"><ele>563.6</ele><time>2026-06-06T02:19:53.000Z</time></trkpt>
        <trkpt lat="28.2748972" lon="105.5355917"><ele>560.2</ele><time>2026-06-06T02:19:55.000Z</time></trkpt>
        <trkpt lat="28.2749321" lon="105.5356609"><ele>558.12</ele><time>2026-06-06T02:20:19.000Z</time></trkpt>
        <trkpt lat="28.2750123" lon="105.5356864"><ele>553.04</ele><time>2026-06-06T02:21:05.000Z</time></trkpt>
        <trkpt lat="28.2751051" lon="105.5356419"><ele>545.46</ele><time>2026-06-06T02:21:29.000Z</time></trkpt>
        <trkpt lat="28.2751381" lon="105.535624"><ele>539.92</ele><time>2026-06-06T02:21:31.000Z</time></trkpt>
        <trkpt lat="28.2751574" lon="105.5355382"><ele>536.83</ele><time>2026-06-06T02:22:15.000Z</time></trkpt>
        <trkpt lat="28.2751948" lon="105.5355835"><ele>531.61</ele><time>2026-06-06T02:22:33.000Z</time></trkpt>
        <trkpt lat="28.2752303" lon="105.5356858"><ele>526.52</ele><time>2026-06-06T02:22:53.000Z</time></trkpt>
        <trkpt lat="28.2752758" lon="105.5357993"><ele>521.41</ele><time>2026-06-06T02:23:09.000Z</time></trkpt>
        <trkpt lat="28.2753496" lon="105.5358672"><ele>516.97</ele><time>2026-06-06T02:23:45.000Z</time></trkpt>
        <trkpt lat="28.2753837" lon="105.5359715"><ele>512.89</ele><time>2026-06-06T02:24:01.000Z</time></trkpt>
        <trkpt lat="28.2753472" lon="105.5360734"><ele>508.71</ele><time>2026-06-06T02:24:17.000Z</time></trkpt>
        <trkpt lat="28.2752565" lon="105.5361168"><ele>503.99</ele><time>2026-06-06T02:24:55.000Z</time></trkpt>
        <trkpt lat="28.2751727" lon="105.5361791"><ele>500.05</ele><time>2026-06-06T02:25:39.000Z</time></trkpt>
        <trkpt lat="28.2750883" lon="105.5362352"><ele>495.21</ele><time>2026-06-06T02:25:59.000Z</time></trkpt>
        <trkpt lat="28.2750271" lon="105.5363136"><ele>489.93</ele><time>2026-06-06T02:26:15.000Z</time></trkpt>
        <trkpt lat="28.2749572" lon="105.5363809"><ele>485.25</ele><time>2026-06-06T02:26:29.000Z</time></trkpt>
        <trkpt lat="28.274871" lon="105.5364257"><ele>481.82</ele><time>2026-06-06T02:26:49.000Z</time></trkpt>
        <trkpt lat="28.274774" lon="105.5364122"><ele>477.54</ele><time>2026-06-06T02:27:03.000Z</time></trkpt>
        <trkpt lat="28.2746672" lon="105.5364096"><ele>473.08</ele><time>2026-06-06T02:27:15.000Z</time></trkpt>
        <trkpt lat="28.2745714" lon="105.5363849"><ele>469.33</ele><time>2026-06-06T02:27:25.000Z</time></trkpt>
        <trkpt lat="28.2744824" lon="105.5363487"><ele>466.18</ele><time>2026-06-06T02:27:33.000Z</time></trkpt>
        <trkpt lat="28.2743999" lon="105.5362986"><ele>463.67</ele><time>2026-06-06T02:27:41.000Z</time></trkpt>
        <trkpt lat="28.2743221" lon="105.5362433"><ele>461.97</ele><time>2026-06-06T02:27:49.000Z</time></trkpt>
        <trkpt lat="28.2742387" lon="105.5361966"><ele>461.03</ele><time>2026-06-06T02:27:57.000Z</time></trkpt>
        <trkpt lat="28.2741516" lon="105.5361605"><ele>458.74</ele><time>2026-06-06T02:28:05.000Z</time></trkpt>
        <trkpt lat="28.2740989" lon="105.5361381"><ele>456.79</ele><time>2026-06-06T02:28:11.000Z</time></trkpt>
        <trkpt lat="28.2740222" lon="105.5360874"><ele>455.69</ele><time>2026-06-06T02:28:21.000Z</time></trkpt>
        <trkpt lat="28.2739369" lon="105.5360518"><ele>453.36</ele><time>2026-06-06T02:28:29.000Z</time></trkpt>
        <trkpt lat="28.2738381" lon="105.5360263"><ele>451.55</ele><time>2026-06-06T02:28:39.000Z</time></trkpt>
        <trkpt lat="28.273737" lon="105.535999"><ele>449.21</ele><time>2026-06-06T02:28:49.000Z</time></trkpt>
        <trkpt lat="28.2736459" lon="105.5359596"><ele>447.71</ele><time>2026-06-06T02:28:59.000Z</time></trkpt>
        <trkpt lat="28.2735577" lon="105.5359077"><ele>445.9</ele><time>2026-06-06T02:29:09.000Z</time></trkpt>
        <trkpt lat="28.2734722" lon="105.5358565"><ele>443.96</ele><time>2026-06-06T02:29:19.000Z</time></trkpt>
        <trkpt lat="28.2734065" lon="105.5357708"><ele>441.49</ele><time>2026-06-06T02:29:31.000Z</time></trkpt>
        <trkpt lat="28.2733585" lon="105.5356757"><ele>439.18</ele><time>2026-06-06T02:29:41.000Z</time></trkpt>
        <trkpt lat="28.2732848" lon="105.5356791"><ele>437.24</ele><time>2026-06-06T02:29:57.000Z</time></trkpt>
        <trkpt lat="28.2732771" lon="105.5357802"><ele>434.02</ele><time>2026-06-06T02:30:09.000Z</time></trkpt>
        <trkpt lat="28.2733043" lon="105.5359099"><ele>430.47</ele><time>2026-06-06T02:30:19.000Z</time></trkpt>
        <trkpt lat="28.2733512" lon="105.5360253"><ele>427.68</ele><time>2026-06-06T02:30:29.000Z</time></trkpt>
        <trkpt lat="28.2734244" lon="105.5361216"><ele>424.42</ele><time>2026-06-06T02:30:39.000Z</time></trkpt>
        <trkpt lat="28.2735029" lon="105.5362148"><ele>421.41</ele><time>2026-06-06T02:30:49.000Z</time></trkpt>
        <trkpt lat="28.2735688" lon="105.5363138"><ele>419.1</ele><time>2026-06-06T02:30:59.000Z</time></trkpt>
        <trkpt lat="28.2735974" lon="105.5364199"><ele>417.05</ele><time>2026-06-06T02:31:09.000Z</time></trkpt>
        <trkpt lat="28.2736435" lon="105.5365165"><ele>415.61</ele><time>2026-06-06T02:31:19.000Z</time></trkpt>
        <trkpt lat="28.2736923" lon="105.5366079"><ele>415.29</ele><time>2026-06-06T02:31:29.000Z</time></trkpt>
        <trkpt lat="28.2737485" lon="105.5366906"><ele>414.74</ele><time>2026-06-06T02:31:39.000Z</time></trkpt>
        <trkpt lat="28.2738219" lon="105.5367565"><ele>413.77</ele><time>2026-06-06T02:31:49.000Z</time></trkpt>
        <trkpt lat="28.2738741" lon="105.5367951"><ele>411.6</ele><time>2026-06-06T02:31:55.000Z</time></trkpt>
        <trkpt lat="28.2739268" lon="105.536874"><ele>410.84</ele><time>2026-06-06T02:32:11.000Z</time></trkpt>
        <trkpt lat="28.2739773" lon="105.5369678"><ele>409.26</ele><time>2026-06-06T02:32:21.000Z</time></trkpt>
        <trkpt lat="28.2740065" lon="105.537072"><ele>408.11</ele><time>2026-06-06T02:32:33.000Z</time></trkpt>
        <trkpt lat="28.2740109" lon="105.5371799"><ele>406.64</ele><time>2026-06-06T02:32:47.000Z</time></trkpt>
        <trkpt lat="28.2739357" lon="105.5371783"><ele>405.12</ele><time>2026-06-06T02:32:59.000Z</time></trkpt>
        <trkpt lat="28.2738936" lon="105.5371241"><ele>404.73</ele><time>2026-06-06T02:33:07.000Z</time></trkpt>
        <trkpt lat="28.2739428" lon="105.5369928"><ele>403.61</ele><time>2026-06-06T02:34:37.000Z</time></trkpt>
        <trkpt lat="28.2738958" lon="105.5368852"><ele>402.76</ele><time>2026-06-06T02:34:49.000Z</time></trkpt>
        <trkpt lat="28.2738367" lon="105.5367973"><ele>402.87</ele><time>2026-06-06T02:34:59.000Z</time></trkpt>
        <trkpt lat="28.2738208" lon="105.5366882"><ele>404.7</ele><time>2026-06-06T02:35:11.000Z</time></trkpt>
        <trkpt lat="28.2738702" lon="105.5366073"><ele>405.57</ele><time>2026-06-06T02:35:43.000Z</time></trkpt>
        <trkpt lat="28.2738702" lon="105.5366073"><ele>405.57</ele><time>2026-06-06T02:38:26.000Z</time></trkpt>
      </trkseg>
  </trk>
</gpx>